<?xml version="1.0" encoding="UTF-8" standalone="no" ?>
<gpx xmlns="http://www.topografix.com/GPX/1/1" xmlns:xsi="http://www.w3.org/2001/XMLSchema-instance" xsi:schemaLocation="http://www.topografix.com/GPX/1/1 http://www.topografix.com/GPX/1/1/gpx.xsd" version="1.1" creator="VisuGPX - https://www.visugpx.com">
  <metadata>
    <name>Saint Marcel de Félines</name>
    <desc><![CDATA[Belle ballade, pas très difficile. Des passages en sous bois agréables.]]></desc>
  </metadata>
  <trk>
    <name><![CDATA[Saint Marcel de Félines_1]]></name>
    <extensions>
      <line xmlns="http://www.topografix.com/GPX/gpx_style/0/2">
        <color>0000FF</color>
        <width>4</width>
      </line>
    </extensions>
    <trkseg>
      <trkpt lat="45.86649" lon="4.19309">
        <ele>576</ele>
        <time>2022-03-07T13:04:28Z</time>
      </trkpt>
      <trkpt lat="45.8665" lon="4.19309">
        <ele>572.4</ele>
        <time>2022-03-07T13:04:33Z</time>
      </trkpt>
      <trkpt lat="45.86652" lon="4.19307">
        <ele>569.7</ele>
        <time>2022-03-07T13:04:39Z</time>
      </trkpt>
      <trkpt lat="45.86659" lon="4.19304">
        <ele>565.4</ele>
        <time>2022-03-07T13:04:44Z</time>
      </trkpt>
      <trkpt lat="45.86667" lon="4.19302">
        <ele>563.4</ele>
        <time>2022-03-07T13:04:49Z</time>
      </trkpt>
      <trkpt lat="45.86675" lon="4.19298">
        <ele>563.1</ele>
        <time>2022-03-07T13:04:54Z</time>
      </trkpt>
      <trkpt lat="45.86682" lon="4.19295">
        <ele>581.5</ele>
        <time>2022-03-07T13:04:59Z</time>
      </trkpt>
      <trkpt lat="45.86688" lon="4.19293">
        <ele>604.3</ele>
        <time>2022-03-07T13:05:04Z</time>
      </trkpt>
      <trkpt lat="45.86694" lon="4.1929">
        <ele>585.4</ele>
        <time>2022-03-07T13:05:10Z</time>
      </trkpt>
      <trkpt lat="45.86699" lon="4.19286">
        <ele>589.4</ele>
        <time>2022-03-07T13:05:15Z</time>
      </trkpt>
      <trkpt lat="45.86704" lon="4.19282">
        <ele>591.3</ele>
        <time>2022-03-07T13:05:20Z</time>
      </trkpt>
      <trkpt lat="45.8671" lon="4.1928">
        <ele>602.7</ele>
        <time>2022-03-07T13:05:25Z</time>
      </trkpt>
      <trkpt lat="45.86717" lon="4.19277">
        <ele>598</ele>
        <time>2022-03-07T13:05:30Z</time>
      </trkpt>
      <trkpt lat="45.86723" lon="4.19275">
        <ele>569.2</ele>
        <time>2022-03-07T13:05:36Z</time>
      </trkpt>
      <trkpt lat="45.86728" lon="4.19274">
        <ele>577.4</ele>
        <time>2022-03-07T13:05:41Z</time>
      </trkpt>
      <trkpt lat="45.86733" lon="4.19274">
        <ele>582.5</ele>
        <time>2022-03-07T13:05:46Z</time>
      </trkpt>
      <trkpt lat="45.86738" lon="4.19272">
        <ele>588.7</ele>
        <time>2022-03-07T13:05:51Z</time>
      </trkpt>
      <trkpt lat="45.86742" lon="4.19269">
        <ele>511.9</ele>
        <time>2022-03-07T13:05:56Z</time>
      </trkpt>
      <trkpt lat="45.86746" lon="4.19266">
        <ele>511.4</ele>
        <time>2022-03-07T13:06:02Z</time>
      </trkpt>
      <trkpt lat="45.8675" lon="4.19263">
        <ele>510.2</ele>
        <time>2022-03-07T13:06:07Z</time>
      </trkpt>
      <trkpt lat="45.86752" lon="4.19261">
        <ele>512.5</ele>
        <time>2022-03-07T13:06:12Z</time>
      </trkpt>
      <trkpt lat="45.86756" lon="4.19259">
        <ele>509.6</ele>
        <time>2022-03-07T13:06:17Z</time>
      </trkpt>
      <trkpt lat="45.86759" lon="4.19256">
        <ele>511.6</ele>
        <time>2022-03-07T13:06:22Z</time>
      </trkpt>
      <trkpt lat="45.86763" lon="4.19255">
        <ele>511.6</ele>
        <time>2022-03-07T13:06:28Z</time>
      </trkpt>
      <trkpt lat="45.86766" lon="4.19253">
        <ele>512.3</ele>
        <time>2022-03-07T13:06:33Z</time>
      </trkpt>
      <trkpt lat="45.86768" lon="4.19255">
        <ele>511.9</ele>
        <time>2022-03-07T13:06:38Z</time>
      </trkpt>
      <trkpt lat="45.86771" lon="4.19257">
        <ele>512.7</ele>
        <time>2022-03-07T13:06:44Z</time>
      </trkpt>
      <trkpt lat="45.86775" lon="4.19256">
        <ele>513.1</ele>
        <time>2022-03-07T13:06:49Z</time>
      </trkpt>
      <trkpt lat="45.8678" lon="4.19254">
        <ele>512.7</ele>
        <time>2022-03-07T13:06:54Z</time>
      </trkpt>
      <trkpt lat="45.86785" lon="4.19252">
        <ele>511.8</ele>
        <time>2022-03-07T13:07:00Z</time>
      </trkpt>
      <trkpt lat="45.86787" lon="4.19248">
        <ele>512.5</ele>
        <time>2022-03-07T13:07:05Z</time>
      </trkpt>
      <trkpt lat="45.86789" lon="4.19243">
        <ele>511.6</ele>
        <time>2022-03-07T13:07:10Z</time>
      </trkpt>
      <trkpt lat="45.86792" lon="4.19238">
        <ele>511.6</ele>
        <time>2022-03-07T13:07:15Z</time>
      </trkpt>
      <trkpt lat="45.86797" lon="4.19233">
        <ele>511.2</ele>
        <time>2022-03-07T13:07:20Z</time>
      </trkpt>
      <trkpt lat="45.86801" lon="4.19227">
        <ele>511.8</ele>
        <time>2022-03-07T13:07:25Z</time>
      </trkpt>
      <trkpt lat="45.86806" lon="4.19222">
        <ele>511.5</ele>
        <time>2022-03-07T13:07:30Z</time>
      </trkpt>
      <trkpt lat="45.86814" lon="4.19221">
        <ele>511.5</ele>
        <time>2022-03-07T13:07:36Z</time>
      </trkpt>
      <trkpt lat="45.86822" lon="4.19223">
        <ele>512.2</ele>
        <time>2022-03-07T13:07:41Z</time>
      </trkpt>
      <trkpt lat="45.86827" lon="4.19224">
        <ele>511.2</ele>
        <time>2022-03-07T13:07:46Z</time>
      </trkpt>
      <trkpt lat="45.86831" lon="4.19219">
        <ele>510.7</ele>
        <time>2022-03-07T13:07:52Z</time>
      </trkpt>
      <trkpt lat="45.86836" lon="4.19215">
        <ele>510.8</ele>
        <time>2022-03-07T13:07:57Z</time>
      </trkpt>
      <trkpt lat="45.8684" lon="4.19211">
        <ele>510.7</ele>
        <time>2022-03-07T13:08:02Z</time>
      </trkpt>
      <trkpt lat="45.86845" lon="4.19207">
        <ele>510.5</ele>
        <time>2022-03-07T13:08:07Z</time>
      </trkpt>
      <trkpt lat="45.8685" lon="4.19201">
        <ele>510.7</ele>
        <time>2022-03-07T13:08:12Z</time>
      </trkpt>
      <trkpt lat="45.86852" lon="4.19193">
        <ele>510.8</ele>
        <time>2022-03-07T13:08:17Z</time>
      </trkpt>
      <trkpt lat="45.86852" lon="4.19184">
        <ele>510.7</ele>
        <time>2022-03-07T13:08:23Z</time>
      </trkpt>
      <trkpt lat="45.8685" lon="4.1918">
        <ele>510.8</ele>
        <time>2022-03-07T13:08:28Z</time>
      </trkpt>
      <trkpt lat="45.86849" lon="4.19175">
        <ele>511.2</ele>
        <time>2022-03-07T13:08:33Z</time>
      </trkpt>
      <trkpt lat="45.86849" lon="4.19168">
        <ele>511.4</ele>
        <time>2022-03-07T13:08:38Z</time>
      </trkpt>
      <trkpt lat="45.8685" lon="4.19161">
        <ele>510.8</ele>
        <time>2022-03-07T13:08:43Z</time>
      </trkpt>
      <trkpt lat="45.86852" lon="4.19153">
        <ele>510.7</ele>
        <time>2022-03-07T13:08:48Z</time>
      </trkpt>
      <trkpt lat="45.86859" lon="4.19149">
        <ele>510.6</ele>
        <time>2022-03-07T13:08:53Z</time>
      </trkpt>
      <trkpt lat="45.8687" lon="4.1915">
        <ele>513.8</ele>
        <time>2022-03-07T13:08:59Z</time>
      </trkpt>
      <trkpt lat="45.86879" lon="4.19145">
        <ele>516.1</ele>
        <time>2022-03-07T13:09:04Z</time>
      </trkpt>
      <trkpt lat="45.86885" lon="4.19138">
        <ele>515.8</ele>
        <time>2022-03-07T13:09:10Z</time>
      </trkpt>
      <trkpt lat="45.86891" lon="4.19131">
        <ele>524.3</ele>
        <time>2022-03-07T13:09:15Z</time>
      </trkpt>
      <trkpt lat="45.86895" lon="4.19123">
        <ele>526.8</ele>
        <time>2022-03-07T13:09:20Z</time>
      </trkpt>
      <trkpt lat="45.86899" lon="4.19115">
        <ele>526.2</ele>
        <time>2022-03-07T13:09:26Z</time>
      </trkpt>
      <trkpt lat="45.86904" lon="4.19112">
        <ele>526.8</ele>
        <time>2022-03-07T13:09:32Z</time>
      </trkpt>
      <trkpt lat="45.86912" lon="4.1911">
        <ele>528.1</ele>
        <time>2022-03-07T13:09:37Z</time>
      </trkpt>
      <trkpt lat="45.8692" lon="4.19109">
        <ele>528.5</ele>
        <time>2022-03-07T13:09:43Z</time>
      </trkpt>
      <trkpt lat="45.86926" lon="4.19107">
        <ele>529.5</ele>
        <time>2022-03-07T13:09:48Z</time>
      </trkpt>
      <trkpt lat="45.86932" lon="4.19109">
        <ele>529.8</ele>
        <time>2022-03-07T13:09:53Z</time>
      </trkpt>
      <trkpt lat="45.86938" lon="4.19109">
        <ele>530.2</ele>
        <time>2022-03-07T13:09:59Z</time>
      </trkpt>
      <trkpt lat="45.86943" lon="4.19113">
        <ele>530.2</ele>
        <time>2022-03-07T13:10:04Z</time>
      </trkpt>
      <trkpt lat="45.86951" lon="4.1911">
        <ele>530.1</ele>
        <time>2022-03-07T13:10:10Z</time>
      </trkpt>
      <trkpt lat="45.86958" lon="4.19109">
        <ele>529.1</ele>
        <time>2022-03-07T13:10:15Z</time>
      </trkpt>
      <trkpt lat="45.86965" lon="4.1911">
        <ele>528.2</ele>
        <time>2022-03-07T13:10:21Z</time>
      </trkpt>
      <trkpt lat="45.8697" lon="4.1911">
        <ele>527.9</ele>
        <time>2022-03-07T13:10:26Z</time>
      </trkpt>
      <trkpt lat="45.86976" lon="4.1911">
        <ele>527.5</ele>
        <time>2022-03-07T13:10:32Z</time>
      </trkpt>
      <trkpt lat="45.86982" lon="4.1911">
        <ele>528.2</ele>
        <time>2022-03-07T13:10:37Z</time>
      </trkpt>
      <trkpt lat="45.86981" lon="4.19111">
        <ele>527.3</ele>
        <time>2022-03-07T13:10:42Z</time>
      </trkpt>
      <trkpt lat="45.8698" lon="4.1911">
        <ele>526.8</ele>
        <time>2022-03-07T13:10:47Z</time>
      </trkpt>
      <trkpt lat="45.86979" lon="4.19108">
        <ele>526.6</ele>
        <time>2022-03-07T13:10:53Z</time>
      </trkpt>
      <trkpt lat="45.86978" lon="4.19106">
        <ele>527.9</ele>
        <time>2022-03-07T13:10:58Z</time>
      </trkpt>
      <trkpt lat="45.86974" lon="4.19107">
        <ele>527.9</ele>
        <time>2022-03-07T13:11:04Z</time>
      </trkpt>
      <trkpt lat="45.86974" lon="4.19108">
        <ele>528.2</ele>
        <time>2022-03-07T13:11:10Z</time>
      </trkpt>
      <trkpt lat="45.86977" lon="4.19109">
        <ele>526.6</ele>
        <time>2022-03-07T13:11:15Z</time>
      </trkpt>
      <trkpt lat="45.86982" lon="4.19111">
        <ele>526.5</ele>
        <time>2022-03-07T13:11:20Z</time>
      </trkpt>
      <trkpt lat="45.86982" lon="4.19115">
        <ele>527.4</ele>
        <time>2022-03-07T13:11:25Z</time>
      </trkpt>
      <trkpt lat="45.86985" lon="4.19117">
        <ele>526.6</ele>
        <time>2022-03-07T13:11:30Z</time>
      </trkpt>
      <trkpt lat="45.8699" lon="4.19115">
        <ele>528.7</ele>
        <time>2022-03-07T13:11:36Z</time>
      </trkpt>
      <trkpt lat="45.86993" lon="4.19111">
        <ele>529</ele>
        <time>2022-03-07T13:11:42Z</time>
      </trkpt>
      <trkpt lat="45.86999" lon="4.1911">
        <ele>528.4</ele>
        <time>2022-03-07T13:11:47Z</time>
      </trkpt>
      <trkpt lat="45.87009" lon="4.19107">
        <ele>528.9</ele>
        <time>2022-03-07T13:11:52Z</time>
      </trkpt>
      <trkpt lat="45.87018" lon="4.19103">
        <ele>528.6</ele>
        <time>2022-03-07T13:11:57Z</time>
      </trkpt>
      <trkpt lat="45.87026" lon="4.19099">
        <ele>528.4</ele>
        <time>2022-03-07T13:12:02Z</time>
      </trkpt>
      <trkpt lat="45.87033" lon="4.191">
        <ele>526.3</ele>
        <time>2022-03-07T13:12:08Z</time>
      </trkpt>
      <trkpt lat="45.87039" lon="4.191">
        <ele>523.6</ele>
        <time>2022-03-07T13:12:13Z</time>
      </trkpt>
      <trkpt lat="45.87043" lon="4.19099">
        <ele>519.8</ele>
        <time>2022-03-07T13:12:18Z</time>
      </trkpt>
      <trkpt lat="45.87047" lon="4.19098">
        <ele>520.4</ele>
        <time>2022-03-07T13:12:23Z</time>
      </trkpt>
      <trkpt lat="45.87049" lon="4.19096">
        <ele>521</ele>
        <time>2022-03-07T13:12:28Z</time>
      </trkpt>
      <trkpt lat="45.87054" lon="4.19097">
        <ele>521.3</ele>
        <time>2022-03-07T13:12:33Z</time>
      </trkpt>
      <trkpt lat="45.8706" lon="4.19097">
        <ele>521.3</ele>
        <time>2022-03-07T13:12:39Z</time>
      </trkpt>
      <trkpt lat="45.87063" lon="4.19096">
        <ele>521.7</ele>
        <time>2022-03-07T13:12:44Z</time>
      </trkpt>
      <trkpt lat="45.87068" lon="4.19094">
        <ele>520.9</ele>
        <time>2022-03-07T13:12:49Z</time>
      </trkpt>
      <trkpt lat="45.87072" lon="4.19092">
        <ele>522.3</ele>
        <time>2022-03-07T13:12:54Z</time>
      </trkpt>
      <trkpt lat="45.87075" lon="4.19087">
        <ele>522.7</ele>
        <time>2022-03-07T13:12:59Z</time>
      </trkpt>
      <trkpt lat="45.87079" lon="4.19083">
        <ele>525.5</ele>
        <time>2022-03-07T13:13:05Z</time>
      </trkpt>
      <trkpt lat="45.87086" lon="4.19084">
        <ele>523</ele>
        <time>2022-03-07T13:13:10Z</time>
      </trkpt>
      <trkpt lat="45.87092" lon="4.19082">
        <ele>523.4</ele>
        <time>2022-03-07T13:13:15Z</time>
      </trkpt>
      <trkpt lat="45.87097" lon="4.19077">
        <ele>523.4</ele>
        <time>2022-03-07T13:13:20Z</time>
      </trkpt>
      <trkpt lat="45.87104" lon="4.19075">
        <ele>523.7</ele>
        <time>2022-03-07T13:13:25Z</time>
      </trkpt>
      <trkpt lat="45.8711" lon="4.19075">
        <ele>524.2</ele>
        <time>2022-03-07T13:13:30Z</time>
      </trkpt>
      <trkpt lat="45.87116" lon="4.19079">
        <ele>524.3</ele>
        <time>2022-03-07T13:13:36Z</time>
      </trkpt>
      <trkpt lat="45.87121" lon="4.19076">
        <ele>525.1</ele>
        <time>2022-03-07T13:13:41Z</time>
      </trkpt>
      <trkpt lat="45.87126" lon="4.19075">
        <ele>525.1</ele>
        <time>2022-03-07T13:13:46Z</time>
      </trkpt>
      <trkpt lat="45.87129" lon="4.19075">
        <ele>526.1</ele>
        <time>2022-03-07T13:13:52Z</time>
      </trkpt>
      <trkpt lat="45.87134" lon="4.19071">
        <ele>525.7</ele>
        <time>2022-03-07T13:13:57Z</time>
      </trkpt>
      <trkpt lat="45.8714" lon="4.19071">
        <ele>524.1</ele>
        <time>2022-03-07T13:14:03Z</time>
      </trkpt>
      <trkpt lat="45.87146" lon="4.19066">
        <ele>524.2</ele>
        <time>2022-03-07T13:14:08Z</time>
      </trkpt>
      <trkpt lat="45.87152" lon="4.19063">
        <ele>523.9</ele>
        <time>2022-03-07T13:14:13Z</time>
      </trkpt>
      <trkpt lat="45.87157" lon="4.19061">
        <ele>525.3</ele>
        <time>2022-03-07T13:14:19Z</time>
      </trkpt>
      <trkpt lat="45.87161" lon="4.19056">
        <ele>525</ele>
        <time>2022-03-07T13:14:24Z</time>
      </trkpt>
      <trkpt lat="45.87166" lon="4.19052">
        <ele>524.8</ele>
        <time>2022-03-07T13:14:30Z</time>
      </trkpt>
      <trkpt lat="45.87172" lon="4.19049">
        <ele>524.9</ele>
        <time>2022-03-07T13:14:35Z</time>
      </trkpt>
      <trkpt lat="45.87178" lon="4.19048">
        <ele>524.3</ele>
        <time>2022-03-07T13:14:40Z</time>
      </trkpt>
      <trkpt lat="45.87184" lon="4.19049">
        <ele>524.3</ele>
        <time>2022-03-07T13:14:45Z</time>
      </trkpt>
      <trkpt lat="45.87189" lon="4.19051">
        <ele>523.3</ele>
        <time>2022-03-07T13:14:51Z</time>
      </trkpt>
      <trkpt lat="45.87194" lon="4.19054">
        <ele>524.7</ele>
        <time>2022-03-07T13:14:56Z</time>
      </trkpt>
      <trkpt lat="45.87197" lon="4.19057">
        <ele>524.8</ele>
        <time>2022-03-07T13:15:01Z</time>
      </trkpt>
      <trkpt lat="45.872" lon="4.19061">
        <ele>525.1</ele>
        <time>2022-03-07T13:15:06Z</time>
      </trkpt>
      <trkpt lat="45.872" lon="4.19065">
        <ele>525.9</ele>
        <time>2022-03-07T13:15:12Z</time>
      </trkpt>
      <trkpt lat="45.87201" lon="4.19071">
        <ele>526.1</ele>
        <time>2022-03-07T13:15:17Z</time>
      </trkpt>
      <trkpt lat="45.87203" lon="4.19077">
        <ele>525.7</ele>
        <time>2022-03-07T13:15:23Z</time>
      </trkpt>
      <trkpt lat="45.87205" lon="4.19082">
        <ele>525.5</ele>
        <time>2022-03-07T13:15:28Z</time>
      </trkpt>
      <trkpt lat="45.87207" lon="4.19087">
        <ele>527.4</ele>
        <time>2022-03-07T13:15:33Z</time>
      </trkpt>
      <trkpt lat="45.87209" lon="4.19091">
        <ele>528.7</ele>
        <time>2022-03-07T13:15:39Z</time>
      </trkpt>
      <trkpt lat="45.87211" lon="4.19096">
        <ele>529</ele>
        <time>2022-03-07T13:15:44Z</time>
      </trkpt>
      <trkpt lat="45.87213" lon="4.19101">
        <ele>528.3</ele>
        <time>2022-03-07T13:15:50Z</time>
      </trkpt>
      <trkpt lat="45.87214" lon="4.19106">
        <ele>528.6</ele>
        <time>2022-03-07T13:15:55Z</time>
      </trkpt>
      <trkpt lat="45.87215" lon="4.19112">
        <ele>533</ele>
        <time>2022-03-07T13:16:01Z</time>
      </trkpt>
      <trkpt lat="45.87217" lon="4.19119">
        <ele>532.6</ele>
        <time>2022-03-07T13:16:06Z</time>
      </trkpt>
      <trkpt lat="45.8722" lon="4.19126">
        <ele>531.3</ele>
        <time>2022-03-07T13:16:12Z</time>
      </trkpt>
      <trkpt lat="45.87227" lon="4.19129">
        <ele>532.7</ele>
        <time>2022-03-07T13:16:18Z</time>
      </trkpt>
      <trkpt lat="45.87234" lon="4.19132">
        <ele>532.3</ele>
        <time>2022-03-07T13:16:23Z</time>
      </trkpt>
      <trkpt lat="45.87241" lon="4.19136">
        <ele>532.2</ele>
        <time>2022-03-07T13:16:29Z</time>
      </trkpt>
      <trkpt lat="45.87246" lon="4.1914">
        <ele>532.6</ele>
        <time>2022-03-07T13:16:34Z</time>
      </trkpt>
      <trkpt lat="45.87251" lon="4.19145">
        <ele>531.2</ele>
        <time>2022-03-07T13:16:39Z</time>
      </trkpt>
      <trkpt lat="45.87255" lon="4.1915">
        <ele>534.2</ele>
        <time>2022-03-07T13:16:44Z</time>
      </trkpt>
      <trkpt lat="45.87259" lon="4.19155">
        <ele>533.8</ele>
        <time>2022-03-07T13:16:50Z</time>
      </trkpt>
      <trkpt lat="45.87265" lon="4.19158">
        <ele>534</ele>
        <time>2022-03-07T13:16:55Z</time>
      </trkpt>
      <trkpt lat="45.87269" lon="4.19162">
        <ele>534.4</ele>
        <time>2022-03-07T13:17:01Z</time>
      </trkpt>
      <trkpt lat="45.87274" lon="4.19166">
        <ele>534.7</ele>
        <time>2022-03-07T13:17:06Z</time>
      </trkpt>
      <trkpt lat="45.87279" lon="4.1917">
        <ele>534.9</ele>
        <time>2022-03-07T13:17:12Z</time>
      </trkpt>
      <trkpt lat="45.87283" lon="4.19173">
        <ele>533.8</ele>
        <time>2022-03-07T13:17:18Z</time>
      </trkpt>
      <trkpt lat="45.87288" lon="4.19176">
        <ele>535.3</ele>
        <time>2022-03-07T13:17:24Z</time>
      </trkpt>
      <trkpt lat="45.87291" lon="4.19178">
        <ele>533.9</ele>
        <time>2022-03-07T13:17:29Z</time>
      </trkpt>
      <trkpt lat="45.87296" lon="4.19181">
        <ele>534.5</ele>
        <time>2022-03-07T13:17:34Z</time>
      </trkpt>
      <trkpt lat="45.87298" lon="4.19183">
        <ele>533.8</ele>
        <time>2022-03-07T13:17:39Z</time>
      </trkpt>
      <trkpt lat="45.87302" lon="4.19185">
        <ele>535.3</ele>
        <time>2022-03-07T13:17:44Z</time>
      </trkpt>
      <trkpt lat="45.87308" lon="4.19189">
        <ele>536.1</ele>
        <time>2022-03-07T13:17:50Z</time>
      </trkpt>
      <trkpt lat="45.87313" lon="4.19193">
        <ele>537</ele>
        <time>2022-03-07T13:17:55Z</time>
      </trkpt>
      <trkpt lat="45.87317" lon="4.19197">
        <ele>536.2</ele>
        <time>2022-03-07T13:18:01Z</time>
      </trkpt>
      <trkpt lat="45.8732" lon="4.19201">
        <ele>534.2</ele>
        <time>2022-03-07T13:18:06Z</time>
      </trkpt>
      <trkpt lat="45.87323" lon="4.19206">
        <ele>526.6</ele>
        <time>2022-03-07T13:18:11Z</time>
      </trkpt>
      <trkpt lat="45.87326" lon="4.19212">
        <ele>527.7</ele>
        <time>2022-03-07T13:18:17Z</time>
      </trkpt>
      <trkpt lat="45.8733" lon="4.19216">
        <ele>525.7</ele>
        <time>2022-03-07T13:18:22Z</time>
      </trkpt>
      <trkpt lat="45.87335" lon="4.1922">
        <ele>527.2</ele>
        <time>2022-03-07T13:18:28Z</time>
      </trkpt>
      <trkpt lat="45.87341" lon="4.19222">
        <ele>524.5</ele>
        <time>2022-03-07T13:18:33Z</time>
      </trkpt>
      <trkpt lat="45.87347" lon="4.19222">
        <ele>520.6</ele>
        <time>2022-03-07T13:18:39Z</time>
      </trkpt>
      <trkpt lat="45.87354" lon="4.19223">
        <ele>520.1</ele>
        <time>2022-03-07T13:18:44Z</time>
      </trkpt>
      <trkpt lat="45.8736" lon="4.19223">
        <ele>519</ele>
        <time>2022-03-07T13:18:50Z</time>
      </trkpt>
      <trkpt lat="45.87365" lon="4.19221">
        <ele>521.7</ele>
        <time>2022-03-07T13:18:55Z</time>
      </trkpt>
      <trkpt lat="45.87367" lon="4.19223">
        <ele>519.2</ele>
        <time>2022-03-07T13:19:01Z</time>
      </trkpt>
      <trkpt lat="45.87366" lon="4.19224">
        <ele>520.6</ele>
        <time>2022-03-07T13:19:06Z</time>
      </trkpt>
      <trkpt lat="45.87371" lon="4.19223">
        <ele>520.8</ele>
        <time>2022-03-07T13:19:12Z</time>
      </trkpt>
      <trkpt lat="45.87377" lon="4.19222">
        <ele>524.8</ele>
        <time>2022-03-07T13:19:17Z</time>
      </trkpt>
      <trkpt lat="45.87383" lon="4.19226">
        <ele>518</ele>
        <time>2022-03-07T13:19:22Z</time>
      </trkpt>
      <trkpt lat="45.87388" lon="4.19229">
        <ele>518.5</ele>
        <time>2022-03-07T13:19:27Z</time>
      </trkpt>
      <trkpt lat="45.87393" lon="4.19228">
        <ele>535.5</ele>
        <time>2022-03-07T13:19:33Z</time>
      </trkpt>
      <trkpt lat="45.87397" lon="4.19224">
        <ele>531.5</ele>
        <time>2022-03-07T13:19:38Z</time>
      </trkpt>
      <trkpt lat="45.87402" lon="4.19218">
        <ele>532.6</ele>
        <time>2022-03-07T13:19:43Z</time>
      </trkpt>
      <trkpt lat="45.87407" lon="4.19216">
        <ele>529.8</ele>
        <time>2022-03-07T13:19:48Z</time>
      </trkpt>
      <trkpt lat="45.87412" lon="4.19215">
        <ele>529.5</ele>
        <time>2022-03-07T13:19:53Z</time>
      </trkpt>
      <trkpt lat="45.87418" lon="4.19215">
        <ele>528.2</ele>
        <time>2022-03-07T13:19:59Z</time>
      </trkpt>
      <trkpt lat="45.87424" lon="4.19215">
        <ele>528.6</ele>
        <time>2022-03-07T13:20:04Z</time>
      </trkpt>
      <trkpt lat="45.87429" lon="4.19216">
        <ele>529.5</ele>
        <time>2022-03-07T13:20:09Z</time>
      </trkpt>
      <trkpt lat="45.87435" lon="4.19218">
        <ele>527.5</ele>
        <time>2022-03-07T13:20:15Z</time>
      </trkpt>
      <trkpt lat="45.8744" lon="4.19223">
        <ele>529.3</ele>
        <time>2022-03-07T13:20:20Z</time>
      </trkpt>
      <trkpt lat="45.87442" lon="4.19233">
        <ele>527.6</ele>
        <time>2022-03-07T13:20:26Z</time>
      </trkpt>
      <trkpt lat="45.87441" lon="4.19242">
        <ele>528.1</ele>
        <time>2022-03-07T13:20:32Z</time>
      </trkpt>
      <trkpt lat="45.87441" lon="4.1925">
        <ele>529</ele>
        <time>2022-03-07T13:20:37Z</time>
      </trkpt>
      <trkpt lat="45.8744" lon="4.19259">
        <ele>528.4</ele>
        <time>2022-03-07T13:20:42Z</time>
      </trkpt>
      <trkpt lat="45.8744" lon="4.19267">
        <ele>529.6</ele>
        <time>2022-03-07T13:20:47Z</time>
      </trkpt>
      <trkpt lat="45.87441" lon="4.19277">
        <ele>529.6</ele>
        <time>2022-03-07T13:20:53Z</time>
      </trkpt>
      <trkpt lat="45.87444" lon="4.19285">
        <ele>531.6</ele>
        <time>2022-03-07T13:20:58Z</time>
      </trkpt>
      <trkpt lat="45.87446" lon="4.19292">
        <ele>527.9</ele>
        <time>2022-03-07T13:21:04Z</time>
      </trkpt>
      <trkpt lat="45.87448" lon="4.19299">
        <ele>530.8</ele>
        <time>2022-03-07T13:21:09Z</time>
      </trkpt>
      <trkpt lat="45.8745" lon="4.19306">
        <ele>530.7</ele>
        <time>2022-03-07T13:21:15Z</time>
      </trkpt>
      <trkpt lat="45.87452" lon="4.19313">
        <ele>528.6</ele>
        <time>2022-03-07T13:21:20Z</time>
      </trkpt>
      <trkpt lat="45.87455" lon="4.19318">
        <ele>526.7</ele>
        <time>2022-03-07T13:21:26Z</time>
      </trkpt>
      <trkpt lat="45.87459" lon="4.19324">
        <ele>527</ele>
        <time>2022-03-07T13:21:31Z</time>
      </trkpt>
      <trkpt lat="45.87462" lon="4.19328">
        <ele>527.8</ele>
        <time>2022-03-07T13:21:36Z</time>
      </trkpt>
      <trkpt lat="45.87463" lon="4.19332">
        <ele>528.3</ele>
        <time>2022-03-07T13:21:41Z</time>
      </trkpt>
      <trkpt lat="45.87463" lon="4.19336">
        <ele>530.3</ele>
        <time>2022-03-07T13:21:47Z</time>
      </trkpt>
      <trkpt lat="45.87462" lon="4.19339">
        <ele>528.8</ele>
        <time>2022-03-07T13:21:52Z</time>
      </trkpt>
      <trkpt lat="45.87463" lon="4.19351">
        <ele>526</ele>
        <time>2022-03-07T13:21:58Z</time>
      </trkpt>
      <trkpt lat="45.87465" lon="4.19359">
        <ele>527.5</ele>
        <time>2022-03-07T13:22:03Z</time>
      </trkpt>
      <trkpt lat="45.87469" lon="4.19366">
        <ele>525.3</ele>
        <time>2022-03-07T13:22:09Z</time>
      </trkpt>
      <trkpt lat="45.87474" lon="4.19373">
        <ele>524.2</ele>
        <time>2022-03-07T13:22:14Z</time>
      </trkpt>
      <trkpt lat="45.87479" lon="4.1938">
        <ele>527.1</ele>
        <time>2022-03-07T13:22:19Z</time>
      </trkpt>
      <trkpt lat="45.87482" lon="4.19386">
        <ele>526.5</ele>
        <time>2022-03-07T13:22:25Z</time>
      </trkpt>
      <trkpt lat="45.87487" lon="4.1939">
        <ele>525</ele>
        <time>2022-03-07T13:22:30Z</time>
      </trkpt>
      <trkpt lat="45.87491" lon="4.19396">
        <ele>523.3</ele>
        <time>2022-03-07T13:22:35Z</time>
      </trkpt>
      <trkpt lat="45.87492" lon="4.19401">
        <ele>522.8</ele>
        <time>2022-03-07T13:22:40Z</time>
      </trkpt>
      <trkpt lat="45.8749" lon="4.19408">
        <ele>523.6</ele>
        <time>2022-03-07T13:22:46Z</time>
      </trkpt>
      <trkpt lat="45.87484" lon="4.19412">
        <ele>524.7</ele>
        <time>2022-03-07T13:22:51Z</time>
      </trkpt>
      <trkpt lat="45.87477" lon="4.19413">
        <ele>515.5</ele>
        <time>2022-03-07T13:22:56Z</time>
      </trkpt>
      <trkpt lat="45.87471" lon="4.1941">
        <ele>515.9</ele>
        <time>2022-03-07T13:23:02Z</time>
      </trkpt>
      <trkpt lat="45.87464" lon="4.19407">
        <ele>515</ele>
        <time>2022-03-07T13:23:07Z</time>
      </trkpt>
      <trkpt lat="45.87458" lon="4.19409">
        <ele>514.6</ele>
        <time>2022-03-07T13:23:13Z</time>
      </trkpt>
      <trkpt lat="45.87455" lon="4.19416">
        <ele>514.5</ele>
        <time>2022-03-07T13:23:18Z</time>
      </trkpt>
      <trkpt lat="45.87453" lon="4.19426">
        <ele>514.7</ele>
        <time>2022-03-07T13:23:23Z</time>
      </trkpt>
      <trkpt lat="45.87456" lon="4.19438">
        <ele>514.4</ele>
        <time>2022-03-07T13:23:28Z</time>
      </trkpt>
      <trkpt lat="45.87464" lon="4.19451">
        <ele>514.4</ele>
        <time>2022-03-07T13:23:33Z</time>
      </trkpt>
      <trkpt lat="45.87472" lon="4.19461">
        <ele>514.3</ele>
        <time>2022-03-07T13:23:38Z</time>
      </trkpt>
      <trkpt lat="45.8748" lon="4.19466">
        <ele>513.7</ele>
        <time>2022-03-07T13:23:44Z</time>
      </trkpt>
      <trkpt lat="45.87486" lon="4.19467">
        <ele>513.3</ele>
        <time>2022-03-07T13:23:50Z</time>
      </trkpt>
      <trkpt lat="45.87489" lon="4.19467">
        <ele>513.3</ele>
        <time>2022-03-07T13:23:55Z</time>
      </trkpt>
      <trkpt lat="45.87489" lon="4.19466">
        <ele>513.3</ele>
        <time>2022-03-07T13:24:00Z</time>
      </trkpt>
      <trkpt lat="45.87487" lon="4.19469">
        <ele>513.4</ele>
        <time>2022-03-07T13:24:05Z</time>
      </trkpt>
      <trkpt lat="45.87487" lon="4.19474">
        <ele>513.3</ele>
        <time>2022-03-07T13:24:10Z</time>
      </trkpt>
      <trkpt lat="45.87486" lon="4.19479">
        <ele>513.4</ele>
        <time>2022-03-07T13:24:16Z</time>
      </trkpt>
      <trkpt lat="45.87484" lon="4.19481">
        <ele>513.4</ele>
        <time>2022-03-07T13:24:21Z</time>
      </trkpt>
      <trkpt lat="45.87482" lon="4.19487">
        <ele>513.5</ele>
        <time>2022-03-07T13:24:26Z</time>
      </trkpt>
      <trkpt lat="45.87481" lon="4.1949">
        <ele>530.7</ele>
        <time>2022-03-07T13:24:31Z</time>
      </trkpt>
      <trkpt lat="45.87483" lon="4.19491">
        <ele>531.3</ele>
        <time>2022-03-07T13:24:37Z</time>
      </trkpt>
      <trkpt lat="45.87485" lon="4.19491">
        <ele>531.3</ele>
        <time>2022-03-07T13:24:42Z</time>
      </trkpt>
      <trkpt lat="45.8749" lon="4.19493">
        <ele>531.2</ele>
        <time>2022-03-07T13:24:47Z</time>
      </trkpt>
      <trkpt lat="45.87495" lon="4.19494">
        <ele>529.9</ele>
        <time>2022-03-07T13:24:53Z</time>
      </trkpt>
      <trkpt lat="45.87497" lon="4.19495">
        <ele>529.9</ele>
        <time>2022-03-07T13:24:59Z</time>
      </trkpt>
      <trkpt lat="45.87496" lon="4.19498">
        <ele>531.3</ele>
        <time>2022-03-07T13:25:04Z</time>
      </trkpt>
      <trkpt lat="45.87492" lon="4.19504">
        <ele>531.5</ele>
        <time>2022-03-07T13:25:09Z</time>
      </trkpt>
      <trkpt lat="45.8749" lon="4.19509">
        <ele>530.4</ele>
        <time>2022-03-07T13:25:14Z</time>
      </trkpt>
      <trkpt lat="45.87487" lon="4.19512">
        <ele>531</ele>
        <time>2022-03-07T13:25:20Z</time>
      </trkpt>
      <trkpt lat="45.87486" lon="4.19511">
        <ele>530.3</ele>
        <time>2022-03-07T13:25:26Z</time>
      </trkpt>
      <trkpt lat="45.8749" lon="4.19513">
        <ele>643.6</ele>
        <time>2022-03-07T13:25:31Z</time>
      </trkpt>
      <trkpt lat="45.87498" lon="4.19515">
        <ele>644.5</ele>
        <time>2022-03-07T13:25:36Z</time>
      </trkpt>
      <trkpt lat="45.87507" lon="4.19515">
        <ele>649.1</ele>
        <time>2022-03-07T13:25:41Z</time>
      </trkpt>
      <trkpt lat="45.87517" lon="4.19514">
        <ele>648.7</ele>
        <time>2022-03-07T13:25:46Z</time>
      </trkpt>
      <trkpt lat="45.87527" lon="4.19514">
        <ele>646.3</ele>
        <time>2022-03-07T13:25:52Z</time>
      </trkpt>
      <trkpt lat="45.87535" lon="4.19517">
        <ele>647.3</ele>
        <time>2022-03-07T13:25:57Z</time>
      </trkpt>
      <trkpt lat="45.87541" lon="4.19523">
        <ele>647.8</ele>
        <time>2022-03-07T13:26:03Z</time>
      </trkpt>
      <trkpt lat="45.87545" lon="4.19531">
        <ele>647.2</ele>
        <time>2022-03-07T13:26:08Z</time>
      </trkpt>
      <trkpt lat="45.87549" lon="4.19536">
        <ele>646.9</ele>
        <time>2022-03-07T13:26:13Z</time>
      </trkpt>
      <trkpt lat="45.87553" lon="4.19539">
        <ele>647.7</ele>
        <time>2022-03-07T13:26:18Z</time>
      </trkpt>
      <trkpt lat="45.87558" lon="4.19542">
        <ele>641.7</ele>
        <time>2022-03-07T13:26:23Z</time>
      </trkpt>
      <trkpt lat="45.87564" lon="4.19548">
        <ele>643.7</ele>
        <time>2022-03-07T13:26:29Z</time>
      </trkpt>
      <trkpt lat="45.87584" lon="4.1956">
        <ele>624.7</ele>
        <time>2022-03-07T13:26:34Z</time>
      </trkpt>
      <trkpt lat="45.87599" lon="4.19571">
        <ele>614.4</ele>
        <time>2022-03-07T13:26:39Z</time>
      </trkpt>
      <trkpt lat="45.87607" lon="4.19575">
        <ele>586.8</ele>
        <time>2022-03-07T13:26:45Z</time>
      </trkpt>
      <trkpt lat="45.87611" lon="4.19582">
        <ele>590.1</ele>
        <time>2022-03-07T13:26:50Z</time>
      </trkpt>
      <trkpt lat="45.87611" lon="4.19588">
        <ele>612.6</ele>
        <time>2022-03-07T13:26:55Z</time>
      </trkpt>
      <trkpt lat="45.87609" lon="4.19595">
        <ele>617.8</ele>
        <time>2022-03-07T13:27:00Z</time>
      </trkpt>
      <trkpt lat="45.87607" lon="4.19603">
        <ele>620.8</ele>
        <time>2022-03-07T13:27:06Z</time>
      </trkpt>
      <trkpt lat="45.87605" lon="4.19612">
        <ele>626.5</ele>
        <time>2022-03-07T13:27:11Z</time>
      </trkpt>
      <trkpt lat="45.87606" lon="4.19619">
        <ele>611.3</ele>
        <time>2022-03-07T13:27:16Z</time>
      </trkpt>
      <trkpt lat="45.8761" lon="4.19626">
        <ele>609.5</ele>
        <time>2022-03-07T13:27:22Z</time>
      </trkpt>
      <trkpt lat="45.87612" lon="4.19632">
        <ele>599</ele>
        <time>2022-03-07T13:27:27Z</time>
      </trkpt>
      <trkpt lat="45.87612" lon="4.19637">
        <ele>589</ele>
        <time>2022-03-07T13:27:32Z</time>
      </trkpt>
      <trkpt lat="45.87613" lon="4.1964">
        <ele>619.1</ele>
        <time>2022-03-07T13:27:38Z</time>
      </trkpt>
      <trkpt lat="45.87613" lon="4.19643">
        <ele>610.4</ele>
        <time>2022-03-07T13:27:43Z</time>
      </trkpt>
      <trkpt lat="45.87611" lon="4.19646">
        <ele>607.9</ele>
        <time>2022-03-07T13:27:48Z</time>
      </trkpt>
      <trkpt lat="45.87612" lon="4.1965">
        <ele>600.8</ele>
        <time>2022-03-07T13:27:54Z</time>
      </trkpt>
      <trkpt lat="45.87614" lon="4.19653">
        <ele>587.1</ele>
        <time>2022-03-07T13:27:59Z</time>
      </trkpt>
      <trkpt lat="45.87616" lon="4.19656">
        <ele>591.2</ele>
        <time>2022-03-07T13:28:04Z</time>
      </trkpt>
      <trkpt lat="45.87617" lon="4.1966">
        <ele>587.8</ele>
        <time>2022-03-07T13:28:09Z</time>
      </trkpt>
      <trkpt lat="45.87617" lon="4.19666">
        <ele>580.9</ele>
        <time>2022-03-07T13:28:14Z</time>
      </trkpt>
      <trkpt lat="45.87619" lon="4.19674">
        <ele>555.2</ele>
        <time>2022-03-07T13:28:20Z</time>
      </trkpt>
      <trkpt lat="45.8762" lon="4.19682">
        <ele>583</ele>
        <time>2022-03-07T13:28:26Z</time>
      </trkpt>
      <trkpt lat="45.87621" lon="4.19689">
        <ele>576.3</ele>
        <time>2022-03-07T13:28:32Z</time>
      </trkpt>
      <trkpt lat="45.8762" lon="4.19695">
        <ele>555.4</ele>
        <time>2022-03-07T13:28:38Z</time>
      </trkpt>
      <trkpt lat="45.87619" lon="4.19699">
        <ele>568.3</ele>
        <time>2022-03-07T13:28:44Z</time>
      </trkpt>
      <trkpt lat="45.87619" lon="4.19704">
        <ele>569.7</ele>
        <time>2022-03-07T13:28:49Z</time>
      </trkpt>
      <trkpt lat="45.87619" lon="4.19705">
        <ele>598.6</ele>
        <time>2022-03-07T13:28:54Z</time>
      </trkpt>
      <trkpt lat="45.87618" lon="4.19705">
        <ele>608.5</ele>
        <time>2022-03-07T13:28:59Z</time>
      </trkpt>
      <trkpt lat="45.87616" lon="4.19708">
        <ele>602.6</ele>
        <time>2022-03-07T13:29:04Z</time>
      </trkpt>
      <trkpt lat="45.87615" lon="4.19719">
        <ele>593</ele>
        <time>2022-03-07T13:29:09Z</time>
      </trkpt>
      <trkpt lat="45.87622" lon="4.1973">
        <ele>563</ele>
        <time>2022-03-07T13:29:15Z</time>
      </trkpt>
      <trkpt lat="45.87626" lon="4.19738">
        <ele>566.8</ele>
        <time>2022-03-07T13:29:20Z</time>
      </trkpt>
      <trkpt lat="45.87631" lon="4.19748">
        <ele>595</ele>
        <time>2022-03-07T13:29:26Z</time>
      </trkpt>
      <trkpt lat="45.87639" lon="4.19758">
        <ele>566.3</ele>
        <time>2022-03-07T13:29:31Z</time>
      </trkpt>
      <trkpt lat="45.87643" lon="4.19762">
        <ele>602.8</ele>
        <time>2022-03-07T13:29:36Z</time>
      </trkpt>
      <trkpt lat="45.87643" lon="4.19764">
        <ele>600.6</ele>
        <time>2022-03-07T13:29:41Z</time>
      </trkpt>
      <trkpt lat="45.87634" lon="4.19772">
        <ele>571.4</ele>
        <time>2022-03-07T13:29:47Z</time>
      </trkpt>
      <trkpt lat="45.87635" lon="4.1978">
        <ele>576.9</ele>
        <time>2022-03-07T13:29:52Z</time>
      </trkpt>
      <trkpt lat="45.87636" lon="4.19788">
        <ele>576.2</ele>
        <time>2022-03-07T13:29:58Z</time>
      </trkpt>
      <trkpt lat="45.87635" lon="4.19797">
        <ele>580.3</ele>
        <time>2022-03-07T13:30:03Z</time>
      </trkpt>
      <trkpt lat="45.87636" lon="4.19805">
        <ele>575.8</ele>
        <time>2022-03-07T13:30:08Z</time>
      </trkpt>
      <trkpt lat="45.87638" lon="4.19811">
        <ele>567.8</ele>
        <time>2022-03-07T13:30:14Z</time>
      </trkpt>
      <trkpt lat="45.87641" lon="4.19817">
        <ele>567.4</ele>
        <time>2022-03-07T13:30:19Z</time>
      </trkpt>
      <trkpt lat="45.87644" lon="4.19821">
        <ele>559.1</ele>
        <time>2022-03-07T13:30:24Z</time>
      </trkpt>
      <trkpt lat="45.87647" lon="4.19827">
        <ele>549</ele>
        <time>2022-03-07T13:30:29Z</time>
      </trkpt>
      <trkpt lat="45.87649" lon="4.19834">
        <ele>578.3</ele>
        <time>2022-03-07T13:30:34Z</time>
      </trkpt>
      <trkpt lat="45.87651" lon="4.1984">
        <ele>570.4</ele>
        <time>2022-03-07T13:30:39Z</time>
      </trkpt>
      <trkpt lat="45.87651" lon="4.19844">
        <ele>566.5</ele>
        <time>2022-03-07T13:30:45Z</time>
      </trkpt>
      <trkpt lat="45.87652" lon="4.19846">
        <ele>556.4</ele>
        <time>2022-03-07T13:30:50Z</time>
      </trkpt>
      <trkpt lat="45.87654" lon="4.19849">
        <ele>588.3</ele>
        <time>2022-03-07T13:30:55Z</time>
      </trkpt>
      <trkpt lat="45.87656" lon="4.19852">
        <ele>549.9</ele>
        <time>2022-03-07T13:31:00Z</time>
      </trkpt>
      <trkpt lat="45.87658" lon="4.19857">
        <ele>541.1</ele>
        <time>2022-03-07T13:31:06Z</time>
      </trkpt>
      <trkpt lat="45.87661" lon="4.19863">
        <ele>543.4</ele>
        <time>2022-03-07T13:31:11Z</time>
      </trkpt>
      <trkpt lat="45.87663" lon="4.1987">
        <ele>547.8</ele>
        <time>2022-03-07T13:31:16Z</time>
      </trkpt>
      <trkpt lat="45.87666" lon="4.19878">
        <ele>545.8</ele>
        <time>2022-03-07T13:31:21Z</time>
      </trkpt>
      <trkpt lat="45.87668" lon="4.19887">
        <ele>542.7</ele>
        <time>2022-03-07T13:31:27Z</time>
      </trkpt>
      <trkpt lat="45.8767" lon="4.19893">
        <ele>541.3</ele>
        <time>2022-03-07T13:31:32Z</time>
      </trkpt>
      <trkpt lat="45.87671" lon="4.199">
        <ele>544.1</ele>
        <time>2022-03-07T13:31:37Z</time>
      </trkpt>
      <trkpt lat="45.87671" lon="4.19907">
        <ele>552.7</ele>
        <time>2022-03-07T13:31:43Z</time>
      </trkpt>
      <trkpt lat="45.87671" lon="4.19916">
        <ele>550.1</ele>
        <time>2022-03-07T13:31:48Z</time>
      </trkpt>
      <trkpt lat="45.87672" lon="4.19921">
        <ele>573</ele>
        <time>2022-03-07T13:31:53Z</time>
      </trkpt>
      <trkpt lat="45.87673" lon="4.19927">
        <ele>542.1</ele>
        <time>2022-03-07T13:31:59Z</time>
      </trkpt>
      <trkpt lat="45.87674" lon="4.19933">
        <ele>559.8</ele>
        <time>2022-03-07T13:32:05Z</time>
      </trkpt>
      <trkpt lat="45.87674" lon="4.19938">
        <ele>550.8</ele>
        <time>2022-03-07T13:32:10Z</time>
      </trkpt>
      <trkpt lat="45.8767" lon="4.19948">
        <ele>520.5</ele>
        <time>2022-03-07T13:32:15Z</time>
      </trkpt>
      <trkpt lat="45.87668" lon="4.19955">
        <ele>539</ele>
        <time>2022-03-07T13:32:20Z</time>
      </trkpt>
      <trkpt lat="45.87667" lon="4.1996">
        <ele>522.1</ele>
        <time>2022-03-07T13:32:25Z</time>
      </trkpt>
      <trkpt lat="45.87666" lon="4.19967">
        <ele>525.7</ele>
        <time>2022-03-07T13:32:31Z</time>
      </trkpt>
      <trkpt lat="45.8767" lon="4.19972">
        <ele>542.2</ele>
        <time>2022-03-07T13:32:37Z</time>
      </trkpt>
      <trkpt lat="45.87672" lon="4.19976">
        <ele>562.1</ele>
        <time>2022-03-07T13:32:42Z</time>
      </trkpt>
      <trkpt lat="45.87674" lon="4.19981">
        <ele>564.2</ele>
        <time>2022-03-07T13:32:48Z</time>
      </trkpt>
      <trkpt lat="45.87674" lon="4.19986">
        <ele>557.6</ele>
        <time>2022-03-07T13:32:54Z</time>
      </trkpt>
      <trkpt lat="45.87674" lon="4.19987">
        <ele>579.4</ele>
        <time>2022-03-07T13:32:59Z</time>
      </trkpt>
      <trkpt lat="45.87674" lon="4.19985">
        <ele>602.7</ele>
        <time>2022-03-07T13:33:05Z</time>
      </trkpt>
      <trkpt lat="45.87675" lon="4.19983">
        <ele>590.2</ele>
        <time>2022-03-07T13:33:10Z</time>
      </trkpt>
      <trkpt lat="45.87676" lon="4.1998">
        <ele>606</ele>
        <time>2022-03-07T13:33:16Z</time>
      </trkpt>
      <trkpt lat="45.87677" lon="4.19976">
        <ele>627.8</ele>
        <time>2022-03-07T13:33:21Z</time>
      </trkpt>
      <trkpt lat="45.87679" lon="4.19974">
        <ele>629.8</ele>
        <time>2022-03-07T13:33:26Z</time>
      </trkpt>
      <trkpt lat="45.87681" lon="4.19978">
        <ele>628.9</ele>
        <time>2022-03-07T13:33:32Z</time>
      </trkpt>
      <trkpt lat="45.87683" lon="4.19985">
        <ele>622.7</ele>
        <time>2022-03-07T13:33:37Z</time>
      </trkpt>
      <trkpt lat="45.87685" lon="4.19989">
        <ele>637.5</ele>
        <time>2022-03-07T13:33:42Z</time>
      </trkpt>
      <trkpt lat="45.87687" lon="4.19989">
        <ele>635.4</ele>
        <time>2022-03-07T13:33:48Z</time>
      </trkpt>
      <trkpt lat="45.8769" lon="4.19987">
        <ele>633.6</ele>
        <time>2022-03-07T13:33:53Z</time>
      </trkpt>
      <trkpt lat="45.87693" lon="4.19988">
        <ele>629</ele>
        <time>2022-03-07T13:33:58Z</time>
      </trkpt>
      <trkpt lat="45.87705" lon="4.20002">
        <ele>619.9</ele>
        <time>2022-03-07T13:34:04Z</time>
      </trkpt>
      <trkpt lat="45.87716" lon="4.2001">
        <ele>617.3</ele>
        <time>2022-03-07T13:34:10Z</time>
      </trkpt>
      <trkpt lat="45.87724" lon="4.20015">
        <ele>587.6</ele>
        <time>2022-03-07T13:34:15Z</time>
      </trkpt>
      <trkpt lat="45.87731" lon="4.20021">
        <ele>602.3</ele>
        <time>2022-03-07T13:34:20Z</time>
      </trkpt>
      <trkpt lat="45.87736" lon="4.20026">
        <ele>600.7</ele>
        <time>2022-03-07T13:34:26Z</time>
      </trkpt>
      <trkpt lat="45.8774" lon="4.20029">
        <ele>575.1</ele>
        <time>2022-03-07T13:34:31Z</time>
      </trkpt>
      <trkpt lat="45.87744" lon="4.20032">
        <ele>568.5</ele>
        <time>2022-03-07T13:34:36Z</time>
      </trkpt>
      <trkpt lat="45.87749" lon="4.20035">
        <ele>606.6</ele>
        <time>2022-03-07T13:34:41Z</time>
      </trkpt>
      <trkpt lat="45.87753" lon="4.20037">
        <ele>586.8</ele>
        <time>2022-03-07T13:34:47Z</time>
      </trkpt>
      <trkpt lat="45.8776" lon="4.20039">
        <ele>582.1</ele>
        <time>2022-03-07T13:34:52Z</time>
      </trkpt>
      <trkpt lat="45.87765" lon="4.2004">
        <ele>566.9</ele>
        <time>2022-03-07T13:34:57Z</time>
      </trkpt>
      <trkpt lat="45.87769" lon="4.2004">
        <ele>571.5</ele>
        <time>2022-03-07T13:35:02Z</time>
      </trkpt>
      <trkpt lat="45.87768" lon="4.20026">
        <ele>601.3</ele>
        <time>2022-03-07T13:35:08Z</time>
      </trkpt>
      <trkpt lat="45.8777" lon="4.20024">
        <ele>573.2</ele>
        <time>2022-03-07T13:35:13Z</time>
      </trkpt>
      <trkpt lat="45.87776" lon="4.20028">
        <ele>592.1</ele>
        <time>2022-03-07T13:35:19Z</time>
      </trkpt>
      <trkpt lat="45.87781" lon="4.2003">
        <ele>597.2</ele>
        <time>2022-03-07T13:35:24Z</time>
      </trkpt>
      <trkpt lat="45.87788" lon="4.2004">
        <ele>589.1</ele>
        <time>2022-03-07T13:35:29Z</time>
      </trkpt>
      <trkpt lat="45.87793" lon="4.20048">
        <ele>601.7</ele>
        <time>2022-03-07T13:35:35Z</time>
      </trkpt>
      <trkpt lat="45.87795" lon="4.20055">
        <ele>576.8</ele>
        <time>2022-03-07T13:35:40Z</time>
      </trkpt>
      <trkpt lat="45.87795" lon="4.20066">
        <ele>595.2</ele>
        <time>2022-03-07T13:35:46Z</time>
      </trkpt>
      <trkpt lat="45.87796" lon="4.20075">
        <ele>582.9</ele>
        <time>2022-03-07T13:35:52Z</time>
      </trkpt>
      <trkpt lat="45.87799" lon="4.20081">
        <ele>572.9</ele>
        <time>2022-03-07T13:35:57Z</time>
      </trkpt>
      <trkpt lat="45.87803" lon="4.20086">
        <ele>590</ele>
        <time>2022-03-07T13:36:02Z</time>
      </trkpt>
      <trkpt lat="45.87806" lon="4.20089">
        <ele>606.4</ele>
        <time>2022-03-07T13:36:08Z</time>
      </trkpt>
      <trkpt lat="45.87807" lon="4.20093">
        <ele>595.3</ele>
        <time>2022-03-07T13:36:13Z</time>
      </trkpt>
      <trkpt lat="45.87808" lon="4.20099">
        <ele>588.2</ele>
        <time>2022-03-07T13:36:18Z</time>
      </trkpt>
      <trkpt lat="45.87808" lon="4.20107">
        <ele>582.7</ele>
        <time>2022-03-07T13:36:23Z</time>
      </trkpt>
      <trkpt lat="45.87806" lon="4.20115">
        <ele>579.4</ele>
        <time>2022-03-07T13:36:29Z</time>
      </trkpt>
      <trkpt lat="45.87805" lon="4.20123">
        <ele>576.6</ele>
        <time>2022-03-07T13:36:34Z</time>
      </trkpt>
      <trkpt lat="45.87801" lon="4.20129">
        <ele>548.6</ele>
        <time>2022-03-07T13:36:39Z</time>
      </trkpt>
      <trkpt lat="45.87798" lon="4.20136">
        <ele>550.6</ele>
        <time>2022-03-07T13:36:45Z</time>
      </trkpt>
      <trkpt lat="45.87796" lon="4.20143">
        <ele>550.2</ele>
        <time>2022-03-07T13:36:50Z</time>
      </trkpt>
      <trkpt lat="45.87796" lon="4.20151">
        <ele>568.5</ele>
        <time>2022-03-07T13:36:56Z</time>
      </trkpt>
      <trkpt lat="45.87796" lon="4.20158">
        <ele>544</ele>
        <time>2022-03-07T13:37:01Z</time>
      </trkpt>
      <trkpt lat="45.87795" lon="4.20165">
        <ele>541</ele>
        <time>2022-03-07T13:37:06Z</time>
      </trkpt>
      <trkpt lat="45.87795" lon="4.20173">
        <ele>530.4</ele>
        <time>2022-03-07T13:37:12Z</time>
      </trkpt>
      <trkpt lat="45.87797" lon="4.2018">
        <ele>538.9</ele>
        <time>2022-03-07T13:37:17Z</time>
      </trkpt>
      <trkpt lat="45.87797" lon="4.20188">
        <ele>545.5</ele>
        <time>2022-03-07T13:37:23Z</time>
      </trkpt>
      <trkpt lat="45.87797" lon="4.20195">
        <ele>584.8</ele>
        <time>2022-03-07T13:37:29Z</time>
      </trkpt>
      <trkpt lat="45.87797" lon="4.20202">
        <ele>580</ele>
        <time>2022-03-07T13:37:34Z</time>
      </trkpt>
      <trkpt lat="45.87796" lon="4.20209">
        <ele>551</ele>
        <time>2022-03-07T13:37:40Z</time>
      </trkpt>
      <trkpt lat="45.87796" lon="4.20216">
        <ele>555.6</ele>
        <time>2022-03-07T13:37:45Z</time>
      </trkpt>
      <trkpt lat="45.87798" lon="4.20225">
        <ele>560</ele>
        <time>2022-03-07T13:37:50Z</time>
      </trkpt>
      <trkpt lat="45.878" lon="4.20233">
        <ele>570</ele>
        <time>2022-03-07T13:37:55Z</time>
      </trkpt>
      <trkpt lat="45.87802" lon="4.20239">
        <ele>575.6</ele>
        <time>2022-03-07T13:38:01Z</time>
      </trkpt>
      <trkpt lat="45.87804" lon="4.20246">
        <ele>582.2</ele>
        <time>2022-03-07T13:38:06Z</time>
      </trkpt>
      <trkpt lat="45.87806" lon="4.20255">
        <ele>571</ele>
        <time>2022-03-07T13:38:12Z</time>
      </trkpt>
      <trkpt lat="45.87809" lon="4.20264">
        <ele>573.3</ele>
        <time>2022-03-07T13:38:18Z</time>
      </trkpt>
      <trkpt lat="45.87812" lon="4.2027">
        <ele>550.5</ele>
        <time>2022-03-07T13:38:24Z</time>
      </trkpt>
      <trkpt lat="45.87815" lon="4.20275">
        <ele>556.2</ele>
        <time>2022-03-07T13:38:29Z</time>
      </trkpt>
      <trkpt lat="45.87818" lon="4.2028">
        <ele>573.9</ele>
        <time>2022-03-07T13:38:35Z</time>
      </trkpt>
      <trkpt lat="45.87822" lon="4.20283">
        <ele>568.3</ele>
        <time>2022-03-07T13:38:40Z</time>
      </trkpt>
      <trkpt lat="45.87826" lon="4.20284">
        <ele>564.3</ele>
        <time>2022-03-07T13:38:45Z</time>
      </trkpt>
      <trkpt lat="45.8783" lon="4.20287">
        <ele>591.8</ele>
        <time>2022-03-07T13:38:50Z</time>
      </trkpt>
      <trkpt lat="45.87835" lon="4.20291">
        <ele>593.4</ele>
        <time>2022-03-07T13:38:56Z</time>
      </trkpt>
      <trkpt lat="45.8784" lon="4.20294">
        <ele>583.1</ele>
        <time>2022-03-07T13:39:01Z</time>
      </trkpt>
      <trkpt lat="45.87843" lon="4.20297">
        <ele>565.5</ele>
        <time>2022-03-07T13:39:07Z</time>
      </trkpt>
      <trkpt lat="45.87847" lon="4.20302">
        <ele>593</ele>
        <time>2022-03-07T13:39:12Z</time>
      </trkpt>
      <trkpt lat="45.87849" lon="4.20308">
        <ele>566.6</ele>
        <time>2022-03-07T13:39:17Z</time>
      </trkpt>
      <trkpt lat="45.87854" lon="4.20315">
        <ele>563.3</ele>
        <time>2022-03-07T13:39:23Z</time>
      </trkpt>
      <trkpt lat="45.87857" lon="4.20321">
        <ele>554.3</ele>
        <time>2022-03-07T13:39:28Z</time>
      </trkpt>
      <trkpt lat="45.87861" lon="4.20326">
        <ele>562.7</ele>
        <time>2022-03-07T13:39:33Z</time>
      </trkpt>
      <trkpt lat="45.87864" lon="4.20329">
        <ele>556.3</ele>
        <time>2022-03-07T13:39:39Z</time>
      </trkpt>
      <trkpt lat="45.87868" lon="4.20332">
        <ele>543.2</ele>
        <time>2022-03-07T13:39:44Z</time>
      </trkpt>
      <trkpt lat="45.87871" lon="4.20334">
        <ele>558</ele>
        <time>2022-03-07T13:39:49Z</time>
      </trkpt>
      <trkpt lat="45.87875" lon="4.20336">
        <ele>568.6</ele>
        <time>2022-03-07T13:39:55Z</time>
      </trkpt>
      <trkpt lat="45.8788" lon="4.20336">
        <ele>560.1</ele>
        <time>2022-03-07T13:40:00Z</time>
      </trkpt>
      <trkpt lat="45.87886" lon="4.20335">
        <ele>574.3</ele>
        <time>2022-03-07T13:40:05Z</time>
      </trkpt>
      <trkpt lat="45.87891" lon="4.20335">
        <ele>577.9</ele>
        <time>2022-03-07T13:40:10Z</time>
      </trkpt>
      <trkpt lat="45.87898" lon="4.20335">
        <ele>542.2</ele>
        <time>2022-03-07T13:40:16Z</time>
      </trkpt>
      <trkpt lat="45.87904" lon="4.20335">
        <ele>564.4</ele>
        <time>2022-03-07T13:40:22Z</time>
      </trkpt>
      <trkpt lat="45.8791" lon="4.20338">
        <ele>556.8</ele>
        <time>2022-03-07T13:40:28Z</time>
      </trkpt>
      <trkpt lat="45.87914" lon="4.20343">
        <ele>544.6</ele>
        <time>2022-03-07T13:40:33Z</time>
      </trkpt>
      <trkpt lat="45.87919" lon="4.20345">
        <ele>574.8</ele>
        <time>2022-03-07T13:40:38Z</time>
      </trkpt>
      <trkpt lat="45.87924" lon="4.20349">
        <ele>539.1</ele>
        <time>2022-03-07T13:40:43Z</time>
      </trkpt>
      <trkpt lat="45.8793" lon="4.20352">
        <ele>556.9</ele>
        <time>2022-03-07T13:40:50Z</time>
      </trkpt>
      <trkpt lat="45.87935" lon="4.20353">
        <ele>529.3</ele>
        <time>2022-03-07T13:40:55Z</time>
      </trkpt>
      <trkpt lat="45.8794" lon="4.20354">
        <ele>556.2</ele>
        <time>2022-03-07T13:41:00Z</time>
      </trkpt>
      <trkpt lat="45.87946" lon="4.20354">
        <ele>531.1</ele>
        <time>2022-03-07T13:41:06Z</time>
      </trkpt>
      <trkpt lat="45.87952" lon="4.20356">
        <ele>534.9</ele>
        <time>2022-03-07T13:41:11Z</time>
      </trkpt>
      <trkpt lat="45.87957" lon="4.20361">
        <ele>522.4</ele>
        <time>2022-03-07T13:41:17Z</time>
      </trkpt>
      <trkpt lat="45.87962" lon="4.20366">
        <ele>523.4</ele>
        <time>2022-03-07T13:41:22Z</time>
      </trkpt>
      <trkpt lat="45.87967" lon="4.20371">
        <ele>525.7</ele>
        <time>2022-03-07T13:41:28Z</time>
      </trkpt>
      <trkpt lat="45.87971" lon="4.20377">
        <ele>528.2</ele>
        <time>2022-03-07T13:41:33Z</time>
      </trkpt>
      <trkpt lat="45.87973" lon="4.20385">
        <ele>540.4</ele>
        <time>2022-03-07T13:41:38Z</time>
      </trkpt>
      <trkpt lat="45.87975" lon="4.20392">
        <ele>538</ele>
        <time>2022-03-07T13:41:44Z</time>
      </trkpt>
      <trkpt lat="45.87978" lon="4.20398">
        <ele>537</ele>
        <time>2022-03-07T13:41:49Z</time>
      </trkpt>
      <trkpt lat="45.87981" lon="4.20403">
        <ele>521.7</ele>
        <time>2022-03-07T13:41:55Z</time>
      </trkpt>
      <trkpt lat="45.87984" lon="4.20411">
        <ele>546.8</ele>
        <time>2022-03-07T13:42:00Z</time>
      </trkpt>
      <trkpt lat="45.87986" lon="4.20417">
        <ele>546.6</ele>
        <time>2022-03-07T13:42:05Z</time>
      </trkpt>
      <trkpt lat="45.87988" lon="4.20423">
        <ele>558</ele>
        <time>2022-03-07T13:42:11Z</time>
      </trkpt>
      <trkpt lat="45.87987" lon="4.20429">
        <ele>536</ele>
        <time>2022-03-07T13:42:16Z</time>
      </trkpt>
      <trkpt lat="45.87986" lon="4.20432">
        <ele>518.8</ele>
        <time>2022-03-07T13:42:21Z</time>
      </trkpt>
      <trkpt lat="45.87986" lon="4.20431">
        <ele>520.7</ele>
        <time>2022-03-07T13:42:27Z</time>
      </trkpt>
      <trkpt lat="45.87986" lon="4.2043">
        <ele>519.7</ele>
        <time>2022-03-07T13:42:33Z</time>
      </trkpt>
      <trkpt lat="45.87986" lon="4.20431">
        <ele>519.7</ele>
        <time>2022-03-07T13:42:38Z</time>
      </trkpt>
      <trkpt lat="45.87984" lon="4.20432">
        <ele>522.4</ele>
        <time>2022-03-07T13:42:44Z</time>
      </trkpt>
      <trkpt lat="45.87984" lon="4.20432">
        <ele>522.3</ele>
        <time>2022-03-07T13:42:49Z</time>
      </trkpt>
      <trkpt lat="45.87983" lon="4.20432">
        <ele>542</ele>
        <time>2022-03-07T13:42:54Z</time>
      </trkpt>
      <trkpt lat="45.87982" lon="4.20432">
        <ele>523.6</ele>
        <time>2022-03-07T13:42:59Z</time>
      </trkpt>
      <trkpt lat="45.87981" lon="4.20432">
        <ele>543.6</ele>
        <time>2022-03-07T13:43:05Z</time>
      </trkpt>
      <trkpt lat="45.87981" lon="4.20433">
        <ele>528.8</ele>
        <time>2022-03-07T13:43:10Z</time>
      </trkpt>
      <trkpt lat="45.87981" lon="4.20432">
        <ele>557.1</ele>
        <time>2022-03-07T13:43:16Z</time>
      </trkpt>
      <trkpt lat="45.87981" lon="4.2043">
        <ele>558.2</ele>
        <time>2022-03-07T13:43:21Z</time>
      </trkpt>
      <trkpt lat="45.87981" lon="4.20429">
        <ele>548.4</ele>
        <time>2022-03-07T13:43:27Z</time>
      </trkpt>
      <trkpt lat="45.87981" lon="4.20429">
        <ele>546</ele>
        <time>2022-03-07T13:43:32Z</time>
      </trkpt>
      <trkpt lat="45.87981" lon="4.2043">
        <ele>544.5</ele>
        <time>2022-03-07T13:43:38Z</time>
      </trkpt>
      <trkpt lat="45.8798" lon="4.20432">
        <ele>545.3</ele>
        <time>2022-03-07T13:43:43Z</time>
      </trkpt>
      <trkpt lat="45.8798" lon="4.20433">
        <ele>525.9</ele>
        <time>2022-03-07T13:43:49Z</time>
      </trkpt>
      <trkpt lat="45.8798" lon="4.20432">
        <ele>545.4</ele>
        <time>2022-03-07T13:43:54Z</time>
      </trkpt>
      <trkpt lat="45.8798" lon="4.20432">
        <ele>545.1</ele>
        <time>2022-03-07T13:44:00Z</time>
      </trkpt>
      <trkpt lat="45.87981" lon="4.20431">
        <ele>526.1</ele>
        <time>2022-03-07T13:44:06Z</time>
      </trkpt>
      <trkpt lat="45.87981" lon="4.2043">
        <ele>544.9</ele>
        <time>2022-03-07T13:44:11Z</time>
      </trkpt>
      <trkpt lat="45.87981" lon="4.20431">
        <ele>527.1</ele>
        <time>2022-03-07T13:44:16Z</time>
      </trkpt>
      <trkpt lat="45.87982" lon="4.20429">
        <ele>550.5</ele>
        <time>2022-03-07T13:44:22Z</time>
      </trkpt>
      <trkpt lat="45.87983" lon="4.20428">
        <ele>527</ele>
        <time>2022-03-07T13:44:27Z</time>
      </trkpt>
      <trkpt lat="45.87984" lon="4.20426">
        <ele>544.9</ele>
        <time>2022-03-07T13:44:33Z</time>
      </trkpt>
      <trkpt lat="45.87985" lon="4.20426">
        <ele>544.7</ele>
        <time>2022-03-07T13:44:39Z</time>
      </trkpt>
      <trkpt lat="45.87986" lon="4.20426">
        <ele>525.3</ele>
        <time>2022-03-07T13:44:45Z</time>
      </trkpt>
      <trkpt lat="45.87986" lon="4.20426">
        <ele>525.3</ele>
        <time>2022-03-07T13:44:51Z</time>
      </trkpt>
      <trkpt lat="45.87986" lon="4.20426">
        <ele>525.3</ele>
        <time>2022-03-07T13:44:57Z</time>
      </trkpt>
      <trkpt lat="45.87986" lon="4.20426">
        <ele>525.3</ele>
        <time>2022-03-07T13:45:03Z</time>
      </trkpt>
      <trkpt lat="45.87987" lon="4.20426">
        <ele>544.3</ele>
        <time>2022-03-07T13:45:09Z</time>
      </trkpt>
      <trkpt lat="45.87987" lon="4.20426">
        <ele>544.2</ele>
        <time>2022-03-07T13:45:14Z</time>
      </trkpt>
      <trkpt lat="45.87987" lon="4.20426">
        <ele>544.9</ele>
        <time>2022-03-07T13:45:20Z</time>
      </trkpt>
      <trkpt lat="45.87987" lon="4.20426">
        <ele>544</ele>
        <time>2022-03-07T13:45:26Z</time>
      </trkpt>
      <trkpt lat="45.87987" lon="4.20426">
        <ele>543.5</ele>
        <time>2022-03-07T13:45:31Z</time>
      </trkpt>
      <trkpt lat="45.87987" lon="4.20426">
        <ele>543.4</ele>
        <time>2022-03-07T13:45:37Z</time>
      </trkpt>
      <trkpt lat="45.87987" lon="4.20426">
        <ele>543.4</ele>
        <time>2022-03-07T13:45:43Z</time>
      </trkpt>
      <trkpt lat="45.87988" lon="4.20426">
        <ele>543.4</ele>
        <time>2022-03-07T13:45:49Z</time>
      </trkpt>
      <trkpt lat="45.87987" lon="4.20425">
        <ele>543.4</ele>
        <time>2022-03-07T13:45:55Z</time>
      </trkpt>
      <trkpt lat="45.87987" lon="4.20425">
        <ele>543.4</ele>
        <time>2022-03-07T13:46:01Z</time>
      </trkpt>
      <trkpt lat="45.87987" lon="4.20425">
        <ele>543.6</ele>
        <time>2022-03-07T13:46:06Z</time>
      </trkpt>
      <trkpt lat="45.87986" lon="4.20425">
        <ele>542.8</ele>
        <time>2022-03-07T13:46:23Z</time>
      </trkpt>
      <trkpt lat="45.87987" lon="4.20425">
        <ele>523.9</ele>
        <time>2022-03-07T13:46:29Z</time>
      </trkpt>
      <trkpt lat="45.87987" lon="4.20426">
        <ele>542.4</ele>
        <time>2022-03-07T13:46:34Z</time>
      </trkpt>
      <trkpt lat="45.87987" lon="4.20426">
        <ele>542.3</ele>
        <time>2022-03-07T13:46:39Z</time>
      </trkpt>
      <trkpt lat="45.87987" lon="4.20426">
        <ele>542.1</ele>
        <time>2022-03-07T13:46:44Z</time>
      </trkpt>
      <trkpt lat="45.87986" lon="4.20426">
        <ele>522.8</ele>
        <time>2022-03-07T13:46:50Z</time>
      </trkpt>
      <trkpt lat="45.87986" lon="4.20426">
        <ele>542.1</ele>
        <time>2022-03-07T13:46:56Z</time>
      </trkpt>
      <trkpt lat="45.87987" lon="4.20427">
        <ele>523.1</ele>
        <time>2022-03-07T13:47:06Z</time>
      </trkpt>
      <trkpt lat="45.87987" lon="4.20427">
        <ele>542.4</ele>
        <time>2022-03-07T13:47:12Z</time>
      </trkpt>
      <trkpt lat="45.87987" lon="4.20427">
        <ele>542.5</ele>
        <time>2022-03-07T13:47:18Z</time>
      </trkpt>
      <trkpt lat="45.87987" lon="4.20427">
        <ele>542.6</ele>
        <time>2022-03-07T13:47:50Z</time>
      </trkpt>
      <trkpt lat="45.87988" lon="4.2043">
        <ele>523.6</ele>
        <time>2022-03-07T13:47:55Z</time>
      </trkpt>
      <trkpt lat="45.8799" lon="4.20432">
        <ele>523.1</ele>
        <time>2022-03-07T13:48:00Z</time>
      </trkpt>
      <trkpt lat="45.87995" lon="4.20437">
        <ele>553</ele>
        <time>2022-03-07T13:48:06Z</time>
      </trkpt>
      <trkpt lat="45.87998" lon="4.20438">
        <ele>546.3</ele>
        <time>2022-03-07T13:48:12Z</time>
      </trkpt>
      <trkpt lat="45.88003" lon="4.2044">
        <ele>555.2</ele>
        <time>2022-03-07T13:48:17Z</time>
      </trkpt>
      <trkpt lat="45.88007" lon="4.20442">
        <ele>528.1</ele>
        <time>2022-03-07T13:48:22Z</time>
      </trkpt>
      <trkpt lat="45.88008" lon="4.20447">
        <ele>532</ele>
        <time>2022-03-07T13:48:28Z</time>
      </trkpt>
      <trkpt lat="45.88008" lon="4.20448">
        <ele>530.9</ele>
        <time>2022-03-07T13:48:33Z</time>
      </trkpt>
      <trkpt lat="45.88008" lon="4.20448">
        <ele>546.9</ele>
        <time>2022-03-07T13:48:38Z</time>
      </trkpt>
      <trkpt lat="45.88009" lon="4.2045">
        <ele>547.7</ele>
        <time>2022-03-07T13:48:43Z</time>
      </trkpt>
      <trkpt lat="45.88012" lon="4.20455">
        <ele>552.3</ele>
        <time>2022-03-07T13:48:49Z</time>
      </trkpt>
      <trkpt lat="45.88017" lon="4.2046">
        <ele>527</ele>
        <time>2022-03-07T13:48:55Z</time>
      </trkpt>
      <trkpt lat="45.88023" lon="4.20466">
        <ele>523.4</ele>
        <time>2022-03-07T13:49:00Z</time>
      </trkpt>
      <trkpt lat="45.88028" lon="4.20474">
        <ele>525.6</ele>
        <time>2022-03-07T13:49:06Z</time>
      </trkpt>
      <trkpt lat="45.88034" lon="4.20477">
        <ele>530.6</ele>
        <time>2022-03-07T13:49:11Z</time>
      </trkpt>
      <trkpt lat="45.88038" lon="4.20486">
        <ele>559.6</ele>
        <time>2022-03-07T13:49:17Z</time>
      </trkpt>
      <trkpt lat="45.8804" lon="4.20494">
        <ele>562.3</ele>
        <time>2022-03-07T13:49:22Z</time>
      </trkpt>
      <trkpt lat="45.88043" lon="4.20501">
        <ele>572.1</ele>
        <time>2022-03-07T13:49:28Z</time>
      </trkpt>
      <trkpt lat="45.88047" lon="4.20502">
        <ele>568.8</ele>
        <time>2022-03-07T13:49:33Z</time>
      </trkpt>
      <trkpt lat="45.88051" lon="4.20503">
        <ele>560.9</ele>
        <time>2022-03-07T13:49:38Z</time>
      </trkpt>
      <trkpt lat="45.88057" lon="4.20507">
        <ele>526.5</ele>
        <time>2022-03-07T13:49:44Z</time>
      </trkpt>
      <trkpt lat="45.88062" lon="4.20508">
        <ele>527.5</ele>
        <time>2022-03-07T13:49:49Z</time>
      </trkpt>
      <trkpt lat="45.88066" lon="4.20511">
        <ele>543.3</ele>
        <time>2022-03-07T13:49:55Z</time>
      </trkpt>
      <trkpt lat="45.8807" lon="4.20512">
        <ele>539.6</ele>
        <time>2022-03-07T13:50:00Z</time>
      </trkpt>
      <trkpt lat="45.88075" lon="4.20514">
        <ele>547.8</ele>
        <time>2022-03-07T13:50:05Z</time>
      </trkpt>
      <trkpt lat="45.88078" lon="4.20515">
        <ele>540.5</ele>
        <time>2022-03-07T13:50:11Z</time>
      </trkpt>
      <trkpt lat="45.88081" lon="4.20516">
        <ele>549.1</ele>
        <time>2022-03-07T13:50:16Z</time>
      </trkpt>
      <trkpt lat="45.88083" lon="4.20518">
        <ele>547.7</ele>
        <time>2022-03-07T13:50:21Z</time>
      </trkpt>
      <trkpt lat="45.88087" lon="4.2052">
        <ele>548</ele>
        <time>2022-03-07T13:50:26Z</time>
      </trkpt>
      <trkpt lat="45.88092" lon="4.20521">
        <ele>538</ele>
        <time>2022-03-07T13:50:32Z</time>
      </trkpt>
      <trkpt lat="45.88097" lon="4.20524">
        <ele>533</ele>
        <time>2022-03-07T13:50:38Z</time>
      </trkpt>
      <trkpt lat="45.88103" lon="4.20525">
        <ele>526.7</ele>
        <time>2022-03-07T13:50:43Z</time>
      </trkpt>
      <trkpt lat="45.88108" lon="4.20528">
        <ele>536.7</ele>
        <time>2022-03-07T13:50:48Z</time>
      </trkpt>
      <trkpt lat="45.88114" lon="4.20528">
        <ele>531.9</ele>
        <time>2022-03-07T13:50:54Z</time>
      </trkpt>
      <trkpt lat="45.88121" lon="4.20528">
        <ele>553.9</ele>
        <time>2022-03-07T13:51:00Z</time>
      </trkpt>
      <trkpt lat="45.88127" lon="4.20527">
        <ele>537.7</ele>
        <time>2022-03-07T13:51:05Z</time>
      </trkpt>
      <trkpt lat="45.88133" lon="4.20526">
        <ele>540.7</ele>
        <time>2022-03-07T13:51:11Z</time>
      </trkpt>
      <trkpt lat="45.88138" lon="4.20525">
        <ele>541.2</ele>
        <time>2022-03-07T13:51:16Z</time>
      </trkpt>
      <trkpt lat="45.88144" lon="4.20523">
        <ele>557.1</ele>
        <time>2022-03-07T13:51:22Z</time>
      </trkpt>
      <trkpt lat="45.88149" lon="4.20521">
        <ele>569.9</ele>
        <time>2022-03-07T13:51:28Z</time>
      </trkpt>
      <trkpt lat="45.88154" lon="4.20521">
        <ele>551.5</ele>
        <time>2022-03-07T13:51:33Z</time>
      </trkpt>
      <trkpt lat="45.88158" lon="4.20519">
        <ele>580</ele>
        <time>2022-03-07T13:51:39Z</time>
      </trkpt>
      <trkpt lat="45.88162" lon="4.20519">
        <ele>581.4</ele>
        <time>2022-03-07T13:51:44Z</time>
      </trkpt>
      <trkpt lat="45.88165" lon="4.20521">
        <ele>572.2</ele>
        <time>2022-03-07T13:51:49Z</time>
      </trkpt>
      <trkpt lat="45.88169" lon="4.20525">
        <ele>542.3</ele>
        <time>2022-03-07T13:51:54Z</time>
      </trkpt>
      <trkpt lat="45.88174" lon="4.20531">
        <ele>535.9</ele>
        <time>2022-03-07T13:52:00Z</time>
      </trkpt>
      <trkpt lat="45.88176" lon="4.20541">
        <ele>534.6</ele>
        <time>2022-03-07T13:52:06Z</time>
      </trkpt>
      <trkpt lat="45.8818" lon="4.20548">
        <ele>555.5</ele>
        <time>2022-03-07T13:52:11Z</time>
      </trkpt>
      <trkpt lat="45.88185" lon="4.20554">
        <ele>548.1</ele>
        <time>2022-03-07T13:52:16Z</time>
      </trkpt>
      <trkpt lat="45.88189" lon="4.20559">
        <ele>555.6</ele>
        <time>2022-03-07T13:52:21Z</time>
      </trkpt>
      <trkpt lat="45.88194" lon="4.20564">
        <ele>556.9</ele>
        <time>2022-03-07T13:52:27Z</time>
      </trkpt>
      <trkpt lat="45.88199" lon="4.20568">
        <ele>547.5</ele>
        <time>2022-03-07T13:52:32Z</time>
      </trkpt>
      <trkpt lat="45.88203" lon="4.20575">
        <ele>541.6</ele>
        <time>2022-03-07T13:52:37Z</time>
      </trkpt>
      <trkpt lat="45.88207" lon="4.20581">
        <ele>550.2</ele>
        <time>2022-03-07T13:52:43Z</time>
      </trkpt>
      <trkpt lat="45.88211" lon="4.20586">
        <ele>527.4</ele>
        <time>2022-03-07T13:52:48Z</time>
      </trkpt>
      <trkpt lat="45.88215" lon="4.2059">
        <ele>529.7</ele>
        <time>2022-03-07T13:52:54Z</time>
      </trkpt>
      <trkpt lat="45.88219" lon="4.20593">
        <ele>529.6</ele>
        <time>2022-03-07T13:52:59Z</time>
      </trkpt>
      <trkpt lat="45.88224" lon="4.20598">
        <ele>529.7</ele>
        <time>2022-03-07T13:53:05Z</time>
      </trkpt>
      <trkpt lat="45.88228" lon="4.20606">
        <ele>547.7</ele>
        <time>2022-03-07T13:53:11Z</time>
      </trkpt>
      <trkpt lat="45.8823" lon="4.20613">
        <ele>528.6</ele>
        <time>2022-03-07T13:53:16Z</time>
      </trkpt>
      <trkpt lat="45.88232" lon="4.20621">
        <ele>529.5</ele>
        <time>2022-03-07T13:53:22Z</time>
      </trkpt>
      <trkpt lat="45.88237" lon="4.20625">
        <ele>546.7</ele>
        <time>2022-03-07T13:53:27Z</time>
      </trkpt>
      <trkpt lat="45.88242" lon="4.20628">
        <ele>528.1</ele>
        <time>2022-03-07T13:53:32Z</time>
      </trkpt>
      <trkpt lat="45.88246" lon="4.20634">
        <ele>527.8</ele>
        <time>2022-03-07T13:53:38Z</time>
      </trkpt>
      <trkpt lat="45.88248" lon="4.2064">
        <ele>532.3</ele>
        <time>2022-03-07T13:53:43Z</time>
      </trkpt>
      <trkpt lat="45.88251" lon="4.20646">
        <ele>555.3</ele>
        <time>2022-03-07T13:53:48Z</time>
      </trkpt>
      <trkpt lat="45.88255" lon="4.20653">
        <ele>532.2</ele>
        <time>2022-03-07T13:53:54Z</time>
      </trkpt>
      <trkpt lat="45.88259" lon="4.20658">
        <ele>529.7</ele>
        <time>2022-03-07T13:53:59Z</time>
      </trkpt>
      <trkpt lat="45.88261" lon="4.20665">
        <ele>526.6</ele>
        <time>2022-03-07T13:54:04Z</time>
      </trkpt>
      <trkpt lat="45.88263" lon="4.20673">
        <ele>524</ele>
        <time>2022-03-07T13:54:10Z</time>
      </trkpt>
      <trkpt lat="45.88265" lon="4.2068">
        <ele>525.4</ele>
        <time>2022-03-07T13:54:15Z</time>
      </trkpt>
      <trkpt lat="45.88266" lon="4.20689">
        <ele>525.6</ele>
        <time>2022-03-07T13:54:20Z</time>
      </trkpt>
      <trkpt lat="45.8827" lon="4.20696">
        <ele>544.3</ele>
        <time>2022-03-07T13:54:25Z</time>
      </trkpt>
      <trkpt lat="45.88275" lon="4.20701">
        <ele>543.2</ele>
        <time>2022-03-07T13:54:30Z</time>
      </trkpt>
      <trkpt lat="45.88281" lon="4.20706">
        <ele>543.1</ele>
        <time>2022-03-07T13:54:36Z</time>
      </trkpt>
      <trkpt lat="45.88283" lon="4.20709">
        <ele>524.4</ele>
        <time>2022-03-07T13:54:41Z</time>
      </trkpt>
      <trkpt lat="45.88282" lon="4.20708">
        <ele>523.9</ele>
        <time>2022-03-07T13:54:47Z</time>
      </trkpt>
      <trkpt lat="45.88286" lon="4.20709">
        <ele>524.3</ele>
        <time>2022-03-07T13:54:53Z</time>
      </trkpt>
      <trkpt lat="45.88292" lon="4.20712">
        <ele>524.2</ele>
        <time>2022-03-07T13:54:58Z</time>
      </trkpt>
      <trkpt lat="45.88299" lon="4.20715">
        <ele>524.6</ele>
        <time>2022-03-07T13:55:04Z</time>
      </trkpt>
      <trkpt lat="45.88303" lon="4.20715">
        <ele>549.2</ele>
        <time>2022-03-07T13:55:10Z</time>
      </trkpt>
      <trkpt lat="45.88305" lon="4.20718">
        <ele>552</ele>
        <time>2022-03-07T13:55:15Z</time>
      </trkpt>
      <trkpt lat="45.88308" lon="4.20721">
        <ele>565.5</ele>
        <time>2022-03-07T13:55:20Z</time>
      </trkpt>
      <trkpt lat="45.88309" lon="4.2073">
        <ele>550</ele>
        <time>2022-03-07T13:55:25Z</time>
      </trkpt>
      <trkpt lat="45.88314" lon="4.20736">
        <ele>543.9</ele>
        <time>2022-03-07T13:55:30Z</time>
      </trkpt>
      <trkpt lat="45.88319" lon="4.20742">
        <ele>543.6</ele>
        <time>2022-03-07T13:55:36Z</time>
      </trkpt>
      <trkpt lat="45.88323" lon="4.20746">
        <ele>545.3</ele>
        <time>2022-03-07T13:55:41Z</time>
      </trkpt>
      <trkpt lat="45.88323" lon="4.20753">
        <ele>544</ele>
        <time>2022-03-07T13:55:46Z</time>
      </trkpt>
      <trkpt lat="45.88326" lon="4.20757">
        <ele>544.6</ele>
        <time>2022-03-07T13:55:52Z</time>
      </trkpt>
      <trkpt lat="45.88333" lon="4.20759">
        <ele>545.1</ele>
        <time>2022-03-07T13:55:57Z</time>
      </trkpt>
      <trkpt lat="45.88337" lon="4.20762">
        <ele>544.1</ele>
        <time>2022-03-07T13:56:02Z</time>
      </trkpt>
      <trkpt lat="45.88339" lon="4.20767">
        <ele>544.5</ele>
        <time>2022-03-07T13:56:08Z</time>
      </trkpt>
      <trkpt lat="45.88341" lon="4.2077">
        <ele>525.3</ele>
        <time>2022-03-07T13:56:14Z</time>
      </trkpt>
      <trkpt lat="45.88345" lon="4.20773">
        <ele>544.6</ele>
        <time>2022-03-07T13:56:19Z</time>
      </trkpt>
      <trkpt lat="45.88351" lon="4.20774">
        <ele>536.8</ele>
        <time>2022-03-07T13:56:24Z</time>
      </trkpt>
      <trkpt lat="45.88355" lon="4.20776">
        <ele>539.7</ele>
        <time>2022-03-07T13:56:29Z</time>
      </trkpt>
      <trkpt lat="45.88359" lon="4.2078">
        <ele>538.7</ele>
        <time>2022-03-07T13:56:34Z</time>
      </trkpt>
      <trkpt lat="45.88361" lon="4.20784">
        <ele>534.8</ele>
        <time>2022-03-07T13:56:39Z</time>
      </trkpt>
      <trkpt lat="45.88363" lon="4.20789">
        <ele>538.8</ele>
        <time>2022-03-07T13:56:45Z</time>
      </trkpt>
      <trkpt lat="45.88366" lon="4.20794">
        <ele>563.3</ele>
        <time>2022-03-07T13:56:50Z</time>
      </trkpt>
      <trkpt lat="45.88367" lon="4.20796">
        <ele>574.4</ele>
        <time>2022-03-07T13:56:55Z</time>
      </trkpt>
      <trkpt lat="45.88367" lon="4.20804">
        <ele>579.9</ele>
        <time>2022-03-07T13:57:01Z</time>
      </trkpt>
      <trkpt lat="45.88367" lon="4.20807">
        <ele>573.4</ele>
        <time>2022-03-07T13:57:07Z</time>
      </trkpt>
      <trkpt lat="45.88371" lon="4.2081">
        <ele>555.9</ele>
        <time>2022-03-07T13:57:12Z</time>
      </trkpt>
      <trkpt lat="45.88376" lon="4.20813">
        <ele>551.9</ele>
        <time>2022-03-07T13:57:17Z</time>
      </trkpt>
      <trkpt lat="45.88382" lon="4.20814">
        <ele>550.9</ele>
        <time>2022-03-07T13:57:22Z</time>
      </trkpt>
      <trkpt lat="45.88386" lon="4.20817">
        <ele>556.1</ele>
        <time>2022-03-07T13:57:28Z</time>
      </trkpt>
      <trkpt lat="45.88389" lon="4.20821">
        <ele>548.8</ele>
        <time>2022-03-07T13:57:34Z</time>
      </trkpt>
      <trkpt lat="45.88392" lon="4.20824">
        <ele>548.5</ele>
        <time>2022-03-07T13:57:39Z</time>
      </trkpt>
      <trkpt lat="45.88395" lon="4.20826">
        <ele>532.2</ele>
        <time>2022-03-07T13:57:45Z</time>
      </trkpt>
      <trkpt lat="45.88398" lon="4.20829">
        <ele>532.3</ele>
        <time>2022-03-07T13:57:50Z</time>
      </trkpt>
      <trkpt lat="45.88403" lon="4.20832">
        <ele>535.8</ele>
        <time>2022-03-07T13:57:55Z</time>
      </trkpt>
      <trkpt lat="45.88406" lon="4.20835">
        <ele>533.7</ele>
        <time>2022-03-07T13:58:01Z</time>
      </trkpt>
      <trkpt lat="45.88409" lon="4.2084">
        <ele>532.9</ele>
        <time>2022-03-07T13:58:06Z</time>
      </trkpt>
      <trkpt lat="45.88413" lon="4.20843">
        <ele>533.6</ele>
        <time>2022-03-07T13:58:12Z</time>
      </trkpt>
      <trkpt lat="45.88417" lon="4.20846">
        <ele>568.7</ele>
        <time>2022-03-07T13:58:17Z</time>
      </trkpt>
      <trkpt lat="45.8842" lon="4.20849">
        <ele>573</ele>
        <time>2022-03-07T13:58:23Z</time>
      </trkpt>
      <trkpt lat="45.88423" lon="4.20853">
        <ele>557.5</ele>
        <time>2022-03-07T13:58:28Z</time>
      </trkpt>
      <trkpt lat="45.88425" lon="4.20858">
        <ele>566.9</ele>
        <time>2022-03-07T13:58:34Z</time>
      </trkpt>
      <trkpt lat="45.88429" lon="4.20861">
        <ele>570.7</ele>
        <time>2022-03-07T13:58:39Z</time>
      </trkpt>
      <trkpt lat="45.88432" lon="4.20864">
        <ele>549.2</ele>
        <time>2022-03-07T13:58:44Z</time>
      </trkpt>
      <trkpt lat="45.88435" lon="4.20867">
        <ele>544.8</ele>
        <time>2022-03-07T13:58:49Z</time>
      </trkpt>
      <trkpt lat="45.88439" lon="4.20872">
        <ele>545.2</ele>
        <time>2022-03-07T13:58:55Z</time>
      </trkpt>
      <trkpt lat="45.88442" lon="4.20875">
        <ele>543.1</ele>
        <time>2022-03-07T13:59:00Z</time>
      </trkpt>
      <trkpt lat="45.88444" lon="4.20876">
        <ele>567.7</ele>
        <time>2022-03-07T13:59:05Z</time>
      </trkpt>
      <trkpt lat="45.88445" lon="4.20874">
        <ele>579.5</ele>
        <time>2022-03-07T13:59:10Z</time>
      </trkpt>
      <trkpt lat="45.88447" lon="4.20876">
        <ele>595.7</ele>
        <time>2022-03-07T13:59:16Z</time>
      </trkpt>
      <trkpt lat="45.88451" lon="4.20878">
        <ele>570.7</ele>
        <time>2022-03-07T13:59:22Z</time>
      </trkpt>
      <trkpt lat="45.88454" lon="4.20881">
        <ele>611.9</ele>
        <time>2022-03-07T13:59:27Z</time>
      </trkpt>
      <trkpt lat="45.88458" lon="4.20882">
        <ele>621.3</ele>
        <time>2022-03-07T13:59:33Z</time>
      </trkpt>
      <trkpt lat="45.88463" lon="4.20882">
        <ele>623.4</ele>
        <time>2022-03-07T13:59:38Z</time>
      </trkpt>
      <trkpt lat="45.88468" lon="4.20883">
        <ele>603.5</ele>
        <time>2022-03-07T13:59:43Z</time>
      </trkpt>
      <trkpt lat="45.88474" lon="4.20882">
        <ele>624.1</ele>
        <time>2022-03-07T13:59:48Z</time>
      </trkpt>
      <trkpt lat="45.88479" lon="4.20885">
        <ele>596.5</ele>
        <time>2022-03-07T13:59:54Z</time>
      </trkpt>
      <trkpt lat="45.88486" lon="4.2089">
        <ele>584.5</ele>
        <time>2022-03-07T13:59:59Z</time>
      </trkpt>
      <trkpt lat="45.88491" lon="4.20894">
        <ele>588.6</ele>
        <time>2022-03-07T14:00:05Z</time>
      </trkpt>
      <trkpt lat="45.88496" lon="4.20898">
        <ele>611.1</ele>
        <time>2022-03-07T14:00:11Z</time>
      </trkpt>
      <trkpt lat="45.885" lon="4.20902">
        <ele>593.1</ele>
        <time>2022-03-07T14:00:16Z</time>
      </trkpt>
      <trkpt lat="45.88504" lon="4.20905">
        <ele>612</ele>
        <time>2022-03-07T14:00:21Z</time>
      </trkpt>
      <trkpt lat="45.88507" lon="4.20909">
        <ele>596.8</ele>
        <time>2022-03-07T14:00:26Z</time>
      </trkpt>
      <trkpt lat="45.88512" lon="4.20911">
        <ele>583.3</ele>
        <time>2022-03-07T14:00:32Z</time>
      </trkpt>
      <trkpt lat="45.88516" lon="4.20914">
        <ele>590.8</ele>
        <time>2022-03-07T14:00:37Z</time>
      </trkpt>
      <trkpt lat="45.8852" lon="4.20918">
        <ele>618.9</ele>
        <time>2022-03-07T14:00:43Z</time>
      </trkpt>
      <trkpt lat="45.88524" lon="4.20921">
        <ele>577.2</ele>
        <time>2022-03-07T14:00:48Z</time>
      </trkpt>
      <trkpt lat="45.88527" lon="4.20926">
        <ele>581.2</ele>
        <time>2022-03-07T14:00:54Z</time>
      </trkpt>
      <trkpt lat="45.88531" lon="4.20927">
        <ele>594.4</ele>
        <time>2022-03-07T14:00:59Z</time>
      </trkpt>
      <trkpt lat="45.88533" lon="4.20927">
        <ele>580.1</ele>
        <time>2022-03-07T14:01:04Z</time>
      </trkpt>
      <trkpt lat="45.88533" lon="4.20928">
        <ele>570.9</ele>
        <time>2022-03-07T14:01:09Z</time>
      </trkpt>
      <trkpt lat="45.88532" lon="4.20929">
        <ele>566.2</ele>
        <time>2022-03-07T14:01:15Z</time>
      </trkpt>
      <trkpt lat="45.88531" lon="4.20929">
        <ele>582.4</ele>
        <time>2022-03-07T14:01:21Z</time>
      </trkpt>
      <trkpt lat="45.88529" lon="4.20928">
        <ele>580.8</ele>
        <time>2022-03-07T14:01:26Z</time>
      </trkpt>
      <trkpt lat="45.88529" lon="4.20928">
        <ele>559</ele>
        <time>2022-03-07T14:01:31Z</time>
      </trkpt>
      <trkpt lat="45.88529" lon="4.20928">
        <ele>559.6</ele>
        <time>2022-03-07T14:01:37Z</time>
      </trkpt>
      <trkpt lat="45.88529" lon="4.20928">
        <ele>562.7</ele>
        <time>2022-03-07T14:01:43Z</time>
      </trkpt>
      <trkpt lat="45.8853" lon="4.20927">
        <ele>569.6</ele>
        <time>2022-03-07T14:01:49Z</time>
      </trkpt>
      <trkpt lat="45.88532" lon="4.20928">
        <ele>568.8</ele>
        <time>2022-03-07T14:01:55Z</time>
      </trkpt>
      <trkpt lat="45.88535" lon="4.20927">
        <ele>554</ele>
        <time>2022-03-07T14:02:01Z</time>
      </trkpt>
      <trkpt lat="45.88535" lon="4.20927">
        <ele>569.2</ele>
        <time>2022-03-07T14:02:06Z</time>
      </trkpt>
      <trkpt lat="45.88537" lon="4.20926">
        <ele>568.5</ele>
        <time>2022-03-07T14:02:12Z</time>
      </trkpt>
      <trkpt lat="45.88536" lon="4.20927">
        <ele>568.2</ele>
        <time>2022-03-07T14:02:18Z</time>
      </trkpt>
      <trkpt lat="45.88535" lon="4.20926">
        <ele>568</ele>
        <time>2022-03-07T14:02:23Z</time>
      </trkpt>
      <trkpt lat="45.88536" lon="4.20927">
        <ele>568.3</ele>
        <time>2022-03-07T14:02:29Z</time>
      </trkpt>
      <trkpt lat="45.88536" lon="4.20927">
        <ele>552.8</ele>
        <time>2022-03-07T14:02:35Z</time>
      </trkpt>
      <trkpt lat="45.88536" lon="4.20929">
        <ele>552.6</ele>
        <time>2022-03-07T14:02:40Z</time>
      </trkpt>
      <trkpt lat="45.88537" lon="4.20929">
        <ele>552.4</ele>
        <time>2022-03-07T14:02:45Z</time>
      </trkpt>
      <trkpt lat="45.88537" lon="4.20928">
        <ele>567.7</ele>
        <time>2022-03-07T14:02:51Z</time>
      </trkpt>
      <trkpt lat="45.88538" lon="4.20928">
        <ele>567.5</ele>
        <time>2022-03-07T14:02:56Z</time>
      </trkpt>
      <trkpt lat="45.88538" lon="4.20928">
        <ele>552.1</ele>
        <time>2022-03-07T14:03:01Z</time>
      </trkpt>
      <trkpt lat="45.88538" lon="4.20928">
        <ele>567.4</ele>
        <time>2022-03-07T14:03:07Z</time>
      </trkpt>
      <trkpt lat="45.88538" lon="4.20927">
        <ele>567</ele>
        <time>2022-03-07T14:03:12Z</time>
      </trkpt>
      <trkpt lat="45.88538" lon="4.20927">
        <ele>566</ele>
        <time>2022-03-07T14:03:18Z</time>
      </trkpt>
      <trkpt lat="45.88538" lon="4.20927">
        <ele>550.4</ele>
        <time>2022-03-07T14:03:24Z</time>
      </trkpt>
      <trkpt lat="45.88538" lon="4.20927">
        <ele>551.1</ele>
        <time>2022-03-07T14:03:30Z</time>
      </trkpt>
      <trkpt lat="45.88538" lon="4.20927">
        <ele>551.2</ele>
        <time>2022-03-07T14:03:36Z</time>
      </trkpt>
      <trkpt lat="45.88538" lon="4.20928">
        <ele>551.6</ele>
        <time>2022-03-07T14:03:42Z</time>
      </trkpt>
      <trkpt lat="45.88537" lon="4.20927">
        <ele>566.7</ele>
        <time>2022-03-07T14:03:48Z</time>
      </trkpt>
      <trkpt lat="45.88539" lon="4.20928">
        <ele>550.9</ele>
        <time>2022-03-07T14:03:53Z</time>
      </trkpt>
      <trkpt lat="45.88539" lon="4.20928">
        <ele>551</ele>
        <time>2022-03-07T14:03:59Z</time>
      </trkpt>
      <trkpt lat="45.88538" lon="4.20928">
        <ele>550.9</ele>
        <time>2022-03-07T14:04:04Z</time>
      </trkpt>
      <trkpt lat="45.88538" lon="4.20928">
        <ele>551</ele>
        <time>2022-03-07T14:04:10Z</time>
      </trkpt>
      <trkpt lat="45.88537" lon="4.20928">
        <ele>551</ele>
        <time>2022-03-07T14:04:16Z</time>
      </trkpt>
      <trkpt lat="45.88538" lon="4.20929">
        <ele>582.2</ele>
        <time>2022-03-07T14:04:22Z</time>
      </trkpt>
      <trkpt lat="45.88539" lon="4.20928">
        <ele>594.1</ele>
        <time>2022-03-07T14:04:27Z</time>
      </trkpt>
      <trkpt lat="45.88541" lon="4.20922">
        <ele>594.4</ele>
        <time>2022-03-07T14:04:32Z</time>
      </trkpt>
      <trkpt lat="45.88542" lon="4.20915">
        <ele>570.9</ele>
        <time>2022-03-07T14:04:37Z</time>
      </trkpt>
      <trkpt lat="45.8854" lon="4.20909">
        <ele>579.1</ele>
        <time>2022-03-07T14:04:42Z</time>
      </trkpt>
      <trkpt lat="45.8854" lon="4.20902">
        <ele>593</ele>
        <time>2022-03-07T14:04:48Z</time>
      </trkpt>
      <trkpt lat="45.88543" lon="4.20895">
        <ele>608.5</ele>
        <time>2022-03-07T14:04:53Z</time>
      </trkpt>
      <trkpt lat="45.88548" lon="4.20892">
        <ele>608.8</ele>
        <time>2022-03-07T14:04:58Z</time>
      </trkpt>
      <trkpt lat="45.88554" lon="4.20887">
        <ele>590.4</ele>
        <time>2022-03-07T14:05:04Z</time>
      </trkpt>
      <trkpt lat="45.88559" lon="4.2088">
        <ele>600.8</ele>
        <time>2022-03-07T14:05:09Z</time>
      </trkpt>
      <trkpt lat="45.88564" lon="4.20874">
        <ele>596.6</ele>
        <time>2022-03-07T14:05:14Z</time>
      </trkpt>
      <trkpt lat="45.88566" lon="4.20869">
        <ele>595.6</ele>
        <time>2022-03-07T14:05:19Z</time>
      </trkpt>
      <trkpt lat="45.88567" lon="4.20863">
        <ele>608.9</ele>
        <time>2022-03-07T14:05:24Z</time>
      </trkpt>
      <trkpt lat="45.88567" lon="4.20857">
        <ele>617.3</ele>
        <time>2022-03-07T14:05:30Z</time>
      </trkpt>
      <trkpt lat="45.88565" lon="4.20849">
        <ele>601.8</ele>
        <time>2022-03-07T14:05:35Z</time>
      </trkpt>
      <trkpt lat="45.88562" lon="4.20841">
        <ele>610.3</ele>
        <time>2022-03-07T14:05:40Z</time>
      </trkpt>
      <trkpt lat="45.88559" lon="4.20834">
        <ele>613.6</ele>
        <time>2022-03-07T14:05:45Z</time>
      </trkpt>
      <trkpt lat="45.88557" lon="4.2083">
        <ele>634.9</ele>
        <time>2022-03-07T14:05:51Z</time>
      </trkpt>
      <trkpt lat="45.88553" lon="4.20823">
        <ele>619.1</ele>
        <time>2022-03-07T14:05:56Z</time>
      </trkpt>
      <trkpt lat="45.88557" lon="4.20813">
        <ele>614.2</ele>
        <time>2022-03-07T14:06:01Z</time>
      </trkpt>
      <trkpt lat="45.88561" lon="4.20805">
        <ele>612.3</ele>
        <time>2022-03-07T14:06:07Z</time>
      </trkpt>
      <trkpt lat="45.88567" lon="4.20799">
        <ele>627.8</ele>
        <time>2022-03-07T14:06:12Z</time>
      </trkpt>
      <trkpt lat="45.88572" lon="4.20792">
        <ele>628.1</ele>
        <time>2022-03-07T14:06:17Z</time>
      </trkpt>
      <trkpt lat="45.88578" lon="4.20787">
        <ele>617.7</ele>
        <time>2022-03-07T14:06:23Z</time>
      </trkpt>
      <trkpt lat="45.88582" lon="4.20782">
        <ele>638.7</ele>
        <time>2022-03-07T14:06:28Z</time>
      </trkpt>
      <trkpt lat="45.88585" lon="4.20778">
        <ele>643.1</ele>
        <time>2022-03-07T14:06:33Z</time>
      </trkpt>
      <trkpt lat="45.88587" lon="4.20775">
        <ele>643.8</ele>
        <time>2022-03-07T14:06:39Z</time>
      </trkpt>
      <trkpt lat="45.88591" lon="4.20772">
        <ele>633.8</ele>
        <time>2022-03-07T14:06:44Z</time>
      </trkpt>
      <trkpt lat="45.88595" lon="4.20768">
        <ele>643.8</ele>
        <time>2022-03-07T14:06:49Z</time>
      </trkpt>
      <trkpt lat="45.886" lon="4.20765">
        <ele>631.2</ele>
        <time>2022-03-07T14:06:55Z</time>
      </trkpt>
      <trkpt lat="45.88604" lon="4.20762">
        <ele>643.2</ele>
        <time>2022-03-07T14:07:01Z</time>
      </trkpt>
      <trkpt lat="45.88608" lon="4.20756">
        <ele>635.7</ele>
        <time>2022-03-07T14:07:06Z</time>
      </trkpt>
      <trkpt lat="45.88612" lon="4.20751">
        <ele>646.1</ele>
        <time>2022-03-07T14:07:11Z</time>
      </trkpt>
      <trkpt lat="45.88614" lon="4.20748">
        <ele>644.3</ele>
        <time>2022-03-07T14:07:17Z</time>
      </trkpt>
      <trkpt lat="45.88614" lon="4.20749">
        <ele>633.5</ele>
        <time>2022-03-07T14:07:22Z</time>
      </trkpt>
      <trkpt lat="45.88616" lon="4.20748">
        <ele>648.1</ele>
        <time>2022-03-07T14:07:28Z</time>
      </trkpt>
      <trkpt lat="45.8862" lon="4.20745">
        <ele>638.3</ele>
        <time>2022-03-07T14:07:33Z</time>
      </trkpt>
      <trkpt lat="45.88623" lon="4.20742">
        <ele>638.2</ele>
        <time>2022-03-07T14:07:38Z</time>
      </trkpt>
      <trkpt lat="45.88624" lon="4.2074">
        <ele>638.1</ele>
        <time>2022-03-07T14:07:44Z</time>
      </trkpt>
      <trkpt lat="45.88625" lon="4.20735">
        <ele>646.1</ele>
        <time>2022-03-07T14:07:49Z</time>
      </trkpt>
      <trkpt lat="45.88627" lon="4.20728">
        <ele>647.5</ele>
        <time>2022-03-07T14:07:54Z</time>
      </trkpt>
      <trkpt lat="45.88629" lon="4.20721">
        <ele>647.8</ele>
        <time>2022-03-07T14:08:00Z</time>
      </trkpt>
      <trkpt lat="45.88631" lon="4.20713">
        <ele>649.8</ele>
        <time>2022-03-07T14:08:05Z</time>
      </trkpt>
      <trkpt lat="45.88635" lon="4.20706">
        <ele>651.6</ele>
        <time>2022-03-07T14:08:10Z</time>
      </trkpt>
      <trkpt lat="45.88638" lon="4.20699">
        <ele>649.4</ele>
        <time>2022-03-07T14:08:16Z</time>
      </trkpt>
      <trkpt lat="45.88641" lon="4.20692">
        <ele>648.4</ele>
        <time>2022-03-07T14:08:21Z</time>
      </trkpt>
      <trkpt lat="45.88642" lon="4.20686">
        <ele>642.6</ele>
        <time>2022-03-07T14:08:27Z</time>
      </trkpt>
      <trkpt lat="45.88643" lon="4.20681">
        <ele>650.9</ele>
        <time>2022-03-07T14:08:32Z</time>
      </trkpt>
      <trkpt lat="45.88644" lon="4.20674">
        <ele>650.2</ele>
        <time>2022-03-07T14:08:37Z</time>
      </trkpt>
      <trkpt lat="45.88644" lon="4.20666">
        <ele>651.5</ele>
        <time>2022-03-07T14:08:43Z</time>
      </trkpt>
      <trkpt lat="45.88645" lon="4.20656">
        <ele>650</ele>
        <time>2022-03-07T14:08:48Z</time>
      </trkpt>
      <trkpt lat="45.88645" lon="4.20648">
        <ele>651.2</ele>
        <time>2022-03-07T14:08:53Z</time>
      </trkpt>
      <trkpt lat="45.88645" lon="4.20641">
        <ele>651.3</ele>
        <time>2022-03-07T14:08:58Z</time>
      </trkpt>
      <trkpt lat="45.88645" lon="4.20634">
        <ele>652.7</ele>
        <time>2022-03-07T14:09:04Z</time>
      </trkpt>
      <trkpt lat="45.88649" lon="4.20629">
        <ele>652.1</ele>
        <time>2022-03-07T14:09:09Z</time>
      </trkpt>
      <trkpt lat="45.88653" lon="4.20625">
        <ele>650.9</ele>
        <time>2022-03-07T14:09:15Z</time>
      </trkpt>
      <trkpt lat="45.88658" lon="4.20622">
        <ele>643.9</ele>
        <time>2022-03-07T14:09:20Z</time>
      </trkpt>
      <trkpt lat="45.88662" lon="4.20619">
        <ele>644.3</ele>
        <time>2022-03-07T14:09:25Z</time>
      </trkpt>
      <trkpt lat="45.88667" lon="4.20619">
        <ele>613.7</ele>
        <time>2022-03-07T14:09:30Z</time>
      </trkpt>
      <trkpt lat="45.88671" lon="4.20619">
        <ele>594.1</ele>
        <time>2022-03-07T14:09:36Z</time>
      </trkpt>
      <trkpt lat="45.88672" lon="4.20615">
        <ele>622.6</ele>
        <time>2022-03-07T14:09:41Z</time>
      </trkpt>
      <trkpt lat="45.8867" lon="4.20608">
        <ele>609.1</ele>
        <time>2022-03-07T14:09:46Z</time>
      </trkpt>
      <trkpt lat="45.88668" lon="4.20602">
        <ele>630.7</ele>
        <time>2022-03-07T14:09:51Z</time>
      </trkpt>
      <trkpt lat="45.88667" lon="4.20595">
        <ele>633.6</ele>
        <time>2022-03-07T14:09:57Z</time>
      </trkpt>
      <trkpt lat="45.88667" lon="4.20589">
        <ele>634.9</ele>
        <time>2022-03-07T14:10:02Z</time>
      </trkpt>
      <trkpt lat="45.88668" lon="4.20584">
        <ele>623.7</ele>
        <time>2022-03-07T14:10:07Z</time>
      </trkpt>
      <trkpt lat="45.88666" lon="4.20581">
        <ele>591.4</ele>
        <time>2022-03-07T14:10:13Z</time>
      </trkpt>
      <trkpt lat="45.88665" lon="4.20576">
        <ele>601.2</ele>
        <time>2022-03-07T14:10:18Z</time>
      </trkpt>
      <trkpt lat="45.88665" lon="4.20569">
        <ele>623.8</ele>
        <time>2022-03-07T14:10:24Z</time>
      </trkpt>
      <trkpt lat="45.88667" lon="4.20562">
        <ele>613.4</ele>
        <time>2022-03-07T14:10:29Z</time>
      </trkpt>
      <trkpt lat="45.88667" lon="4.20553">
        <ele>587.8</ele>
        <time>2022-03-07T14:10:35Z</time>
      </trkpt>
      <trkpt lat="45.88667" lon="4.20546">
        <ele>583.6</ele>
        <time>2022-03-07T14:10:40Z</time>
      </trkpt>
      <trkpt lat="45.88667" lon="4.2054">
        <ele>573.2</ele>
        <time>2022-03-07T14:10:45Z</time>
      </trkpt>
      <trkpt lat="45.88667" lon="4.20535">
        <ele>575.9</ele>
        <time>2022-03-07T14:10:50Z</time>
      </trkpt>
      <trkpt lat="45.88667" lon="4.20532">
        <ele>597.1</ele>
        <time>2022-03-07T14:10:55Z</time>
      </trkpt>
      <trkpt lat="45.88666" lon="4.20529">
        <ele>608.2</ele>
        <time>2022-03-07T14:11:01Z</time>
      </trkpt>
      <trkpt lat="45.88664" lon="4.20526">
        <ele>588.9</ele>
        <time>2022-03-07T14:11:06Z</time>
      </trkpt>
      <trkpt lat="45.88664" lon="4.20522">
        <ele>583.9</ele>
        <time>2022-03-07T14:11:11Z</time>
      </trkpt>
      <trkpt lat="45.88666" lon="4.20514">
        <ele>580.8</ele>
        <time>2022-03-07T14:11:17Z</time>
      </trkpt>
      <trkpt lat="45.88668" lon="4.20507">
        <ele>596.1</ele>
        <time>2022-03-07T14:11:22Z</time>
      </trkpt>
      <trkpt lat="45.88669" lon="4.205">
        <ele>600.6</ele>
        <time>2022-03-07T14:11:27Z</time>
      </trkpt>
      <trkpt lat="45.8867" lon="4.20491">
        <ele>571.8</ele>
        <time>2022-03-07T14:11:33Z</time>
      </trkpt>
      <trkpt lat="45.88671" lon="4.20485">
        <ele>580.9</ele>
        <time>2022-03-07T14:11:38Z</time>
      </trkpt>
      <trkpt lat="45.88672" lon="4.20479">
        <ele>577.7</ele>
        <time>2022-03-07T14:11:44Z</time>
      </trkpt>
      <trkpt lat="45.88672" lon="4.20478">
        <ele>571</ele>
        <time>2022-03-07T14:11:50Z</time>
      </trkpt>
      <trkpt lat="45.88671" lon="4.20478">
        <ele>593.8</ele>
        <time>2022-03-07T14:11:55Z</time>
      </trkpt>
      <trkpt lat="45.88671" lon="4.20479">
        <ele>557.6</ele>
        <time>2022-03-07T14:12:00Z</time>
      </trkpt>
      <trkpt lat="45.88671" lon="4.20479">
        <ele>551</ele>
        <time>2022-03-07T14:12:06Z</time>
      </trkpt>
      <trkpt lat="45.88671" lon="4.20481">
        <ele>547.7</ele>
        <time>2022-03-07T14:12:12Z</time>
      </trkpt>
      <trkpt lat="45.88671" lon="4.20481">
        <ele>541.1</ele>
        <time>2022-03-07T14:12:17Z</time>
      </trkpt>
      <trkpt lat="45.8867" lon="4.2048">
        <ele>544.6</ele>
        <time>2022-03-07T14:12:56Z</time>
      </trkpt>
      <trkpt lat="45.8867" lon="4.20479">
        <ele>539.5</ele>
        <time>2022-03-07T14:13:02Z</time>
      </trkpt>
      <trkpt lat="45.8867" lon="4.20479">
        <ele>562.7</ele>
        <time>2022-03-07T14:13:08Z</time>
      </trkpt>
      <trkpt lat="45.88671" lon="4.20476">
        <ele>587.7</ele>
        <time>2022-03-07T14:13:13Z</time>
      </trkpt>
      <trkpt lat="45.88671" lon="4.20476">
        <ele>562.7</ele>
        <time>2022-03-07T14:13:19Z</time>
      </trkpt>
      <trkpt lat="45.88671" lon="4.20477">
        <ele>576.3</ele>
        <time>2022-03-07T14:13:25Z</time>
      </trkpt>
      <trkpt lat="45.88671" lon="4.20476">
        <ele>585</ele>
        <time>2022-03-07T14:13:31Z</time>
      </trkpt>
      <trkpt lat="45.88674" lon="4.20474">
        <ele>562.5</ele>
        <time>2022-03-07T14:13:37Z</time>
      </trkpt>
      <trkpt lat="45.88673" lon="4.20474">
        <ele>558.8</ele>
        <time>2022-03-07T14:13:43Z</time>
      </trkpt>
      <trkpt lat="45.88673" lon="4.20474">
        <ele>561.3</ele>
        <time>2022-03-07T14:13:49Z</time>
      </trkpt>
      <trkpt lat="45.88673" lon="4.20472">
        <ele>558.4</ele>
        <time>2022-03-07T14:13:55Z</time>
      </trkpt>
      <trkpt lat="45.88673" lon="4.20471">
        <ele>557.4</ele>
        <time>2022-03-07T14:14:01Z</time>
      </trkpt>
      <trkpt lat="45.88674" lon="4.2047">
        <ele>554.8</ele>
        <time>2022-03-07T14:14:06Z</time>
      </trkpt>
      <trkpt lat="45.88674" lon="4.20468">
        <ele>537.8</ele>
        <time>2022-03-07T14:14:11Z</time>
      </trkpt>
      <trkpt lat="45.88674" lon="4.20467">
        <ele>541.8</ele>
        <time>2022-03-07T14:14:16Z</time>
      </trkpt>
      <trkpt lat="45.88674" lon="4.20467">
        <ele>554.9</ele>
        <time>2022-03-07T14:14:21Z</time>
      </trkpt>
      <trkpt lat="45.88674" lon="4.20466">
        <ele>555.3</ele>
        <time>2022-03-07T14:14:27Z</time>
      </trkpt>
      <trkpt lat="45.88673" lon="4.20463">
        <ele>566.7</ele>
        <time>2022-03-07T14:14:33Z</time>
      </trkpt>
      <trkpt lat="45.88673" lon="4.2046">
        <ele>572.8</ele>
        <time>2022-03-07T14:14:38Z</time>
      </trkpt>
      <trkpt lat="45.88674" lon="4.20456">
        <ele>583.8</ele>
        <time>2022-03-07T14:14:44Z</time>
      </trkpt>
      <trkpt lat="45.88677" lon="4.2045">
        <ele>578.3</ele>
        <time>2022-03-07T14:14:49Z</time>
      </trkpt>
      <trkpt lat="45.8868" lon="4.20443">
        <ele>582.9</ele>
        <time>2022-03-07T14:14:54Z</time>
      </trkpt>
      <trkpt lat="45.88681" lon="4.20437">
        <ele>579.2</ele>
        <time>2022-03-07T14:14:59Z</time>
      </trkpt>
      <trkpt lat="45.88682" lon="4.20432">
        <ele>593.5</ele>
        <time>2022-03-07T14:15:05Z</time>
      </trkpt>
      <trkpt lat="45.88683" lon="4.20427">
        <ele>603.7</ele>
        <time>2022-03-07T14:15:10Z</time>
      </trkpt>
      <trkpt lat="45.88687" lon="4.20423">
        <ele>576.9</ele>
        <time>2022-03-07T14:15:16Z</time>
      </trkpt>
      <trkpt lat="45.88689" lon="4.20419">
        <ele>572.6</ele>
        <time>2022-03-07T14:15:21Z</time>
      </trkpt>
      <trkpt lat="45.8869" lon="4.20417">
        <ele>561.8</ele>
        <time>2022-03-07T14:15:26Z</time>
      </trkpt>
      <trkpt lat="45.88692" lon="4.2041">
        <ele>558.9</ele>
        <time>2022-03-07T14:15:31Z</time>
      </trkpt>
      <trkpt lat="45.88693" lon="4.20401">
        <ele>562.1</ele>
        <time>2022-03-07T14:15:37Z</time>
      </trkpt>
      <trkpt lat="45.88695" lon="4.20394">
        <ele>549.6</ele>
        <time>2022-03-07T14:15:42Z</time>
      </trkpt>
      <trkpt lat="45.88697" lon="4.20388">
        <ele>546.2</ele>
        <time>2022-03-07T14:15:47Z</time>
      </trkpt>
      <trkpt lat="45.88699" lon="4.20382">
        <ele>547.5</ele>
        <time>2022-03-07T14:15:52Z</time>
      </trkpt>
      <trkpt lat="45.88701" lon="4.20379">
        <ele>545.9</ele>
        <time>2022-03-07T14:15:57Z</time>
      </trkpt>
      <trkpt lat="45.88702" lon="4.20377">
        <ele>561.7</ele>
        <time>2022-03-07T14:16:02Z</time>
      </trkpt>
      <trkpt lat="45.88702" lon="4.20375">
        <ele>577.2</ele>
        <time>2022-03-07T14:16:08Z</time>
      </trkpt>
      <trkpt lat="45.88702" lon="4.20376">
        <ele>546.9</ele>
        <time>2022-03-07T14:16:13Z</time>
      </trkpt>
      <trkpt lat="45.88701" lon="4.20376">
        <ele>545.3</ele>
        <time>2022-03-07T14:16:18Z</time>
      </trkpt>
      <trkpt lat="45.88701" lon="4.20375">
        <ele>546.1</ele>
        <time>2022-03-07T14:16:23Z</time>
      </trkpt>
      <trkpt lat="45.88702" lon="4.20373">
        <ele>547.6</ele>
        <time>2022-03-07T14:16:29Z</time>
      </trkpt>
      <trkpt lat="45.88702" lon="4.20373">
        <ele>563.1</ele>
        <time>2022-03-07T14:16:35Z</time>
      </trkpt>
      <trkpt lat="45.88701" lon="4.20369">
        <ele>546.9</ele>
        <time>2022-03-07T14:16:40Z</time>
      </trkpt>
      <trkpt lat="45.88702" lon="4.20363">
        <ele>548.1</ele>
        <time>2022-03-07T14:16:45Z</time>
      </trkpt>
      <trkpt lat="45.88703" lon="4.2036">
        <ele>566.9</ele>
        <time>2022-03-07T14:16:50Z</time>
      </trkpt>
      <trkpt lat="45.88703" lon="4.20357">
        <ele>574</ele>
        <time>2022-03-07T14:16:56Z</time>
      </trkpt>
      <trkpt lat="45.88703" lon="4.20355">
        <ele>577.5</ele>
        <time>2022-03-07T14:17:01Z</time>
      </trkpt>
      <trkpt lat="45.88702" lon="4.20353">
        <ele>580.7</ele>
        <time>2022-03-07T14:17:07Z</time>
      </trkpt>
      <trkpt lat="45.88703" lon="4.2035">
        <ele>579</ele>
        <time>2022-03-07T14:17:12Z</time>
      </trkpt>
      <trkpt lat="45.88704" lon="4.20349">
        <ele>567</ele>
        <time>2022-03-07T14:17:18Z</time>
      </trkpt>
      <trkpt lat="45.88705" lon="4.20347">
        <ele>559.4</ele>
        <time>2022-03-07T14:17:23Z</time>
      </trkpt>
      <trkpt lat="45.88707" lon="4.2034">
        <ele>554.4</ele>
        <time>2022-03-07T14:17:29Z</time>
      </trkpt>
      <trkpt lat="45.88707" lon="4.2034">
        <ele>573.1</ele>
        <time>2022-03-07T14:17:35Z</time>
      </trkpt>
      <trkpt lat="45.88708" lon="4.20335">
        <ele>554.8</ele>
        <time>2022-03-07T14:17:40Z</time>
      </trkpt>
      <trkpt lat="45.8871" lon="4.20328">
        <ele>555.1</ele>
        <time>2022-03-07T14:17:45Z</time>
      </trkpt>
      <trkpt lat="45.88713" lon="4.20322">
        <ele>558</ele>
        <time>2022-03-07T14:17:50Z</time>
      </trkpt>
      <trkpt lat="45.88715" lon="4.20315">
        <ele>553.7</ele>
        <time>2022-03-07T14:17:56Z</time>
      </trkpt>
      <trkpt lat="45.88717" lon="4.20309">
        <ele>557.8</ele>
        <time>2022-03-07T14:18:01Z</time>
      </trkpt>
      <trkpt lat="45.88716" lon="4.20304">
        <ele>559.3</ele>
        <time>2022-03-07T14:18:07Z</time>
      </trkpt>
      <trkpt lat="45.88718" lon="4.20299">
        <ele>583.1</ele>
        <time>2022-03-07T14:18:12Z</time>
      </trkpt>
      <trkpt lat="45.88722" lon="4.20293">
        <ele>561.3</ele>
        <time>2022-03-07T14:18:17Z</time>
      </trkpt>
      <trkpt lat="45.88726" lon="4.20288">
        <ele>571.4</ele>
        <time>2022-03-07T14:18:23Z</time>
      </trkpt>
      <trkpt lat="45.88729" lon="4.20282">
        <ele>557.3</ele>
        <time>2022-03-07T14:18:28Z</time>
      </trkpt>
      <trkpt lat="45.88731" lon="4.20276">
        <ele>575.1</ele>
        <time>2022-03-07T14:18:33Z</time>
      </trkpt>
      <trkpt lat="45.88733" lon="4.20269">
        <ele>586.6</ele>
        <time>2022-03-07T14:18:39Z</time>
      </trkpt>
      <trkpt lat="45.88734" lon="4.20263">
        <ele>591.2</ele>
        <time>2022-03-07T14:18:44Z</time>
      </trkpt>
      <trkpt lat="45.88735" lon="4.20257">
        <ele>569.3</ele>
        <time>2022-03-07T14:18:49Z</time>
      </trkpt>
      <trkpt lat="45.88737" lon="4.20251">
        <ele>572.6</ele>
        <time>2022-03-07T14:18:55Z</time>
      </trkpt>
      <trkpt lat="45.88739" lon="4.20245">
        <ele>574.1</ele>
        <time>2022-03-07T14:19:00Z</time>
      </trkpt>
      <trkpt lat="45.8874" lon="4.2024">
        <ele>583.9</ele>
        <time>2022-03-07T14:19:05Z</time>
      </trkpt>
      <trkpt lat="45.88742" lon="4.20234">
        <ele>567.3</ele>
        <time>2022-03-07T14:19:10Z</time>
      </trkpt>
      <trkpt lat="45.88744" lon="4.20228">
        <ele>573</ele>
        <time>2022-03-07T14:19:16Z</time>
      </trkpt>
      <trkpt lat="45.88746" lon="4.20223">
        <ele>595.4</ele>
        <time>2022-03-07T14:19:22Z</time>
      </trkpt>
      <trkpt lat="45.88749" lon="4.20219">
        <ele>565.4</ele>
        <time>2022-03-07T14:19:27Z</time>
      </trkpt>
      <trkpt lat="45.88751" lon="4.20215">
        <ele>586.4</ele>
        <time>2022-03-07T14:19:33Z</time>
      </trkpt>
      <trkpt lat="45.88755" lon="4.20211">
        <ele>576.2</ele>
        <time>2022-03-07T14:19:38Z</time>
      </trkpt>
      <trkpt lat="45.88758" lon="4.20206">
        <ele>591.5</ele>
        <time>2022-03-07T14:19:43Z</time>
      </trkpt>
      <trkpt lat="45.88761" lon="4.20199">
        <ele>597.9</ele>
        <time>2022-03-07T14:19:48Z</time>
      </trkpt>
      <trkpt lat="45.88763" lon="4.20194">
        <ele>595.7</ele>
        <time>2022-03-07T14:19:54Z</time>
      </trkpt>
      <trkpt lat="45.88766" lon="4.20188">
        <ele>577.3</ele>
        <time>2022-03-07T14:19:59Z</time>
      </trkpt>
      <trkpt lat="45.88767" lon="4.20181">
        <ele>598.1</ele>
        <time>2022-03-07T14:20:04Z</time>
      </trkpt>
      <trkpt lat="45.88769" lon="4.20173">
        <ele>572.9</ele>
        <time>2022-03-07T14:20:10Z</time>
      </trkpt>
      <trkpt lat="45.88769" lon="4.20163">
        <ele>577</ele>
        <time>2022-03-07T14:20:15Z</time>
      </trkpt>
      <trkpt lat="45.88773" lon="4.20157">
        <ele>604.4</ele>
        <time>2022-03-07T14:20:20Z</time>
      </trkpt>
      <trkpt lat="45.88778" lon="4.20155">
        <ele>601.9</ele>
        <time>2022-03-07T14:20:26Z</time>
      </trkpt>
      <trkpt lat="45.88783" lon="4.20151">
        <ele>604.6</ele>
        <time>2022-03-07T14:20:31Z</time>
      </trkpt>
      <trkpt lat="45.88784" lon="4.20145">
        <ele>592.8</ele>
        <time>2022-03-07T14:20:37Z</time>
      </trkpt>
      <trkpt lat="45.88785" lon="4.20138">
        <ele>588.5</ele>
        <time>2022-03-07T14:20:42Z</time>
      </trkpt>
      <trkpt lat="45.88786" lon="4.20132">
        <ele>599.5</ele>
        <time>2022-03-07T14:20:48Z</time>
      </trkpt>
      <trkpt lat="45.88788" lon="4.20127">
        <ele>605.8</ele>
        <time>2022-03-07T14:20:53Z</time>
      </trkpt>
      <trkpt lat="45.88792" lon="4.20122">
        <ele>596</ele>
        <time>2022-03-07T14:20:59Z</time>
      </trkpt>
      <trkpt lat="45.88793" lon="4.20118">
        <ele>613</ele>
        <time>2022-03-07T14:21:04Z</time>
      </trkpt>
      <trkpt lat="45.88793" lon="4.20113">
        <ele>590</ele>
        <time>2022-03-07T14:21:09Z</time>
      </trkpt>
      <trkpt lat="45.88794" lon="4.20107">
        <ele>586.3</ele>
        <time>2022-03-07T14:21:15Z</time>
      </trkpt>
      <trkpt lat="45.88793" lon="4.20104">
        <ele>577.7</ele>
        <time>2022-03-07T14:21:21Z</time>
      </trkpt>
      <trkpt lat="45.88794" lon="4.20103">
        <ele>569.4</ele>
        <time>2022-03-07T14:21:26Z</time>
      </trkpt>
      <trkpt lat="45.88796" lon="4.20098">
        <ele>587.9</ele>
        <time>2022-03-07T14:21:31Z</time>
      </trkpt>
      <trkpt lat="45.88798" lon="4.20091">
        <ele>585.9</ele>
        <time>2022-03-07T14:21:36Z</time>
      </trkpt>
      <trkpt lat="45.88798" lon="4.20085">
        <ele>574.4</ele>
        <time>2022-03-07T14:21:41Z</time>
      </trkpt>
      <trkpt lat="45.88799" lon="4.20079">
        <ele>573.9</ele>
        <time>2022-03-07T14:21:46Z</time>
      </trkpt>
      <trkpt lat="45.88801" lon="4.20075">
        <ele>577.3</ele>
        <time>2022-03-07T14:21:52Z</time>
      </trkpt>
      <trkpt lat="45.88802" lon="4.2007">
        <ele>574.2</ele>
        <time>2022-03-07T14:21:57Z</time>
      </trkpt>
      <trkpt lat="45.88803" lon="4.20065">
        <ele>606.9</ele>
        <time>2022-03-07T14:22:02Z</time>
      </trkpt>
      <trkpt lat="45.88803" lon="4.20063">
        <ele>603.5</ele>
        <time>2022-03-07T14:22:07Z</time>
      </trkpt>
      <trkpt lat="45.88805" lon="4.20061">
        <ele>598.7</ele>
        <time>2022-03-07T14:22:13Z</time>
      </trkpt>
      <trkpt lat="45.88807" lon="4.20059">
        <ele>599.2</ele>
        <time>2022-03-07T14:22:19Z</time>
      </trkpt>
      <trkpt lat="45.88808" lon="4.20056">
        <ele>586.2</ele>
        <time>2022-03-07T14:22:24Z</time>
      </trkpt>
      <trkpt lat="45.88809" lon="4.20052">
        <ele>601.2</ele>
        <time>2022-03-07T14:22:29Z</time>
      </trkpt>
      <trkpt lat="45.88807" lon="4.20045">
        <ele>591.4</ele>
        <time>2022-03-07T14:22:35Z</time>
      </trkpt>
      <trkpt lat="45.88802" lon="4.20041">
        <ele>597.1</ele>
        <time>2022-03-07T14:22:40Z</time>
      </trkpt>
      <trkpt lat="45.88798" lon="4.20039">
        <ele>595</ele>
        <time>2022-03-07T14:22:45Z</time>
      </trkpt>
      <trkpt lat="45.88795" lon="4.20035">
        <ele>591.9</ele>
        <time>2022-03-07T14:22:50Z</time>
      </trkpt>
      <trkpt lat="45.88795" lon="4.20029">
        <ele>611.8</ele>
        <time>2022-03-07T14:22:56Z</time>
      </trkpt>
      <trkpt lat="45.88795" lon="4.20023">
        <ele>611.8</ele>
        <time>2022-03-07T14:23:01Z</time>
      </trkpt>
      <trkpt lat="45.88794" lon="4.20017">
        <ele>589.4</ele>
        <time>2022-03-07T14:23:06Z</time>
      </trkpt>
      <trkpt lat="45.88792" lon="4.20011">
        <ele>593.1</ele>
        <time>2022-03-07T14:23:11Z</time>
      </trkpt>
      <trkpt lat="45.88791" lon="4.20005">
        <ele>590.5</ele>
        <time>2022-03-07T14:23:16Z</time>
      </trkpt>
      <trkpt lat="45.8879" lon="4.2">
        <ele>586.3</ele>
        <time>2022-03-07T14:23:22Z</time>
      </trkpt>
      <trkpt lat="45.88787" lon="4.19994">
        <ele>607.7</ele>
        <time>2022-03-07T14:23:27Z</time>
      </trkpt>
      <trkpt lat="45.88784" lon="4.1999">
        <ele>590</ele>
        <time>2022-03-07T14:23:32Z</time>
      </trkpt>
      <trkpt lat="45.88781" lon="4.19985">
        <ele>591.2</ele>
        <time>2022-03-07T14:23:37Z</time>
      </trkpt>
      <trkpt lat="45.8878" lon="4.19979">
        <ele>593.8</ele>
        <time>2022-03-07T14:23:43Z</time>
      </trkpt>
      <trkpt lat="45.88777" lon="4.19973">
        <ele>600.6</ele>
        <time>2022-03-07T14:23:48Z</time>
      </trkpt>
      <trkpt lat="45.88774" lon="4.19967">
        <ele>612.9</ele>
        <time>2022-03-07T14:23:53Z</time>
      </trkpt>
      <trkpt lat="45.88773" lon="4.19963">
        <ele>622</ele>
        <time>2022-03-07T14:23:58Z</time>
      </trkpt>
      <trkpt lat="45.88772" lon="4.19957">
        <ele>615.5</ele>
        <time>2022-03-07T14:24:04Z</time>
      </trkpt>
      <trkpt lat="45.88773" lon="4.19955">
        <ele>600.7</ele>
        <time>2022-03-07T14:24:09Z</time>
      </trkpt>
      <trkpt lat="45.88773" lon="4.19954">
        <ele>581.5</ele>
        <time>2022-03-07T14:24:15Z</time>
      </trkpt>
      <trkpt lat="45.88769" lon="4.19949">
        <ele>593.5</ele>
        <time>2022-03-07T14:24:20Z</time>
      </trkpt>
      <trkpt lat="45.88767" lon="4.1994">
        <ele>603.4</ele>
        <time>2022-03-07T14:24:25Z</time>
      </trkpt>
      <trkpt lat="45.8876" lon="4.19934">
        <ele>585.3</ele>
        <time>2022-03-07T14:24:31Z</time>
      </trkpt>
      <trkpt lat="45.88755" lon="4.19927">
        <ele>605.8</ele>
        <time>2022-03-07T14:24:36Z</time>
      </trkpt>
      <trkpt lat="45.88751" lon="4.19919">
        <ele>591.7</ele>
        <time>2022-03-07T14:24:41Z</time>
      </trkpt>
      <trkpt lat="45.88752" lon="4.19913">
        <ele>604.3</ele>
        <time>2022-03-07T14:24:46Z</time>
      </trkpt>
      <trkpt lat="45.88751" lon="4.19907">
        <ele>602.8</ele>
        <time>2022-03-07T14:24:52Z</time>
      </trkpt>
      <trkpt lat="45.88747" lon="4.19898">
        <ele>590.5</ele>
        <time>2022-03-07T14:24:57Z</time>
      </trkpt>
      <trkpt lat="45.88746" lon="4.1989">
        <ele>598.4</ele>
        <time>2022-03-07T14:25:02Z</time>
      </trkpt>
      <trkpt lat="45.88749" lon="4.19889">
        <ele>593.8</ele>
        <time>2022-03-07T14:25:07Z</time>
      </trkpt>
      <trkpt lat="45.8875" lon="4.1989">
        <ele>578.6</ele>
        <time>2022-03-07T14:25:13Z</time>
      </trkpt>
      <trkpt lat="45.8875" lon="4.1989">
        <ele>574.7</ele>
        <time>2022-03-07T14:25:19Z</time>
      </trkpt>
      <trkpt lat="45.88748" lon="4.19886">
        <ele>579.2</ele>
        <time>2022-03-07T14:25:24Z</time>
      </trkpt>
      <trkpt lat="45.88744" lon="4.19881">
        <ele>586.4</ele>
        <time>2022-03-07T14:25:30Z</time>
      </trkpt>
      <trkpt lat="45.88742" lon="4.19875">
        <ele>595.9</ele>
        <time>2022-03-07T14:25:35Z</time>
      </trkpt>
      <trkpt lat="45.88744" lon="4.19873">
        <ele>600.7</ele>
        <time>2022-03-07T14:25:40Z</time>
      </trkpt>
      <trkpt lat="45.88743" lon="4.19869">
        <ele>601</ele>
        <time>2022-03-07T14:25:45Z</time>
      </trkpt>
      <trkpt lat="45.88741" lon="4.1986">
        <ele>608.9</ele>
        <time>2022-03-07T14:25:51Z</time>
      </trkpt>
      <trkpt lat="45.8874" lon="4.19851">
        <ele>590.5</ele>
        <time>2022-03-07T14:25:56Z</time>
      </trkpt>
      <trkpt lat="45.8874" lon="4.19843">
        <ele>606.3</ele>
        <time>2022-03-07T14:26:01Z</time>
      </trkpt>
      <trkpt lat="45.8874" lon="4.19835">
        <ele>613.5</ele>
        <time>2022-03-07T14:26:06Z</time>
      </trkpt>
      <trkpt lat="45.88739" lon="4.19827">
        <ele>630.6</ele>
        <time>2022-03-07T14:26:12Z</time>
      </trkpt>
      <trkpt lat="45.88737" lon="4.1982">
        <ele>620.5</ele>
        <time>2022-03-07T14:26:17Z</time>
      </trkpt>
      <trkpt lat="45.88734" lon="4.19813">
        <ele>640.3</ele>
        <time>2022-03-07T14:26:22Z</time>
      </trkpt>
      <trkpt lat="45.8873" lon="4.19806">
        <ele>645.8</ele>
        <time>2022-03-07T14:26:27Z</time>
      </trkpt>
      <trkpt lat="45.88726" lon="4.19799">
        <ele>642.6</ele>
        <time>2022-03-07T14:26:32Z</time>
      </trkpt>
      <trkpt lat="45.88724" lon="4.19793">
        <ele>643.9</ele>
        <time>2022-03-07T14:26:37Z</time>
      </trkpt>
      <trkpt lat="45.88722" lon="4.19786">
        <ele>647</ele>
        <time>2022-03-07T14:26:42Z</time>
      </trkpt>
      <trkpt lat="45.88723" lon="4.19779">
        <ele>624.4</ele>
        <time>2022-03-07T14:26:48Z</time>
      </trkpt>
      <trkpt lat="45.88718" lon="4.19774">
        <ele>585.6</ele>
        <time>2022-03-07T14:26:53Z</time>
      </trkpt>
      <trkpt lat="45.88716" lon="4.19764">
        <ele>601.1</ele>
        <time>2022-03-07T14:26:58Z</time>
      </trkpt>
      <trkpt lat="45.88716" lon="4.19753">
        <ele>594.3</ele>
        <time>2022-03-07T14:27:03Z</time>
      </trkpt>
      <trkpt lat="45.88714" lon="4.19744">
        <ele>584.5</ele>
        <time>2022-03-07T14:27:09Z</time>
      </trkpt>
      <trkpt lat="45.88712" lon="4.19735">
        <ele>595.7</ele>
        <time>2022-03-07T14:27:14Z</time>
      </trkpt>
      <trkpt lat="45.88708" lon="4.19727">
        <ele>591.4</ele>
        <time>2022-03-07T14:27:19Z</time>
      </trkpt>
      <trkpt lat="45.88704" lon="4.1972">
        <ele>592.8</ele>
        <time>2022-03-07T14:27:24Z</time>
      </trkpt>
      <trkpt lat="45.88699" lon="4.19715">
        <ele>612.9</ele>
        <time>2022-03-07T14:27:29Z</time>
      </trkpt>
      <trkpt lat="45.88693" lon="4.19714">
        <ele>614.2</ele>
        <time>2022-03-07T14:27:35Z</time>
      </trkpt>
      <trkpt lat="45.88688" lon="4.19713">
        <ele>591.7</ele>
        <time>2022-03-07T14:27:40Z</time>
      </trkpt>
      <trkpt lat="45.88684" lon="4.19711">
        <ele>556.1</ele>
        <time>2022-03-07T14:27:45Z</time>
      </trkpt>
      <trkpt lat="45.88677" lon="4.19711">
        <ele>557.5</ele>
        <time>2022-03-07T14:27:51Z</time>
      </trkpt>
      <trkpt lat="45.8867" lon="4.19711">
        <ele>559.4</ele>
        <time>2022-03-07T14:27:56Z</time>
      </trkpt>
      <trkpt lat="45.88664" lon="4.19709">
        <ele>560.4</ele>
        <time>2022-03-07T14:28:01Z</time>
      </trkpt>
      <trkpt lat="45.88661" lon="4.19708">
        <ele>559.6</ele>
        <time>2022-03-07T14:28:07Z</time>
      </trkpt>
      <trkpt lat="45.88664" lon="4.1971">
        <ele>560.3</ele>
        <time>2022-03-07T14:28:12Z</time>
      </trkpt>
      <trkpt lat="45.88668" lon="4.1971">
        <ele>560.7</ele>
        <time>2022-03-07T14:28:17Z</time>
      </trkpt>
      <trkpt lat="45.88664" lon="4.19704">
        <ele>575.2</ele>
        <time>2022-03-07T14:28:23Z</time>
      </trkpt>
      <trkpt lat="45.88657" lon="4.19702">
        <ele>574.9</ele>
        <time>2022-03-07T14:28:28Z</time>
      </trkpt>
      <trkpt lat="45.88649" lon="4.19701">
        <ele>574.8</ele>
        <time>2022-03-07T14:28:33Z</time>
      </trkpt>
      <trkpt lat="45.88642" lon="4.19702">
        <ele>574.7</ele>
        <time>2022-03-07T14:28:38Z</time>
      </trkpt>
      <trkpt lat="45.88636" lon="4.19699">
        <ele>575.1</ele>
        <time>2022-03-07T14:28:43Z</time>
      </trkpt>
      <trkpt lat="45.88631" lon="4.19696">
        <ele>561.9</ele>
        <time>2022-03-07T14:28:48Z</time>
      </trkpt>
      <trkpt lat="45.88625" lon="4.19693">
        <ele>562.1</ele>
        <time>2022-03-07T14:28:54Z</time>
      </trkpt>
      <trkpt lat="45.88618" lon="4.19692">
        <ele>561.5</ele>
        <time>2022-03-07T14:28:59Z</time>
      </trkpt>
      <trkpt lat="45.88613" lon="4.19692">
        <ele>560.8</ele>
        <time>2022-03-07T14:29:04Z</time>
      </trkpt>
      <trkpt lat="45.88606" lon="4.19691">
        <ele>561.1</ele>
        <time>2022-03-07T14:29:10Z</time>
      </trkpt>
      <trkpt lat="45.88602" lon="4.19688">
        <ele>561.7</ele>
        <time>2022-03-07T14:29:15Z</time>
      </trkpt>
      <trkpt lat="45.88602" lon="4.19685">
        <ele>575.6</ele>
        <time>2022-03-07T14:29:21Z</time>
      </trkpt>
      <trkpt lat="45.88603" lon="4.19687">
        <ele>561.9</ele>
        <time>2022-03-07T14:29:27Z</time>
      </trkpt>
      <trkpt lat="45.88602" lon="4.19687">
        <ele>561.6</ele>
        <time>2022-03-07T14:29:32Z</time>
      </trkpt>
      <trkpt lat="45.88595" lon="4.19686">
        <ele>562.2</ele>
        <time>2022-03-07T14:29:38Z</time>
      </trkpt>
      <trkpt lat="45.88587" lon="4.19683">
        <ele>561.9</ele>
        <time>2022-03-07T14:29:43Z</time>
      </trkpt>
      <trkpt lat="45.88579" lon="4.1968">
        <ele>575.3</ele>
        <time>2022-03-07T14:29:48Z</time>
      </trkpt>
      <trkpt lat="45.88573" lon="4.19677">
        <ele>575</ele>
        <time>2022-03-07T14:29:54Z</time>
      </trkpt>
      <trkpt lat="45.88566" lon="4.19676">
        <ele>575.7</ele>
        <time>2022-03-07T14:29:59Z</time>
      </trkpt>
      <trkpt lat="45.8856" lon="4.19672">
        <ele>576</ele>
        <time>2022-03-07T14:30:04Z</time>
      </trkpt>
      <trkpt lat="45.88554" lon="4.19669">
        <ele>576.4</ele>
        <time>2022-03-07T14:30:10Z</time>
      </trkpt>
      <trkpt lat="45.88548" lon="4.19667">
        <ele>562.7</ele>
        <time>2022-03-07T14:30:15Z</time>
      </trkpt>
      <trkpt lat="45.88543" lon="4.19666">
        <ele>565.7</ele>
        <time>2022-03-07T14:30:20Z</time>
      </trkpt>
      <trkpt lat="45.88536" lon="4.19663">
        <ele>562.6</ele>
        <time>2022-03-07T14:30:26Z</time>
      </trkpt>
      <trkpt lat="45.88529" lon="4.19662">
        <ele>562.7</ele>
        <time>2022-03-07T14:30:32Z</time>
      </trkpt>
      <trkpt lat="45.88522" lon="4.19662">
        <ele>576.2</ele>
        <time>2022-03-07T14:30:37Z</time>
      </trkpt>
      <trkpt lat="45.88515" lon="4.19662">
        <ele>576.6</ele>
        <time>2022-03-07T14:30:43Z</time>
      </trkpt>
      <trkpt lat="45.88509" lon="4.1966">
        <ele>568.5</ele>
        <time>2022-03-07T14:30:48Z</time>
      </trkpt>
      <trkpt lat="45.88502" lon="4.19657">
        <ele>578.2</ele>
        <time>2022-03-07T14:30:53Z</time>
      </trkpt>
      <trkpt lat="45.88496" lon="4.19653">
        <ele>574.2</ele>
        <time>2022-03-07T14:30:58Z</time>
      </trkpt>
      <trkpt lat="45.8849" lon="4.19652">
        <ele>567.3</ele>
        <time>2022-03-07T14:31:03Z</time>
      </trkpt>
      <trkpt lat="45.88484" lon="4.19651">
        <ele>568.6</ele>
        <time>2022-03-07T14:31:08Z</time>
      </trkpt>
      <trkpt lat="45.88479" lon="4.1965">
        <ele>567.5</ele>
        <time>2022-03-07T14:31:14Z</time>
      </trkpt>
      <trkpt lat="45.88474" lon="4.19649">
        <ele>585.6</ele>
        <time>2022-03-07T14:31:19Z</time>
      </trkpt>
      <trkpt lat="45.88468" lon="4.19649">
        <ele>570.2</ele>
        <time>2022-03-07T14:31:24Z</time>
      </trkpt>
      <trkpt lat="45.88463" lon="4.19648">
        <ele>571.4</ele>
        <time>2022-03-07T14:31:29Z</time>
      </trkpt>
      <trkpt lat="45.88458" lon="4.19645">
        <ele>589.9</ele>
        <time>2022-03-07T14:31:34Z</time>
      </trkpt>
      <trkpt lat="45.88451" lon="4.19643">
        <ele>576.7</ele>
        <time>2022-03-07T14:31:40Z</time>
      </trkpt>
      <trkpt lat="45.88445" lon="4.19641">
        <ele>578.3</ele>
        <time>2022-03-07T14:31:45Z</time>
      </trkpt>
      <trkpt lat="45.88439" lon="4.1964">
        <ele>573.1</ele>
        <time>2022-03-07T14:31:51Z</time>
      </trkpt>
      <trkpt lat="45.88433" lon="4.19639">
        <ele>594.7</ele>
        <time>2022-03-07T14:31:56Z</time>
      </trkpt>
      <trkpt lat="45.88428" lon="4.19638">
        <ele>570.1</ele>
        <time>2022-03-07T14:32:01Z</time>
      </trkpt>
      <trkpt lat="45.88422" lon="4.19637">
        <ele>569.4</ele>
        <time>2022-03-07T14:32:07Z</time>
      </trkpt>
      <trkpt lat="45.88417" lon="4.19635">
        <ele>568.4</ele>
        <time>2022-03-07T14:32:12Z</time>
      </trkpt>
      <trkpt lat="45.88412" lon="4.19631">
        <ele>568.8</ele>
        <time>2022-03-07T14:32:18Z</time>
      </trkpt>
      <trkpt lat="45.88407" lon="4.19632">
        <ele>587.9</ele>
        <time>2022-03-07T14:32:23Z</time>
      </trkpt>
      <trkpt lat="45.88402" lon="4.19633">
        <ele>591.1</ele>
        <time>2022-03-07T14:32:29Z</time>
      </trkpt>
      <trkpt lat="45.88396" lon="4.19628">
        <ele>596.3</ele>
        <time>2022-03-07T14:32:34Z</time>
      </trkpt>
      <trkpt lat="45.8839" lon="4.19626">
        <ele>579.8</ele>
        <time>2022-03-07T14:32:39Z</time>
      </trkpt>
      <trkpt lat="45.88386" lon="4.19623">
        <ele>586.7</ele>
        <time>2022-03-07T14:32:45Z</time>
      </trkpt>
      <trkpt lat="45.8838" lon="4.1962">
        <ele>592.4</ele>
        <time>2022-03-07T14:32:50Z</time>
      </trkpt>
      <trkpt lat="45.88375" lon="4.19619">
        <ele>580.2</ele>
        <time>2022-03-07T14:32:56Z</time>
      </trkpt>
      <trkpt lat="45.88372" lon="4.19617">
        <ele>588.6</ele>
        <time>2022-03-07T14:33:01Z</time>
      </trkpt>
      <trkpt lat="45.88371" lon="4.19614">
        <ele>585.6</ele>
        <time>2022-03-07T14:33:06Z</time>
      </trkpt>
      <trkpt lat="45.88368" lon="4.19609">
        <ele>587.3</ele>
        <time>2022-03-07T14:33:12Z</time>
      </trkpt>
      <trkpt lat="45.88364" lon="4.19602">
        <ele>600.8</ele>
        <time>2022-03-07T14:33:17Z</time>
      </trkpt>
      <trkpt lat="45.8836" lon="4.19594">
        <ele>608.4</ele>
        <time>2022-03-07T14:33:22Z</time>
      </trkpt>
      <trkpt lat="45.88356" lon="4.19584">
        <ele>629.9</ele>
        <time>2022-03-07T14:33:28Z</time>
      </trkpt>
      <trkpt lat="45.88352" lon="4.19577">
        <ele>638.2</ele>
        <time>2022-03-07T14:33:33Z</time>
      </trkpt>
      <trkpt lat="45.88348" lon="4.19572">
        <ele>627.4</ele>
        <time>2022-03-07T14:33:38Z</time>
      </trkpt>
      <trkpt lat="45.88344" lon="4.19569">
        <ele>613.8</ele>
        <time>2022-03-07T14:33:43Z</time>
      </trkpt>
      <trkpt lat="45.88339" lon="4.1957">
        <ele>627</ele>
        <time>2022-03-07T14:33:49Z</time>
      </trkpt>
      <trkpt lat="45.88335" lon="4.19573">
        <ele>619</ele>
        <time>2022-03-07T14:33:54Z</time>
      </trkpt>
      <trkpt lat="45.88337" lon="4.19571">
        <ele>626.9</ele>
        <time>2022-03-07T14:34:00Z</time>
      </trkpt>
      <trkpt lat="45.88341" lon="4.19565">
        <ele>606.1</ele>
        <time>2022-03-07T14:34:05Z</time>
      </trkpt>
      <trkpt lat="45.88344" lon="4.19558">
        <ele>626.6</ele>
        <time>2022-03-07T14:34:10Z</time>
      </trkpt>
      <trkpt lat="45.88349" lon="4.19552">
        <ele>623.9</ele>
        <time>2022-03-07T14:34:15Z</time>
      </trkpt>
      <trkpt lat="45.88353" lon="4.19545">
        <ele>624</ele>
        <time>2022-03-07T14:34:20Z</time>
      </trkpt>
      <trkpt lat="45.88359" lon="4.19542">
        <ele>627.1</ele>
        <time>2022-03-07T14:34:26Z</time>
      </trkpt>
      <trkpt lat="45.88366" lon="4.19541">
        <ele>633.3</ele>
        <time>2022-03-07T14:34:31Z</time>
      </trkpt>
      <trkpt lat="45.88372" lon="4.19541">
        <ele>637.4</ele>
        <time>2022-03-07T14:34:36Z</time>
      </trkpt>
      <trkpt lat="45.88378" lon="4.19543">
        <ele>634.7</ele>
        <time>2022-03-07T14:34:41Z</time>
      </trkpt>
      <trkpt lat="45.88384" lon="4.1954">
        <ele>641.9</ele>
        <time>2022-03-07T14:34:47Z</time>
      </trkpt>
      <trkpt lat="45.88388" lon="4.19531">
        <ele>642.7</ele>
        <time>2022-03-07T14:34:52Z</time>
      </trkpt>
      <trkpt lat="45.88389" lon="4.19519">
        <ele>615.2</ele>
        <time>2022-03-07T14:34:57Z</time>
      </trkpt>
      <trkpt lat="45.88389" lon="4.19507">
        <ele>628.1</ele>
        <time>2022-03-07T14:35:02Z</time>
      </trkpt>
      <trkpt lat="45.88389" lon="4.19496">
        <ele>632.8</ele>
        <time>2022-03-07T14:35:08Z</time>
      </trkpt>
      <trkpt lat="45.88392" lon="4.19488">
        <ele>624.3</ele>
        <time>2022-03-07T14:35:13Z</time>
      </trkpt>
      <trkpt lat="45.88394" lon="4.19481">
        <ele>596.5</ele>
        <time>2022-03-07T14:35:18Z</time>
      </trkpt>
      <trkpt lat="45.88396" lon="4.19476">
        <ele>595.9</ele>
        <time>2022-03-07T14:35:24Z</time>
      </trkpt>
      <trkpt lat="45.88399" lon="4.19471">
        <ele>597.8</ele>
        <time>2022-03-07T14:35:29Z</time>
      </trkpt>
      <trkpt lat="45.88402" lon="4.19463">
        <ele>596.1</ele>
        <time>2022-03-07T14:35:34Z</time>
      </trkpt>
      <trkpt lat="45.88402" lon="4.19455">
        <ele>608.8</ele>
        <time>2022-03-07T14:35:39Z</time>
      </trkpt>
      <trkpt lat="45.88401" lon="4.19447">
        <ele>592</ele>
        <time>2022-03-07T14:35:44Z</time>
      </trkpt>
      <trkpt lat="45.88398" lon="4.19437">
        <ele>604.5</ele>
        <time>2022-03-07T14:35:50Z</time>
      </trkpt>
      <trkpt lat="45.88395" lon="4.19428">
        <ele>636.5</ele>
        <time>2022-03-07T14:35:56Z</time>
      </trkpt>
      <trkpt lat="45.88392" lon="4.19421">
        <ele>630.2</ele>
        <time>2022-03-07T14:36:01Z</time>
      </trkpt>
      <trkpt lat="45.88389" lon="4.19414">
        <ele>642.4</ele>
        <time>2022-03-07T14:36:06Z</time>
      </trkpt>
      <trkpt lat="45.88386" lon="4.19404">
        <ele>632.1</ele>
        <time>2022-03-07T14:36:12Z</time>
      </trkpt>
      <trkpt lat="45.88384" lon="4.19396">
        <ele>638.4</ele>
        <time>2022-03-07T14:36:17Z</time>
      </trkpt>
      <trkpt lat="45.88382" lon="4.19388">
        <ele>648</ele>
        <time>2022-03-07T14:36:23Z</time>
      </trkpt>
      <trkpt lat="45.88381" lon="4.1938">
        <ele>646.5</ele>
        <time>2022-03-07T14:36:28Z</time>
      </trkpt>
      <trkpt lat="45.88383" lon="4.19371">
        <ele>640.5</ele>
        <time>2022-03-07T14:36:33Z</time>
      </trkpt>
      <trkpt lat="45.88389" lon="4.19364">
        <ele>635.9</ele>
        <time>2022-03-07T14:36:38Z</time>
      </trkpt>
      <trkpt lat="45.88395" lon="4.19363">
        <ele>632.3</ele>
        <time>2022-03-07T14:36:43Z</time>
      </trkpt>
      <trkpt lat="45.88399" lon="4.19361">
        <ele>619.3</ele>
        <time>2022-03-07T14:36:49Z</time>
      </trkpt>
      <trkpt lat="45.88398" lon="4.19367">
        <ele>615.1</ele>
        <time>2022-03-07T14:36:55Z</time>
      </trkpt>
      <trkpt lat="45.88395" lon="4.19367">
        <ele>617.6</ele>
        <time>2022-03-07T14:37:01Z</time>
      </trkpt>
      <trkpt lat="45.88392" lon="4.19366">
        <ele>591.6</ele>
        <time>2022-03-07T14:37:06Z</time>
      </trkpt>
      <trkpt lat="45.88393" lon="4.19366">
        <ele>590.7</ele>
        <time>2022-03-07T14:37:11Z</time>
      </trkpt>
      <trkpt lat="45.88393" lon="4.19367">
        <ele>570.1</ele>
        <time>2022-03-07T14:37:16Z</time>
      </trkpt>
      <trkpt lat="45.88391" lon="4.19367">
        <ele>595.6</ele>
        <time>2022-03-07T14:37:21Z</time>
      </trkpt>
      <trkpt lat="45.88391" lon="4.19369">
        <ele>562.5</ele>
        <time>2022-03-07T14:37:27Z</time>
      </trkpt>
      <trkpt lat="45.8839" lon="4.19369">
        <ele>552.3</ele>
        <time>2022-03-07T14:37:32Z</time>
      </trkpt>
      <trkpt lat="45.8839" lon="4.19369">
        <ele>575.3</ele>
        <time>2022-03-07T14:37:38Z</time>
      </trkpt>
      <trkpt lat="45.8839" lon="4.19368">
        <ele>558.8</ele>
        <time>2022-03-07T14:37:43Z</time>
      </trkpt>
      <trkpt lat="45.8839" lon="4.19368">
        <ele>559.7</ele>
        <time>2022-03-07T14:37:48Z</time>
      </trkpt>
      <trkpt lat="45.8839" lon="4.19368">
        <ele>556.2</ele>
        <time>2022-03-07T14:37:54Z</time>
      </trkpt>
      <trkpt lat="45.8839" lon="4.19367">
        <ele>551</ele>
        <time>2022-03-07T14:38:00Z</time>
      </trkpt>
      <trkpt lat="45.88389" lon="4.19367">
        <ele>549.6</ele>
        <time>2022-03-07T14:38:06Z</time>
      </trkpt>
      <trkpt lat="45.88389" lon="4.19368">
        <ele>551.5</ele>
        <time>2022-03-07T14:38:12Z</time>
      </trkpt>
      <trkpt lat="45.88389" lon="4.19368">
        <ele>549.4</ele>
        <time>2022-03-07T14:38:17Z</time>
      </trkpt>
      <trkpt lat="45.8839" lon="4.19369">
        <ele>561.4</ele>
        <time>2022-03-07T14:38:23Z</time>
      </trkpt>
      <trkpt lat="45.88391" lon="4.1937">
        <ele>562.8</ele>
        <time>2022-03-07T14:38:28Z</time>
      </trkpt>
      <trkpt lat="45.8839" lon="4.1937">
        <ele>578.2</ele>
        <time>2022-03-07T14:38:34Z</time>
      </trkpt>
      <trkpt lat="45.8839" lon="4.19371">
        <ele>571.4</ele>
        <time>2022-03-07T14:38:39Z</time>
      </trkpt>
      <trkpt lat="45.8839" lon="4.19372">
        <ele>566.2</ele>
        <time>2022-03-07T14:38:45Z</time>
      </trkpt>
      <trkpt lat="45.8839" lon="4.19372">
        <ele>546.1</ele>
        <time>2022-03-07T14:38:50Z</time>
      </trkpt>
      <trkpt lat="45.8839" lon="4.19373">
        <ele>546.1</ele>
        <time>2022-03-07T14:38:56Z</time>
      </trkpt>
      <trkpt lat="45.8839" lon="4.19372">
        <ele>548.4</ele>
        <time>2022-03-07T14:39:02Z</time>
      </trkpt>
      <trkpt lat="45.8839" lon="4.19372">
        <ele>552</ele>
        <time>2022-03-07T14:39:07Z</time>
      </trkpt>
      <trkpt lat="45.8839" lon="4.19372">
        <ele>546.1</ele>
        <time>2022-03-07T14:39:13Z</time>
      </trkpt>
      <trkpt lat="45.88389" lon="4.19371">
        <ele>545.2</ele>
        <time>2022-03-07T14:39:19Z</time>
      </trkpt>
      <trkpt lat="45.88388" lon="4.19371">
        <ele>560.9</ele>
        <time>2022-03-07T14:39:25Z</time>
      </trkpt>
      <trkpt lat="45.88389" lon="4.1937">
        <ele>555.1</ele>
        <time>2022-03-07T14:39:31Z</time>
      </trkpt>
      <trkpt lat="45.88389" lon="4.1937">
        <ele>568.4</ele>
        <time>2022-03-07T14:39:36Z</time>
      </trkpt>
      <trkpt lat="45.8839" lon="4.19369">
        <ele>599.5</ele>
        <time>2022-03-07T14:39:41Z</time>
      </trkpt>
      <trkpt lat="45.88391" lon="4.19369">
        <ele>567.2</ele>
        <time>2022-03-07T14:39:47Z</time>
      </trkpt>
      <trkpt lat="45.88391" lon="4.19369">
        <ele>584.5</ele>
        <time>2022-03-07T14:39:52Z</time>
      </trkpt>
      <trkpt lat="45.88391" lon="4.19368">
        <ele>558.4</ele>
        <time>2022-03-07T14:39:58Z</time>
      </trkpt>
      <trkpt lat="45.8839" lon="4.19366">
        <ele>551.7</ele>
        <time>2022-03-07T14:40:03Z</time>
      </trkpt>
      <trkpt lat="45.88391" lon="4.19365">
        <ele>580.2</ele>
        <time>2022-03-07T14:40:08Z</time>
      </trkpt>
      <trkpt lat="45.8839" lon="4.19364">
        <ele>567.5</ele>
        <time>2022-03-07T14:40:14Z</time>
      </trkpt>
      <trkpt lat="45.8839" lon="4.19363">
        <ele>583.2</ele>
        <time>2022-03-07T14:40:19Z</time>
      </trkpt>
      <trkpt lat="45.8839" lon="4.19362">
        <ele>589.9</ele>
        <time>2022-03-07T14:40:25Z</time>
      </trkpt>
      <trkpt lat="45.88389" lon="4.19363">
        <ele>571</ele>
        <time>2022-03-07T14:40:30Z</time>
      </trkpt>
      <trkpt lat="45.88388" lon="4.19365">
        <ele>567.7</ele>
        <time>2022-03-07T14:40:35Z</time>
      </trkpt>
      <trkpt lat="45.88388" lon="4.19366">
        <ele>564.1</ele>
        <time>2022-03-07T14:40:41Z</time>
      </trkpt>
      <trkpt lat="45.88387" lon="4.19367">
        <ele>556</ele>
        <time>2022-03-07T14:40:47Z</time>
      </trkpt>
      <trkpt lat="45.88387" lon="4.19368">
        <ele>556.7</ele>
        <time>2022-03-07T14:40:52Z</time>
      </trkpt>
      <trkpt lat="45.88385" lon="4.19369">
        <ele>587.9</ele>
        <time>2022-03-07T14:40:58Z</time>
      </trkpt>
      <trkpt lat="45.88383" lon="4.19367">
        <ele>580.3</ele>
        <time>2022-03-07T14:41:04Z</time>
      </trkpt>
      <trkpt lat="45.88382" lon="4.19366">
        <ele>564.2</ele>
        <time>2022-03-07T14:41:09Z</time>
      </trkpt>
      <trkpt lat="45.88382" lon="4.19367">
        <ele>549</ele>
        <time>2022-03-07T14:41:14Z</time>
      </trkpt>
      <trkpt lat="45.88382" lon="4.19368">
        <ele>547</ele>
        <time>2022-03-07T14:41:19Z</time>
      </trkpt>
      <trkpt lat="45.88382" lon="4.19368">
        <ele>563</ele>
        <time>2022-03-07T14:41:24Z</time>
      </trkpt>
      <trkpt lat="45.88383" lon="4.1937">
        <ele>553.2</ele>
        <time>2022-03-07T14:41:30Z</time>
      </trkpt>
      <trkpt lat="45.88382" lon="4.1937">
        <ele>547.1</ele>
        <time>2022-03-07T14:41:36Z</time>
      </trkpt>
      <trkpt lat="45.88381" lon="4.1937">
        <ele>560.4</ele>
        <time>2022-03-07T14:41:41Z</time>
      </trkpt>
      <trkpt lat="45.88381" lon="4.1937">
        <ele>576.5</ele>
        <time>2022-03-07T14:41:46Z</time>
      </trkpt>
      <trkpt lat="45.88381" lon="4.19369">
        <ele>569.9</ele>
        <time>2022-03-07T14:41:51Z</time>
      </trkpt>
      <trkpt lat="45.88381" lon="4.19366">
        <ele>562.6</ele>
        <time>2022-03-07T14:41:57Z</time>
      </trkpt>
      <trkpt lat="45.88381" lon="4.19364">
        <ele>562.8</ele>
        <time>2022-03-07T14:42:03Z</time>
      </trkpt>
      <trkpt lat="45.88382" lon="4.19364">
        <ele>546.9</ele>
        <time>2022-03-07T14:42:08Z</time>
      </trkpt>
      <trkpt lat="45.88382" lon="4.19363">
        <ele>547.1</ele>
        <time>2022-03-07T14:42:14Z</time>
      </trkpt>
      <trkpt lat="45.88382" lon="4.19363">
        <ele>561.5</ele>
        <time>2022-03-07T14:42:19Z</time>
      </trkpt>
      <trkpt lat="45.88379" lon="4.19361">
        <ele>575.2</ele>
        <time>2022-03-07T14:42:25Z</time>
      </trkpt>
      <trkpt lat="45.88376" lon="4.19358">
        <ele>580.9</ele>
        <time>2022-03-07T14:42:30Z</time>
      </trkpt>
      <trkpt lat="45.88374" lon="4.19357">
        <ele>580.7</ele>
        <time>2022-03-07T14:42:36Z</time>
      </trkpt>
      <trkpt lat="45.88369" lon="4.19354">
        <ele>573.2</ele>
        <time>2022-03-07T14:42:41Z</time>
      </trkpt>
      <trkpt lat="45.88364" lon="4.19351">
        <ele>570</ele>
        <time>2022-03-07T14:42:46Z</time>
      </trkpt>
      <trkpt lat="45.88356" lon="4.19354">
        <ele>584.5</ele>
        <time>2022-03-07T14:42:52Z</time>
      </trkpt>
      <trkpt lat="45.8835" lon="4.19353">
        <ele>588.4</ele>
        <time>2022-03-07T14:42:58Z</time>
      </trkpt>
      <trkpt lat="45.88346" lon="4.19352">
        <ele>582</ele>
        <time>2022-03-07T14:43:03Z</time>
      </trkpt>
      <trkpt lat="45.88343" lon="4.1935">
        <ele>555.7</ele>
        <time>2022-03-07T14:43:08Z</time>
      </trkpt>
      <trkpt lat="45.8834" lon="4.19348">
        <ele>580.7</ele>
        <time>2022-03-07T14:43:14Z</time>
      </trkpt>
      <trkpt lat="45.88336" lon="4.19347">
        <ele>579.9</ele>
        <time>2022-03-07T14:43:19Z</time>
      </trkpt>
      <trkpt lat="45.88331" lon="4.19348">
        <ele>586</ele>
        <time>2022-03-07T14:43:24Z</time>
      </trkpt>
      <trkpt lat="45.88325" lon="4.19343">
        <ele>581.4</ele>
        <time>2022-03-07T14:43:30Z</time>
      </trkpt>
      <trkpt lat="45.88319" lon="4.1934">
        <ele>589.5</ele>
        <time>2022-03-07T14:43:35Z</time>
      </trkpt>
      <trkpt lat="45.88313" lon="4.19337">
        <ele>584.8</ele>
        <time>2022-03-07T14:43:40Z</time>
      </trkpt>
      <trkpt lat="45.88307" lon="4.19334">
        <ele>578.9</ele>
        <time>2022-03-07T14:43:45Z</time>
      </trkpt>
      <trkpt lat="45.88302" lon="4.19331">
        <ele>585.2</ele>
        <time>2022-03-07T14:43:51Z</time>
      </trkpt>
      <trkpt lat="45.88298" lon="4.19329">
        <ele>585.3</ele>
        <time>2022-03-07T14:43:56Z</time>
      </trkpt>
      <trkpt lat="45.88293" lon="4.1933">
        <ele>581.9</ele>
        <time>2022-03-07T14:44:01Z</time>
      </trkpt>
      <trkpt lat="45.88288" lon="4.19331">
        <ele>553.6</ele>
        <time>2022-03-07T14:44:07Z</time>
      </trkpt>
      <trkpt lat="45.88282" lon="4.19331">
        <ele>573.7</ele>
        <time>2022-03-07T14:44:12Z</time>
      </trkpt>
      <trkpt lat="45.88276" lon="4.19328">
        <ele>590.5</ele>
        <time>2022-03-07T14:44:17Z</time>
      </trkpt>
      <trkpt lat="45.88271" lon="4.19326">
        <ele>605.5</ele>
        <time>2022-03-07T14:44:22Z</time>
      </trkpt>
      <trkpt lat="45.88264" lon="4.19324">
        <ele>595.1</ele>
        <time>2022-03-07T14:44:28Z</time>
      </trkpt>
      <trkpt lat="45.88258" lon="4.19324">
        <ele>604</ele>
        <time>2022-03-07T14:44:33Z</time>
      </trkpt>
      <trkpt lat="45.88251" lon="4.19323">
        <ele>609.3</ele>
        <time>2022-03-07T14:44:38Z</time>
      </trkpt>
      <trkpt lat="45.88245" lon="4.19321">
        <ele>610.5</ele>
        <time>2022-03-07T14:44:44Z</time>
      </trkpt>
      <trkpt lat="45.88239" lon="4.19319">
        <ele>610.2</ele>
        <time>2022-03-07T14:44:49Z</time>
      </trkpt>
      <trkpt lat="45.88234" lon="4.19316">
        <ele>611.5</ele>
        <time>2022-03-07T14:44:55Z</time>
      </trkpt>
      <trkpt lat="45.8823" lon="4.19316">
        <ele>624.8</ele>
        <time>2022-03-07T14:45:00Z</time>
      </trkpt>
      <trkpt lat="45.88223" lon="4.19316">
        <ele>618.1</ele>
        <time>2022-03-07T14:45:06Z</time>
      </trkpt>
      <trkpt lat="45.88217" lon="4.19318">
        <ele>622.9</ele>
        <time>2022-03-07T14:45:11Z</time>
      </trkpt>
      <trkpt lat="45.88213" lon="4.19318">
        <ele>622.3</ele>
        <time>2022-03-07T14:45:16Z</time>
      </trkpt>
      <trkpt lat="45.88207" lon="4.1932">
        <ele>605</ele>
        <time>2022-03-07T14:45:21Z</time>
      </trkpt>
      <trkpt lat="45.88201" lon="4.19322">
        <ele>603.6</ele>
        <time>2022-03-07T14:45:27Z</time>
      </trkpt>
      <trkpt lat="45.88196" lon="4.19323">
        <ele>604.2</ele>
        <time>2022-03-07T14:45:32Z</time>
      </trkpt>
      <trkpt lat="45.88191" lon="4.19321">
        <ele>624.2</ele>
        <time>2022-03-07T14:45:37Z</time>
      </trkpt>
      <trkpt lat="45.88185" lon="4.19317">
        <ele>619.4</ele>
        <time>2022-03-07T14:45:42Z</time>
      </trkpt>
      <trkpt lat="45.88179" lon="4.19311">
        <ele>596.4</ele>
        <time>2022-03-07T14:45:47Z</time>
      </trkpt>
      <trkpt lat="45.88172" lon="4.19309">
        <ele>591.2</ele>
        <time>2022-03-07T14:45:52Z</time>
      </trkpt>
      <trkpt lat="45.88166" lon="4.19308">
        <ele>591.2</ele>
        <time>2022-03-07T14:45:57Z</time>
      </trkpt>
      <trkpt lat="45.88161" lon="4.19306">
        <ele>595</ele>
        <time>2022-03-07T14:46:03Z</time>
      </trkpt>
      <trkpt lat="45.88156" lon="4.19303">
        <ele>600.4</ele>
        <time>2022-03-07T14:46:08Z</time>
      </trkpt>
      <trkpt lat="45.88151" lon="4.19304">
        <ele>596.8</ele>
        <time>2022-03-07T14:46:13Z</time>
      </trkpt>
      <trkpt lat="45.88146" lon="4.19303">
        <ele>606.6</ele>
        <time>2022-03-07T14:46:18Z</time>
      </trkpt>
      <trkpt lat="45.88141" lon="4.19298">
        <ele>603.8</ele>
        <time>2022-03-07T14:46:24Z</time>
      </trkpt>
      <trkpt lat="45.88137" lon="4.19297">
        <ele>610.2</ele>
        <time>2022-03-07T14:46:30Z</time>
      </trkpt>
      <trkpt lat="45.88133" lon="4.19297">
        <ele>608.9</ele>
        <time>2022-03-07T14:46:35Z</time>
      </trkpt>
      <trkpt lat="45.88129" lon="4.19297">
        <ele>619.4</ele>
        <time>2022-03-07T14:46:40Z</time>
      </trkpt>
      <trkpt lat="45.88125" lon="4.19296">
        <ele>617.8</ele>
        <time>2022-03-07T14:46:45Z</time>
      </trkpt>
      <trkpt lat="45.88122" lon="4.19297">
        <ele>612.6</ele>
        <time>2022-03-07T14:46:50Z</time>
      </trkpt>
      <trkpt lat="45.88117" lon="4.19297">
        <ele>619.5</ele>
        <time>2022-03-07T14:46:55Z</time>
      </trkpt>
      <trkpt lat="45.88113" lon="4.19296">
        <ele>616.7</ele>
        <time>2022-03-07T14:47:00Z</time>
      </trkpt>
      <trkpt lat="45.88112" lon="4.1929">
        <ele>627.1</ele>
        <time>2022-03-07T14:47:06Z</time>
      </trkpt>
      <trkpt lat="45.88108" lon="4.19288">
        <ele>629.7</ele>
        <time>2022-03-07T14:47:11Z</time>
      </trkpt>
      <trkpt lat="45.88103" lon="4.19284">
        <ele>632.4</ele>
        <time>2022-03-07T14:47:17Z</time>
      </trkpt>
      <trkpt lat="45.88098" lon="4.19279">
        <ele>638.7</ele>
        <time>2022-03-07T14:47:22Z</time>
      </trkpt>
      <trkpt lat="45.88094" lon="4.19279">
        <ele>638.2</ele>
        <time>2022-03-07T14:47:28Z</time>
      </trkpt>
      <trkpt lat="45.8809" lon="4.19282">
        <ele>643.9</ele>
        <time>2022-03-07T14:47:33Z</time>
      </trkpt>
      <trkpt lat="45.88086" lon="4.19287">
        <ele>644.1</ele>
        <time>2022-03-07T14:47:38Z</time>
      </trkpt>
      <trkpt lat="45.88083" lon="4.1929">
        <ele>637.1</ele>
        <time>2022-03-07T14:47:43Z</time>
      </trkpt>
      <trkpt lat="45.88077" lon="4.1929">
        <ele>638.3</ele>
        <time>2022-03-07T14:47:49Z</time>
      </trkpt>
      <trkpt lat="45.8807" lon="4.19289">
        <ele>630.5</ele>
        <time>2022-03-07T14:47:54Z</time>
      </trkpt>
      <trkpt lat="45.88066" lon="4.19284">
        <ele>613.7</ele>
        <time>2022-03-07T14:47:59Z</time>
      </trkpt>
      <trkpt lat="45.88059" lon="4.19278">
        <ele>601</ele>
        <time>2022-03-07T14:48:05Z</time>
      </trkpt>
      <trkpt lat="45.88053" lon="4.19274">
        <ele>625.3</ele>
        <time>2022-03-07T14:48:11Z</time>
      </trkpt>
      <trkpt lat="45.88049" lon="4.19271">
        <ele>622.7</ele>
        <time>2022-03-07T14:48:16Z</time>
      </trkpt>
      <trkpt lat="45.88044" lon="4.19272">
        <ele>631</ele>
        <time>2022-03-07T14:48:21Z</time>
      </trkpt>
      <trkpt lat="45.88039" lon="4.19273">
        <ele>632</ele>
        <time>2022-03-07T14:48:27Z</time>
      </trkpt>
      <trkpt lat="45.88033" lon="4.19273">
        <ele>627.9</ele>
        <time>2022-03-07T14:48:32Z</time>
      </trkpt>
      <trkpt lat="45.88028" lon="4.19271">
        <ele>616.3</ele>
        <time>2022-03-07T14:48:37Z</time>
      </trkpt>
      <trkpt lat="45.88022" lon="4.19272">
        <ele>614.1</ele>
        <time>2022-03-07T14:48:42Z</time>
      </trkpt>
      <trkpt lat="45.88015" lon="4.19272">
        <ele>608.2</ele>
        <time>2022-03-07T14:48:48Z</time>
      </trkpt>
      <trkpt lat="45.88009" lon="4.19271">
        <ele>618</ele>
        <time>2022-03-07T14:48:53Z</time>
      </trkpt>
      <trkpt lat="45.88004" lon="4.19272">
        <ele>621.2</ele>
        <time>2022-03-07T14:48:58Z</time>
      </trkpt>
      <trkpt lat="45.87998" lon="4.19272">
        <ele>621.7</ele>
        <time>2022-03-07T14:49:04Z</time>
      </trkpt>
      <trkpt lat="45.87994" lon="4.19269">
        <ele>633.9</ele>
        <time>2022-03-07T14:49:09Z</time>
      </trkpt>
      <trkpt lat="45.87988" lon="4.19267">
        <ele>635.3</ele>
        <time>2022-03-07T14:49:14Z</time>
      </trkpt>
      <trkpt lat="45.87981" lon="4.19264">
        <ele>631.2</ele>
        <time>2022-03-07T14:49:20Z</time>
      </trkpt>
      <trkpt lat="45.87975" lon="4.19262">
        <ele>633.9</ele>
        <time>2022-03-07T14:49:25Z</time>
      </trkpt>
      <trkpt lat="45.87969" lon="4.1926">
        <ele>622.9</ele>
        <time>2022-03-07T14:49:30Z</time>
      </trkpt>
      <trkpt lat="45.87964" lon="4.19258">
        <ele>631.8</ele>
        <time>2022-03-07T14:49:35Z</time>
      </trkpt>
      <trkpt lat="45.87958" lon="4.19257">
        <ele>623</ele>
        <time>2022-03-07T14:49:40Z</time>
      </trkpt>
      <trkpt lat="45.87953" lon="4.19257">
        <ele>637</ele>
        <time>2022-03-07T14:49:46Z</time>
      </trkpt>
      <trkpt lat="45.87948" lon="4.19255">
        <ele>623</ele>
        <time>2022-03-07T14:49:51Z</time>
      </trkpt>
      <trkpt lat="45.87944" lon="4.19253">
        <ele>635.5</ele>
        <time>2022-03-07T14:49:56Z</time>
      </trkpt>
      <trkpt lat="45.87939" lon="4.19253">
        <ele>611.5</ele>
        <time>2022-03-07T14:50:02Z</time>
      </trkpt>
      <trkpt lat="45.87933" lon="4.19251">
        <ele>607.1</ele>
        <time>2022-03-07T14:50:07Z</time>
      </trkpt>
      <trkpt lat="45.87927" lon="4.19248">
        <ele>599.4</ele>
        <time>2022-03-07T14:50:13Z</time>
      </trkpt>
      <trkpt lat="45.8792" lon="4.19244">
        <ele>599.1</ele>
        <time>2022-03-07T14:50:18Z</time>
      </trkpt>
      <trkpt lat="45.87913" lon="4.19242">
        <ele>611.8</ele>
        <time>2022-03-07T14:50:23Z</time>
      </trkpt>
      <trkpt lat="45.87906" lon="4.19241">
        <ele>599.2</ele>
        <time>2022-03-07T14:50:28Z</time>
      </trkpt>
      <trkpt lat="45.879" lon="4.19239">
        <ele>588.7</ele>
        <time>2022-03-07T14:50:34Z</time>
      </trkpt>
      <trkpt lat="45.87895" lon="4.19238">
        <ele>597.5</ele>
        <time>2022-03-07T14:50:39Z</time>
      </trkpt>
      <trkpt lat="45.8789" lon="4.19238">
        <ele>591.9</ele>
        <time>2022-03-07T14:50:44Z</time>
      </trkpt>
      <trkpt lat="45.87885" lon="4.19237">
        <ele>599.4</ele>
        <time>2022-03-07T14:50:50Z</time>
      </trkpt>
      <trkpt lat="45.87881" lon="4.19237">
        <ele>590.8</ele>
        <time>2022-03-07T14:50:55Z</time>
      </trkpt>
      <trkpt lat="45.87875" lon="4.19237">
        <ele>582.9</ele>
        <time>2022-03-07T14:51:00Z</time>
      </trkpt>
      <trkpt lat="45.8787" lon="4.19238">
        <ele>604.1</ele>
        <time>2022-03-07T14:51:05Z</time>
      </trkpt>
      <trkpt lat="45.87864" lon="4.19238">
        <ele>594.4</ele>
        <time>2022-03-07T14:51:11Z</time>
      </trkpt>
      <trkpt lat="45.87859" lon="4.19236">
        <ele>595.1</ele>
        <time>2022-03-07T14:51:16Z</time>
      </trkpt>
      <trkpt lat="45.87854" lon="4.19234">
        <ele>604.9</ele>
        <time>2022-03-07T14:51:21Z</time>
      </trkpt>
      <trkpt lat="45.87849" lon="4.19233">
        <ele>596.3</ele>
        <time>2022-03-07T14:51:27Z</time>
      </trkpt>
      <trkpt lat="45.87843" lon="4.1923">
        <ele>591.3</ele>
        <time>2022-03-07T14:51:32Z</time>
      </trkpt>
      <trkpt lat="45.87837" lon="4.19227">
        <ele>586.5</ele>
        <time>2022-03-07T14:51:38Z</time>
      </trkpt>
      <trkpt lat="45.87831" lon="4.19225">
        <ele>591.2</ele>
        <time>2022-03-07T14:51:43Z</time>
      </trkpt>
      <trkpt lat="45.87826" lon="4.19225">
        <ele>598.6</ele>
        <time>2022-03-07T14:51:48Z</time>
      </trkpt>
      <trkpt lat="45.8782" lon="4.19224">
        <ele>598.8</ele>
        <time>2022-03-07T14:51:54Z</time>
      </trkpt>
      <trkpt lat="45.87815" lon="4.19221">
        <ele>599</ele>
        <time>2022-03-07T14:51:59Z</time>
      </trkpt>
      <trkpt lat="45.8781" lon="4.19219">
        <ele>575.8</ele>
        <time>2022-03-07T14:52:04Z</time>
      </trkpt>
      <trkpt lat="45.87804" lon="4.19218">
        <ele>589.1</ele>
        <time>2022-03-07T14:52:10Z</time>
      </trkpt>
      <trkpt lat="45.87798" lon="4.19216">
        <ele>577.9</ele>
        <time>2022-03-07T14:52:15Z</time>
      </trkpt>
      <trkpt lat="45.87793" lon="4.19213">
        <ele>605.3</ele>
        <time>2022-03-07T14:52:21Z</time>
      </trkpt>
      <trkpt lat="45.87789" lon="4.19211">
        <ele>504.8</ele>
        <time>2022-03-07T14:52:26Z</time>
      </trkpt>
      <trkpt lat="45.87784" lon="4.19208">
        <ele>500.6</ele>
        <time>2022-03-07T14:52:32Z</time>
      </trkpt>
      <trkpt lat="45.87779" lon="4.19206">
        <ele>501.2</ele>
        <time>2022-03-07T14:52:37Z</time>
      </trkpt>
      <trkpt lat="45.87775" lon="4.19205">
        <ele>501.4</ele>
        <time>2022-03-07T14:52:42Z</time>
      </trkpt>
      <trkpt lat="45.87771" lon="4.19205">
        <ele>501.4</ele>
        <time>2022-03-07T14:52:48Z</time>
      </trkpt>
      <trkpt lat="45.87766" lon="4.19205">
        <ele>502.8</ele>
        <time>2022-03-07T14:52:53Z</time>
      </trkpt>
      <trkpt lat="45.87761" lon="4.19204">
        <ele>503.1</ele>
        <time>2022-03-07T14:52:59Z</time>
      </trkpt>
      <trkpt lat="45.87756" lon="4.19202">
        <ele>502.3</ele>
        <time>2022-03-07T14:53:04Z</time>
      </trkpt>
      <trkpt lat="45.87751" lon="4.19198">
        <ele>502.2</ele>
        <time>2022-03-07T14:53:10Z</time>
      </trkpt>
      <trkpt lat="45.87747" lon="4.19196">
        <ele>502.7</ele>
        <time>2022-03-07T14:53:15Z</time>
      </trkpt>
      <trkpt lat="45.87743" lon="4.19195">
        <ele>502.6</ele>
        <time>2022-03-07T14:53:20Z</time>
      </trkpt>
      <trkpt lat="45.8774" lon="4.19194">
        <ele>502.7</ele>
        <time>2022-03-07T14:53:25Z</time>
      </trkpt>
      <trkpt lat="45.87735" lon="4.19193">
        <ele>503.2</ele>
        <time>2022-03-07T14:53:30Z</time>
      </trkpt>
      <trkpt lat="45.8773" lon="4.19193">
        <ele>503.3</ele>
        <time>2022-03-07T14:53:35Z</time>
      </trkpt>
      <trkpt lat="45.87726" lon="4.19193">
        <ele>503.4</ele>
        <time>2022-03-07T14:53:41Z</time>
      </trkpt>
      <trkpt lat="45.8772" lon="4.19194">
        <ele>503.4</ele>
        <time>2022-03-07T14:53:46Z</time>
      </trkpt>
      <trkpt lat="45.87715" lon="4.19193">
        <ele>503.1</ele>
        <time>2022-03-07T14:53:52Z</time>
      </trkpt>
      <trkpt lat="45.87709" lon="4.19193">
        <ele>503.9</ele>
        <time>2022-03-07T14:53:57Z</time>
      </trkpt>
      <trkpt lat="45.87705" lon="4.19186">
        <ele>504.1</ele>
        <time>2022-03-07T14:54:02Z</time>
      </trkpt>
      <trkpt lat="45.87703" lon="4.19178">
        <ele>504</ele>
        <time>2022-03-07T14:54:08Z</time>
      </trkpt>
      <trkpt lat="45.87702" lon="4.19169">
        <ele>504.1</ele>
        <time>2022-03-07T14:54:13Z</time>
      </trkpt>
      <trkpt lat="45.87698" lon="4.1916">
        <ele>503.7</ele>
        <time>2022-03-07T14:54:18Z</time>
      </trkpt>
      <trkpt lat="45.87695" lon="4.19154">
        <ele>504.6</ele>
        <time>2022-03-07T14:54:23Z</time>
      </trkpt>
      <trkpt lat="45.87692" lon="4.19149">
        <ele>504.7</ele>
        <time>2022-03-07T14:54:28Z</time>
      </trkpt>
      <trkpt lat="45.87687" lon="4.19147">
        <ele>506.3</ele>
        <time>2022-03-07T14:54:33Z</time>
      </trkpt>
      <trkpt lat="45.87683" lon="4.19145">
        <ele>507.2</ele>
        <time>2022-03-07T14:54:38Z</time>
      </trkpt>
      <trkpt lat="45.87677" lon="4.19143">
        <ele>508.4</ele>
        <time>2022-03-07T14:54:43Z</time>
      </trkpt>
      <trkpt lat="45.8767" lon="4.19143">
        <ele>509</ele>
        <time>2022-03-07T14:54:49Z</time>
      </trkpt>
      <trkpt lat="45.87664" lon="4.19141">
        <ele>509.3</ele>
        <time>2022-03-07T14:54:54Z</time>
      </trkpt>
      <trkpt lat="45.87658" lon="4.19138">
        <ele>509.4</ele>
        <time>2022-03-07T14:54:59Z</time>
      </trkpt>
      <trkpt lat="45.87652" lon="4.19136">
        <ele>508.3</ele>
        <time>2022-03-07T14:55:04Z</time>
      </trkpt>
      <trkpt lat="45.87648" lon="4.19133">
        <ele>507.5</ele>
        <time>2022-03-07T14:55:10Z</time>
      </trkpt>
      <trkpt lat="45.87644" lon="4.19128">
        <ele>507.8</ele>
        <time>2022-03-07T14:55:15Z</time>
      </trkpt>
      <trkpt lat="45.8764" lon="4.19124">
        <ele>507.3</ele>
        <time>2022-03-07T14:55:21Z</time>
      </trkpt>
      <trkpt lat="45.87637" lon="4.19122">
        <ele>506.3</ele>
        <time>2022-03-07T14:55:26Z</time>
      </trkpt>
      <trkpt lat="45.87633" lon="4.19118">
        <ele>505.1</ele>
        <time>2022-03-07T14:55:31Z</time>
      </trkpt>
      <trkpt lat="45.8763" lon="4.19113">
        <ele>503.7</ele>
        <time>2022-03-07T14:55:36Z</time>
      </trkpt>
      <trkpt lat="45.87628" lon="4.19108">
        <ele>504.1</ele>
        <time>2022-03-07T14:55:42Z</time>
      </trkpt>
      <trkpt lat="45.87625" lon="4.19102">
        <ele>503.7</ele>
        <time>2022-03-07T14:55:47Z</time>
      </trkpt>
      <trkpt lat="45.87621" lon="4.19098">
        <ele>503.7</ele>
        <time>2022-03-07T14:55:53Z</time>
      </trkpt>
      <trkpt lat="45.87616" lon="4.19095">
        <ele>504</ele>
        <time>2022-03-07T14:55:58Z</time>
      </trkpt>
      <trkpt lat="45.87611" lon="4.19093">
        <ele>503.3</ele>
        <time>2022-03-07T14:56:04Z</time>
      </trkpt>
      <trkpt lat="45.87607" lon="4.19086">
        <ele>498.4</ele>
        <time>2022-03-07T14:56:09Z</time>
      </trkpt>
      <trkpt lat="45.87604" lon="4.1908">
        <ele>497.9</ele>
        <time>2022-03-07T14:56:14Z</time>
      </trkpt>
      <trkpt lat="45.87601" lon="4.19074">
        <ele>496.6</ele>
        <time>2022-03-07T14:56:19Z</time>
      </trkpt>
      <trkpt lat="45.87598" lon="4.19067">
        <ele>491.4</ele>
        <time>2022-03-07T14:56:25Z</time>
      </trkpt>
      <trkpt lat="45.87595" lon="4.19061">
        <ele>491.8</ele>
        <time>2022-03-07T14:56:31Z</time>
      </trkpt>
      <trkpt lat="45.8759" lon="4.19056">
        <ele>492.3</ele>
        <time>2022-03-07T14:56:36Z</time>
      </trkpt>
      <trkpt lat="45.87585" lon="4.19053">
        <ele>491</ele>
        <time>2022-03-07T14:56:41Z</time>
      </trkpt>
      <trkpt lat="45.8758" lon="4.19049">
        <ele>491.3</ele>
        <time>2022-03-07T14:56:47Z</time>
      </trkpt>
      <trkpt lat="45.87575" lon="4.19047">
        <ele>491.3</ele>
        <time>2022-03-07T14:56:53Z</time>
      </trkpt>
      <trkpt lat="45.8757" lon="4.19046">
        <ele>491.1</ele>
        <time>2022-03-07T14:56:58Z</time>
      </trkpt>
      <trkpt lat="45.87565" lon="4.19045">
        <ele>492.2</ele>
        <time>2022-03-07T14:57:03Z</time>
      </trkpt>
      <trkpt lat="45.87561" lon="4.19042">
        <ele>492.1</ele>
        <time>2022-03-07T14:57:08Z</time>
      </trkpt>
      <trkpt lat="45.87558" lon="4.19037">
        <ele>492.7</ele>
        <time>2022-03-07T14:57:13Z</time>
      </trkpt>
      <trkpt lat="45.87555" lon="4.19031">
        <ele>492.7</ele>
        <time>2022-03-07T14:57:19Z</time>
      </trkpt>
      <trkpt lat="45.87552" lon="4.19025">
        <ele>492.6</ele>
        <time>2022-03-07T14:57:24Z</time>
      </trkpt>
      <trkpt lat="45.87549" lon="4.19019">
        <ele>492.3</ele>
        <time>2022-03-07T14:57:29Z</time>
      </trkpt>
      <trkpt lat="45.87546" lon="4.19013">
        <ele>492.8</ele>
        <time>2022-03-07T14:57:35Z</time>
      </trkpt>
      <trkpt lat="45.87543" lon="4.19008">
        <ele>492.9</ele>
        <time>2022-03-07T14:57:40Z</time>
      </trkpt>
      <trkpt lat="45.87542" lon="4.19003">
        <ele>493</ele>
        <time>2022-03-07T14:57:46Z</time>
      </trkpt>
      <trkpt lat="45.8754" lon="4.18996">
        <ele>492.8</ele>
        <time>2022-03-07T14:57:51Z</time>
      </trkpt>
      <trkpt lat="45.87539" lon="4.18986">
        <ele>492.9</ele>
        <time>2022-03-07T14:57:57Z</time>
      </trkpt>
      <trkpt lat="45.8754" lon="4.18976">
        <ele>492.7</ele>
        <time>2022-03-07T14:58:02Z</time>
      </trkpt>
      <trkpt lat="45.87536" lon="4.18969">
        <ele>492.9</ele>
        <time>2022-03-07T14:58:07Z</time>
      </trkpt>
      <trkpt lat="45.87531" lon="4.18966">
        <ele>492.5</ele>
        <time>2022-03-07T14:58:12Z</time>
      </trkpt>
      <trkpt lat="45.87527" lon="4.18958">
        <ele>492.3</ele>
        <time>2022-03-07T14:58:18Z</time>
      </trkpt>
      <trkpt lat="45.87523" lon="4.18951">
        <ele>492.5</ele>
        <time>2022-03-07T14:58:23Z</time>
      </trkpt>
      <trkpt lat="45.87517" lon="4.18946">
        <ele>492.2</ele>
        <time>2022-03-07T14:58:28Z</time>
      </trkpt>
      <trkpt lat="45.87511" lon="4.18941">
        <ele>492.9</ele>
        <time>2022-03-07T14:58:34Z</time>
      </trkpt>
      <trkpt lat="45.87506" lon="4.18934">
        <ele>492.7</ele>
        <time>2022-03-07T14:58:39Z</time>
      </trkpt>
      <trkpt lat="45.87503" lon="4.18927">
        <ele>492.8</ele>
        <time>2022-03-07T14:58:45Z</time>
      </trkpt>
      <trkpt lat="45.875" lon="4.1892">
        <ele>492.7</ele>
        <time>2022-03-07T14:58:50Z</time>
      </trkpt>
      <trkpt lat="45.87496" lon="4.18915">
        <ele>491.4</ele>
        <time>2022-03-07T14:58:56Z</time>
      </trkpt>
      <trkpt lat="45.87489" lon="4.18913">
        <ele>489.6</ele>
        <time>2022-03-07T14:59:02Z</time>
      </trkpt>
      <trkpt lat="45.87484" lon="4.18909">
        <ele>490.6</ele>
        <time>2022-03-07T14:59:07Z</time>
      </trkpt>
      <trkpt lat="45.87479" lon="4.18905">
        <ele>490.8</ele>
        <time>2022-03-07T14:59:12Z</time>
      </trkpt>
      <trkpt lat="45.87475" lon="4.18899">
        <ele>490.7</ele>
        <time>2022-03-07T14:59:17Z</time>
      </trkpt>
      <trkpt lat="45.87471" lon="4.18893">
        <ele>492.3</ele>
        <time>2022-03-07T14:59:22Z</time>
      </trkpt>
      <trkpt lat="45.87467" lon="4.18887">
        <ele>492.4</ele>
        <time>2022-03-07T14:59:28Z</time>
      </trkpt>
      <trkpt lat="45.87464" lon="4.18879">
        <ele>492.2</ele>
        <time>2022-03-07T14:59:33Z</time>
      </trkpt>
      <trkpt lat="45.87462" lon="4.18873">
        <ele>491.8</ele>
        <time>2022-03-07T14:59:38Z</time>
      </trkpt>
      <trkpt lat="45.8746" lon="4.18864">
        <ele>491.6</ele>
        <time>2022-03-07T14:59:44Z</time>
      </trkpt>
      <trkpt lat="45.8746" lon="4.18856">
        <ele>490.1</ele>
        <time>2022-03-07T14:59:49Z</time>
      </trkpt>
      <trkpt lat="45.87459" lon="4.18848">
        <ele>490.6</ele>
        <time>2022-03-07T14:59:54Z</time>
      </trkpt>
      <trkpt lat="45.87457" lon="4.18845">
        <ele>491.1</ele>
        <time>2022-03-07T15:00:00Z</time>
      </trkpt>
      <trkpt lat="45.87455" lon="4.18838">
        <ele>491.1</ele>
        <time>2022-03-07T15:00:05Z</time>
      </trkpt>
      <trkpt lat="45.87453" lon="4.18833">
        <ele>490.1</ele>
        <time>2022-03-07T15:00:10Z</time>
      </trkpt>
      <trkpt lat="45.87449" lon="4.18827">
        <ele>489.2</ele>
        <time>2022-03-07T15:00:16Z</time>
      </trkpt>
      <trkpt lat="45.87446" lon="4.1882">
        <ele>488.6</ele>
        <time>2022-03-07T15:00:22Z</time>
      </trkpt>
      <trkpt lat="45.87443" lon="4.18812">
        <ele>491</ele>
        <time>2022-03-07T15:00:27Z</time>
      </trkpt>
      <trkpt lat="45.8744" lon="4.18806">
        <ele>485.1</ele>
        <time>2022-03-07T15:00:33Z</time>
      </trkpt>
      <trkpt lat="45.87432" lon="4.18806">
        <ele>482.1</ele>
        <time>2022-03-07T15:00:38Z</time>
      </trkpt>
      <trkpt lat="45.87428" lon="4.18801">
        <ele>485.2</ele>
        <time>2022-03-07T15:00:43Z</time>
      </trkpt>
      <trkpt lat="45.87424" lon="4.18795">
        <ele>483.4</ele>
        <time>2022-03-07T15:00:49Z</time>
      </trkpt>
      <trkpt lat="45.8742" lon="4.18789">
        <ele>485.5</ele>
        <time>2022-03-07T15:00:54Z</time>
      </trkpt>
      <trkpt lat="45.87416" lon="4.18784">
        <ele>484.8</ele>
        <time>2022-03-07T15:00:59Z</time>
      </trkpt>
      <trkpt lat="45.87414" lon="4.18776">
        <ele>483.7</ele>
        <time>2022-03-07T15:01:05Z</time>
      </trkpt>
      <trkpt lat="45.87411" lon="4.18767">
        <ele>488.5</ele>
        <time>2022-03-07T15:01:11Z</time>
      </trkpt>
      <trkpt lat="45.87409" lon="4.18759">
        <ele>488.1</ele>
        <time>2022-03-07T15:01:16Z</time>
      </trkpt>
      <trkpt lat="45.87406" lon="4.18752">
        <ele>488.8</ele>
        <time>2022-03-07T15:01:21Z</time>
      </trkpt>
      <trkpt lat="45.87404" lon="4.18743">
        <ele>488.3</ele>
        <time>2022-03-07T15:01:27Z</time>
      </trkpt>
      <trkpt lat="45.87402" lon="4.18736">
        <ele>487.6</ele>
        <time>2022-03-07T15:01:33Z</time>
      </trkpt>
      <trkpt lat="45.87399" lon="4.18729">
        <ele>485.4</ele>
        <time>2022-03-07T15:01:38Z</time>
      </trkpt>
      <trkpt lat="45.87398" lon="4.18722">
        <ele>485.6</ele>
        <time>2022-03-07T15:01:43Z</time>
      </trkpt>
      <trkpt lat="45.87396" lon="4.18716">
        <ele>482.5</ele>
        <time>2022-03-07T15:01:48Z</time>
      </trkpt>
      <trkpt lat="45.87393" lon="4.18709">
        <ele>487.3</ele>
        <time>2022-03-07T15:01:54Z</time>
      </trkpt>
      <trkpt lat="45.87391" lon="4.18701">
        <ele>486.2</ele>
        <time>2022-03-07T15:01:59Z</time>
      </trkpt>
      <trkpt lat="45.87389" lon="4.18695">
        <ele>488.5</ele>
        <time>2022-03-07T15:02:05Z</time>
      </trkpt>
      <trkpt lat="45.87386" lon="4.18688">
        <ele>486.9</ele>
        <time>2022-03-07T15:02:10Z</time>
      </trkpt>
      <trkpt lat="45.87383" lon="4.18681">
        <ele>485.9</ele>
        <time>2022-03-07T15:02:16Z</time>
      </trkpt>
      <trkpt lat="45.87379" lon="4.18674">
        <ele>489.5</ele>
        <time>2022-03-07T15:02:21Z</time>
      </trkpt>
      <trkpt lat="45.87375" lon="4.18667">
        <ele>489.3</ele>
        <time>2022-03-07T15:02:27Z</time>
      </trkpt>
      <trkpt lat="45.87371" lon="4.18661">
        <ele>489.8</ele>
        <time>2022-03-07T15:02:32Z</time>
      </trkpt>
      <trkpt lat="45.87367" lon="4.18655">
        <ele>487.4</ele>
        <time>2022-03-07T15:02:37Z</time>
      </trkpt>
      <trkpt lat="45.87363" lon="4.18649">
        <ele>488.5</ele>
        <time>2022-03-07T15:02:43Z</time>
      </trkpt>
      <trkpt lat="45.8736" lon="4.18642">
        <ele>489.8</ele>
        <time>2022-03-07T15:02:48Z</time>
      </trkpt>
      <trkpt lat="45.87358" lon="4.18634">
        <ele>487.3</ele>
        <time>2022-03-07T15:02:53Z</time>
      </trkpt>
      <trkpt lat="45.87356" lon="4.18626">
        <ele>489.9</ele>
        <time>2022-03-07T15:02:59Z</time>
      </trkpt>
      <trkpt lat="45.87354" lon="4.18619">
        <ele>490.1</ele>
        <time>2022-03-07T15:03:04Z</time>
      </trkpt>
      <trkpt lat="45.87354" lon="4.18611">
        <ele>490.6</ele>
        <time>2022-03-07T15:03:09Z</time>
      </trkpt>
      <trkpt lat="45.87354" lon="4.18602">
        <ele>489.6</ele>
        <time>2022-03-07T15:03:15Z</time>
      </trkpt>
      <trkpt lat="45.87352" lon="4.18594">
        <ele>490</ele>
        <time>2022-03-07T15:03:21Z</time>
      </trkpt>
      <trkpt lat="45.8735" lon="4.18585">
        <ele>488.2</ele>
        <time>2022-03-07T15:03:26Z</time>
      </trkpt>
      <trkpt lat="45.87348" lon="4.18577">
        <ele>489.5</ele>
        <time>2022-03-07T15:03:32Z</time>
      </trkpt>
      <trkpt lat="45.87346" lon="4.18563">
        <ele>490</ele>
        <time>2022-03-07T15:03:44Z</time>
      </trkpt>
      <trkpt lat="45.87346" lon="4.18569">
        <ele>491</ele>
        <time>2022-03-07T15:03:49Z</time>
      </trkpt>
      <trkpt lat="45.87345" lon="4.18564">
        <ele>489.1</ele>
        <time>2022-03-07T15:03:55Z</time>
      </trkpt>
      <trkpt lat="45.87344" lon="4.18558">
        <ele>488</ele>
        <time>2022-03-07T15:04:00Z</time>
      </trkpt>
      <trkpt lat="45.87343" lon="4.18552">
        <ele>490.1</ele>
        <time>2022-03-07T15:04:05Z</time>
      </trkpt>
      <trkpt lat="45.87343" lon="4.18544">
        <ele>491.2</ele>
        <time>2022-03-07T15:04:10Z</time>
      </trkpt>
      <trkpt lat="45.87342" lon="4.18537">
        <ele>491.1</ele>
        <time>2022-03-07T15:04:16Z</time>
      </trkpt>
      <trkpt lat="45.8734" lon="4.18529">
        <ele>491.3</ele>
        <time>2022-03-07T15:04:21Z</time>
      </trkpt>
      <trkpt lat="45.87336" lon="4.18521">
        <ele>490.8</ele>
        <time>2022-03-07T15:04:26Z</time>
      </trkpt>
      <trkpt lat="45.87333" lon="4.18514">
        <ele>491.8</ele>
        <time>2022-03-07T15:04:31Z</time>
      </trkpt>
      <trkpt lat="45.87332" lon="4.18507">
        <ele>491.2</ele>
        <time>2022-03-07T15:04:36Z</time>
      </trkpt>
      <trkpt lat="45.8733" lon="4.18501">
        <ele>490.8</ele>
        <time>2022-03-07T15:04:42Z</time>
      </trkpt>
      <trkpt lat="45.87329" lon="4.18495">
        <ele>489</ele>
        <time>2022-03-07T15:04:47Z</time>
      </trkpt>
      <trkpt lat="45.87327" lon="4.18489">
        <ele>488.3</ele>
        <time>2022-03-07T15:04:52Z</time>
      </trkpt>
      <trkpt lat="45.87321" lon="4.18482">
        <ele>486.3</ele>
        <time>2022-03-07T15:04:57Z</time>
      </trkpt>
      <trkpt lat="45.87314" lon="4.18476">
        <ele>485.1</ele>
        <time>2022-03-07T15:05:03Z</time>
      </trkpt>
      <trkpt lat="45.87308" lon="4.1847">
        <ele>485.4</ele>
        <time>2022-03-07T15:05:08Z</time>
      </trkpt>
      <trkpt lat="45.87304" lon="4.18463">
        <ele>487.6</ele>
        <time>2022-03-07T15:05:13Z</time>
      </trkpt>
      <trkpt lat="45.87303" lon="4.18456">
        <ele>483.4</ele>
        <time>2022-03-07T15:05:18Z</time>
      </trkpt>
      <trkpt lat="45.87308" lon="4.18443">
        <ele>478.3</ele>
        <time>2022-03-07T15:05:24Z</time>
      </trkpt>
      <trkpt lat="45.8731" lon="4.18435">
        <ele>478.3</ele>
        <time>2022-03-07T15:05:29Z</time>
      </trkpt>
      <trkpt lat="45.87311" lon="4.18436">
        <ele>482.1</ele>
        <time>2022-03-07T15:05:35Z</time>
      </trkpt>
      <trkpt lat="45.87312" lon="4.18439">
        <ele>480.2</ele>
        <time>2022-03-07T15:05:40Z</time>
      </trkpt>
      <trkpt lat="45.87313" lon="4.18436">
        <ele>479.1</ele>
        <time>2022-03-07T15:05:45Z</time>
      </trkpt>
      <trkpt lat="45.87312" lon="4.18431">
        <ele>481.7</ele>
        <time>2022-03-07T15:05:50Z</time>
      </trkpt>
      <trkpt lat="45.8731" lon="4.18425">
        <ele>482.7</ele>
        <time>2022-03-07T15:05:55Z</time>
      </trkpt>
      <trkpt lat="45.8731" lon="4.18424">
        <ele>482.9</ele>
        <time>2022-03-07T15:06:01Z</time>
      </trkpt>
      <trkpt lat="45.87309" lon="4.18423">
        <ele>483.4</ele>
        <time>2022-03-07T15:06:06Z</time>
      </trkpt>
      <trkpt lat="45.87307" lon="4.1842">
        <ele>487.3</ele>
        <time>2022-03-07T15:06:11Z</time>
      </trkpt>
      <trkpt lat="45.87301" lon="4.18418">
        <ele>484.1</ele>
        <time>2022-03-07T15:06:16Z</time>
      </trkpt>
      <trkpt lat="45.87296" lon="4.18419">
        <ele>487.4</ele>
        <time>2022-03-07T15:06:22Z</time>
      </trkpt>
      <trkpt lat="45.87291" lon="4.18421">
        <ele>488.3</ele>
        <time>2022-03-07T15:06:27Z</time>
      </trkpt>
      <trkpt lat="45.87287" lon="4.18423">
        <ele>489.1</ele>
        <time>2022-03-07T15:06:33Z</time>
      </trkpt>
      <trkpt lat="45.87282" lon="4.18424">
        <ele>487.4</ele>
        <time>2022-03-07T15:06:38Z</time>
      </trkpt>
      <trkpt lat="45.87278" lon="4.18426">
        <ele>487.2</ele>
        <time>2022-03-07T15:06:43Z</time>
      </trkpt>
      <trkpt lat="45.87275" lon="4.1843">
        <ele>491.1</ele>
        <time>2022-03-07T15:06:49Z</time>
      </trkpt>
      <trkpt lat="45.87273" lon="4.18435">
        <ele>490.6</ele>
        <time>2022-03-07T15:06:54Z</time>
      </trkpt>
      <trkpt lat="45.87275" lon="4.18441">
        <ele>488.1</ele>
        <time>2022-03-07T15:07:01Z</time>
      </trkpt>
      <trkpt lat="45.8728" lon="4.18443">
        <ele>487.9</ele>
        <time>2022-03-07T15:07:06Z</time>
      </trkpt>
      <trkpt lat="45.87282" lon="4.18441">
        <ele>484.6</ele>
        <time>2022-03-07T15:07:12Z</time>
      </trkpt>
      <trkpt lat="45.87282" lon="4.18441">
        <ele>484.1</ele>
        <time>2022-03-07T15:07:17Z</time>
      </trkpt>
      <trkpt lat="45.87282" lon="4.1844">
        <ele>483.7</ele>
        <time>2022-03-07T15:07:23Z</time>
      </trkpt>
      <trkpt lat="45.87282" lon="4.1844">
        <ele>484.4</ele>
        <time>2022-03-07T15:07:28Z</time>
      </trkpt>
      <trkpt lat="45.87281" lon="4.1844">
        <ele>485.2</ele>
        <time>2022-03-07T15:07:33Z</time>
      </trkpt>
      <trkpt lat="45.87281" lon="4.1844">
        <ele>483.3</ele>
        <time>2022-03-07T15:07:38Z</time>
      </trkpt>
      <trkpt lat="45.87281" lon="4.18439">
        <ele>483</ele>
        <time>2022-03-07T15:07:44Z</time>
      </trkpt>
      <trkpt lat="45.87281" lon="4.18439">
        <ele>483.1</ele>
        <time>2022-03-07T15:07:49Z</time>
      </trkpt>
      <trkpt lat="45.87282" lon="4.18438">
        <ele>483.6</ele>
        <time>2022-03-07T15:07:55Z</time>
      </trkpt>
      <trkpt lat="45.87282" lon="4.18437">
        <ele>484.1</ele>
        <time>2022-03-07T15:08:00Z</time>
      </trkpt>
      <trkpt lat="45.87282" lon="4.18437">
        <ele>485.2</ele>
        <time>2022-03-07T15:08:05Z</time>
      </trkpt>
      <trkpt lat="45.87281" lon="4.18437">
        <ele>484.3</ele>
        <time>2022-03-07T15:08:10Z</time>
      </trkpt>
      <trkpt lat="45.87281" lon="4.18438">
        <ele>483.9</ele>
        <time>2022-03-07T15:08:16Z</time>
      </trkpt>
      <trkpt lat="45.87279" lon="4.18441">
        <ele>484.1</ele>
        <time>2022-03-07T15:08:22Z</time>
      </trkpt>
      <trkpt lat="45.87281" lon="4.18439">
        <ele>483.7</ele>
        <time>2022-03-07T15:08:27Z</time>
      </trkpt>
      <trkpt lat="45.87282" lon="4.18445">
        <ele>484.3</ele>
        <time>2022-03-07T15:08:33Z</time>
      </trkpt>
      <trkpt lat="45.87281" lon="4.18453">
        <ele>483.8</ele>
        <time>2022-03-07T15:08:38Z</time>
      </trkpt>
      <trkpt lat="45.87283" lon="4.18465">
        <ele>482.1</ele>
        <time>2022-03-07T15:08:44Z</time>
      </trkpt>
      <trkpt lat="45.87285" lon="4.18472">
        <ele>482.2</ele>
        <time>2022-03-07T15:08:49Z</time>
      </trkpt>
      <trkpt lat="45.87289" lon="4.18477">
        <ele>483.7</ele>
        <time>2022-03-07T15:08:54Z</time>
      </trkpt>
      <trkpt lat="45.87294" lon="4.18477">
        <ele>485.7</ele>
        <time>2022-03-07T15:09:00Z</time>
      </trkpt>
      <trkpt lat="45.87298" lon="4.1848">
        <ele>485.6</ele>
        <time>2022-03-07T15:09:05Z</time>
      </trkpt>
      <trkpt lat="45.87302" lon="4.18484">
        <ele>486.3</ele>
        <time>2022-03-07T15:09:11Z</time>
      </trkpt>
      <trkpt lat="45.87306" lon="4.18489">
        <ele>485.6</ele>
        <time>2022-03-07T15:09:16Z</time>
      </trkpt>
      <trkpt lat="45.87309" lon="4.18493">
        <ele>486.4</ele>
        <time>2022-03-07T15:09:21Z</time>
      </trkpt>
      <trkpt lat="45.87311" lon="4.18497">
        <ele>488.6</ele>
        <time>2022-03-07T15:09:26Z</time>
      </trkpt>
      <trkpt lat="45.87313" lon="4.185">
        <ele>486.7</ele>
        <time>2022-03-07T15:09:32Z</time>
      </trkpt>
      <trkpt lat="45.87312" lon="4.18504">
        <ele>490.1</ele>
        <time>2022-03-07T15:09:37Z</time>
      </trkpt>
      <trkpt lat="45.8731" lon="4.1851">
        <ele>489.8</ele>
        <time>2022-03-07T15:09:42Z</time>
      </trkpt>
      <trkpt lat="45.87307" lon="4.18515">
        <ele>488.1</ele>
        <time>2022-03-07T15:09:47Z</time>
      </trkpt>
      <trkpt lat="45.87304" lon="4.1852">
        <ele>489.5</ele>
        <time>2022-03-07T15:09:53Z</time>
      </trkpt>
      <trkpt lat="45.87305" lon="4.18527">
        <ele>490.7</ele>
        <time>2022-03-07T15:09:58Z</time>
      </trkpt>
      <trkpt lat="45.87308" lon="4.18533">
        <ele>489.9</ele>
        <time>2022-03-07T15:10:03Z</time>
      </trkpt>
      <trkpt lat="45.87308" lon="4.18542">
        <ele>491.1</ele>
        <time>2022-03-07T15:10:09Z</time>
      </trkpt>
      <trkpt lat="45.87308" lon="4.18551">
        <ele>491.9</ele>
        <time>2022-03-07T15:10:14Z</time>
      </trkpt>
      <trkpt lat="45.87308" lon="4.18558">
        <ele>491.9</ele>
        <time>2022-03-07T15:10:19Z</time>
      </trkpt>
      <trkpt lat="45.87305" lon="4.1856">
        <ele>491.3</ele>
        <time>2022-03-07T15:10:25Z</time>
      </trkpt>
      <trkpt lat="45.87302" lon="4.18561">
        <ele>490.7</ele>
        <time>2022-03-07T15:10:30Z</time>
      </trkpt>
      <trkpt lat="45.87299" lon="4.1856">
        <ele>491.2</ele>
        <time>2022-03-07T15:10:35Z</time>
      </trkpt>
      <trkpt lat="45.87297" lon="4.18559">
        <ele>490.7</ele>
        <time>2022-03-07T15:10:41Z</time>
      </trkpt>
      <trkpt lat="45.87295" lon="4.18556">
        <ele>492</ele>
        <time>2022-03-07T15:10:46Z</time>
      </trkpt>
      <trkpt lat="45.87292" lon="4.18552">
        <ele>493.1</ele>
        <time>2022-03-07T15:10:51Z</time>
      </trkpt>
      <trkpt lat="45.87288" lon="4.18549">
        <ele>494.3</ele>
        <time>2022-03-07T15:10:56Z</time>
      </trkpt>
      <trkpt lat="45.87284" lon="4.1855">
        <ele>494.3</ele>
        <time>2022-03-07T15:11:01Z</time>
      </trkpt>
      <trkpt lat="45.87283" lon="4.18553">
        <ele>492.9</ele>
        <time>2022-03-07T15:11:06Z</time>
      </trkpt>
      <trkpt lat="45.8728" lon="4.18555">
        <ele>493.4</ele>
        <time>2022-03-07T15:11:12Z</time>
      </trkpt>
      <trkpt lat="45.87275" lon="4.18557">
        <ele>494.1</ele>
        <time>2022-03-07T15:11:17Z</time>
      </trkpt>
      <trkpt lat="45.8727" lon="4.18558">
        <ele>494.3</ele>
        <time>2022-03-07T15:11:22Z</time>
      </trkpt>
      <trkpt lat="45.87267" lon="4.18558">
        <ele>495.5</ele>
        <time>2022-03-07T15:11:28Z</time>
      </trkpt>
      <trkpt lat="45.87263" lon="4.18557">
        <ele>496.9</ele>
        <time>2022-03-07T15:11:33Z</time>
      </trkpt>
      <trkpt lat="45.87258" lon="4.18559">
        <ele>496.6</ele>
        <time>2022-03-07T15:11:39Z</time>
      </trkpt>
      <trkpt lat="45.87254" lon="4.18561">
        <ele>495.3</ele>
        <time>2022-03-07T15:11:44Z</time>
      </trkpt>
      <trkpt lat="45.8725" lon="4.18563">
        <ele>495.2</ele>
        <time>2022-03-07T15:11:49Z</time>
      </trkpt>
      <trkpt lat="45.87245" lon="4.18566">
        <ele>496.2</ele>
        <time>2022-03-07T15:11:55Z</time>
      </trkpt>
      <trkpt lat="45.87241" lon="4.1857">
        <ele>498</ele>
        <time>2022-03-07T15:12:00Z</time>
      </trkpt>
      <trkpt lat="45.87236" lon="4.18574">
        <ele>498.8</ele>
        <time>2022-03-07T15:12:06Z</time>
      </trkpt>
      <trkpt lat="45.87232" lon="4.18577">
        <ele>498.1</ele>
        <time>2022-03-07T15:12:11Z</time>
      </trkpt>
      <trkpt lat="45.87227" lon="4.18579">
        <ele>499.3</ele>
        <time>2022-03-07T15:12:16Z</time>
      </trkpt>
      <trkpt lat="45.87223" lon="4.18582">
        <ele>500.1</ele>
        <time>2022-03-07T15:12:21Z</time>
      </trkpt>
      <trkpt lat="45.87218" lon="4.18582">
        <ele>501.3</ele>
        <time>2022-03-07T15:12:27Z</time>
      </trkpt>
      <trkpt lat="45.87212" lon="4.18587">
        <ele>500.5</ele>
        <time>2022-03-07T15:12:32Z</time>
      </trkpt>
      <trkpt lat="45.87208" lon="4.18593">
        <ele>500.4</ele>
        <time>2022-03-07T15:12:38Z</time>
      </trkpt>
      <trkpt lat="45.87204" lon="4.18594">
        <ele>499.2</ele>
        <time>2022-03-07T15:12:44Z</time>
      </trkpt>
      <trkpt lat="45.87201" lon="4.18601">
        <ele>498.4</ele>
        <time>2022-03-07T15:12:49Z</time>
      </trkpt>
      <trkpt lat="45.87198" lon="4.18609">
        <ele>498</ele>
        <time>2022-03-07T15:12:55Z</time>
      </trkpt>
      <trkpt lat="45.87195" lon="4.18616">
        <ele>496.7</ele>
        <time>2022-03-07T15:13:00Z</time>
      </trkpt>
      <trkpt lat="45.87193" lon="4.18625">
        <ele>497.6</ele>
        <time>2022-03-07T15:13:05Z</time>
      </trkpt>
      <trkpt lat="45.87193" lon="4.18634">
        <ele>496.9</ele>
        <time>2022-03-07T15:13:10Z</time>
      </trkpt>
      <trkpt lat="45.87191" lon="4.18641">
        <ele>497.2</ele>
        <time>2022-03-07T15:13:16Z</time>
      </trkpt>
      <trkpt lat="45.8719" lon="4.18648">
        <ele>498</ele>
        <time>2022-03-07T15:13:21Z</time>
      </trkpt>
      <trkpt lat="45.87188" lon="4.18655">
        <ele>498.8</ele>
        <time>2022-03-07T15:13:26Z</time>
      </trkpt>
      <trkpt lat="45.87184" lon="4.18659">
        <ele>498.8</ele>
        <time>2022-03-07T15:13:31Z</time>
      </trkpt>
      <trkpt lat="45.8718" lon="4.18663">
        <ele>500.1</ele>
        <time>2022-03-07T15:13:36Z</time>
      </trkpt>
      <trkpt lat="45.87177" lon="4.18668">
        <ele>499</ele>
        <time>2022-03-07T15:13:42Z</time>
      </trkpt>
      <trkpt lat="45.87174" lon="4.18674">
        <ele>497.6</ele>
        <time>2022-03-07T15:13:47Z</time>
      </trkpt>
      <trkpt lat="45.87172" lon="4.18679">
        <ele>497.6</ele>
        <time>2022-03-07T15:13:52Z</time>
      </trkpt>
      <trkpt lat="45.87169" lon="4.18687">
        <ele>499.4</ele>
        <time>2022-03-07T15:13:58Z</time>
      </trkpt>
      <trkpt lat="45.87168" lon="4.18694">
        <ele>500.3</ele>
        <time>2022-03-07T15:14:03Z</time>
      </trkpt>
      <trkpt lat="45.87168" lon="4.18701">
        <ele>500.9</ele>
        <time>2022-03-07T15:14:08Z</time>
      </trkpt>
      <trkpt lat="45.87171" lon="4.18706">
        <ele>500.9</ele>
        <time>2022-03-07T15:14:14Z</time>
      </trkpt>
      <trkpt lat="45.87173" lon="4.18712">
        <ele>500.4</ele>
        <time>2022-03-07T15:14:19Z</time>
      </trkpt>
      <trkpt lat="45.87175" lon="4.18718">
        <ele>499.6</ele>
        <time>2022-03-07T15:14:24Z</time>
      </trkpt>
      <trkpt lat="45.87178" lon="4.18724">
        <ele>500</ele>
        <time>2022-03-07T15:14:29Z</time>
      </trkpt>
      <trkpt lat="45.87181" lon="4.18729">
        <ele>500.4</ele>
        <time>2022-03-07T15:14:34Z</time>
      </trkpt>
      <trkpt lat="45.87181" lon="4.1873">
        <ele>500.4</ele>
        <time>2022-03-07T15:14:40Z</time>
      </trkpt>
      <trkpt lat="45.87184" lon="4.18734">
        <ele>501.5</ele>
        <time>2022-03-07T15:14:45Z</time>
      </trkpt>
      <trkpt lat="45.87186" lon="4.18739">
        <ele>500.5</ele>
        <time>2022-03-07T15:14:50Z</time>
      </trkpt>
      <trkpt lat="45.87187" lon="4.18743">
        <ele>501</ele>
        <time>2022-03-07T15:14:55Z</time>
      </trkpt>
      <trkpt lat="45.87187" lon="4.18748">
        <ele>501</ele>
        <time>2022-03-07T15:15:00Z</time>
      </trkpt>
      <trkpt lat="45.87188" lon="4.18753">
        <ele>502.2</ele>
        <time>2022-03-07T15:15:06Z</time>
      </trkpt>
      <trkpt lat="45.87188" lon="4.18758">
        <ele>502.3</ele>
        <time>2022-03-07T15:15:11Z</time>
      </trkpt>
      <trkpt lat="45.8719" lon="4.18763">
        <ele>503.4</ele>
        <time>2022-03-07T15:15:16Z</time>
      </trkpt>
      <trkpt lat="45.8719" lon="4.18768">
        <ele>503.2</ele>
        <time>2022-03-07T15:15:21Z</time>
      </trkpt>
      <trkpt lat="45.8719" lon="4.18774">
        <ele>503</ele>
        <time>2022-03-07T15:15:26Z</time>
      </trkpt>
      <trkpt lat="45.87188" lon="4.1878">
        <ele>503.2</ele>
        <time>2022-03-07T15:15:31Z</time>
      </trkpt>
      <trkpt lat="45.87187" lon="4.18787">
        <ele>503.7</ele>
        <time>2022-03-07T15:15:36Z</time>
      </trkpt>
      <trkpt lat="45.87185" lon="4.18794">
        <ele>503.1</ele>
        <time>2022-03-07T15:15:41Z</time>
      </trkpt>
      <trkpt lat="45.87184" lon="4.18802">
        <ele>503.4</ele>
        <time>2022-03-07T15:15:47Z</time>
      </trkpt>
      <trkpt lat="45.87183" lon="4.18809">
        <ele>554.1</ele>
        <time>2022-03-07T15:15:52Z</time>
      </trkpt>
      <trkpt lat="45.87181" lon="4.18816">
        <ele>539.6</ele>
        <time>2022-03-07T15:15:57Z</time>
      </trkpt>
      <trkpt lat="45.87181" lon="4.18824">
        <ele>547.3</ele>
        <time>2022-03-07T15:16:03Z</time>
      </trkpt>
      <trkpt lat="45.8718" lon="4.18834">
        <ele>537.9</ele>
        <time>2022-03-07T15:16:08Z</time>
      </trkpt>
      <trkpt lat="45.8718" lon="4.18841">
        <ele>541.9</ele>
        <time>2022-03-07T15:16:13Z</time>
      </trkpt>
      <trkpt lat="45.87178" lon="4.18848">
        <ele>540.8</ele>
        <time>2022-03-07T15:16:19Z</time>
      </trkpt>
      <trkpt lat="45.87177" lon="4.18853">
        <ele>545.7</ele>
        <time>2022-03-07T15:16:24Z</time>
      </trkpt>
      <trkpt lat="45.87175" lon="4.18857">
        <ele>572.9</ele>
        <time>2022-03-07T15:16:29Z</time>
      </trkpt>
      <trkpt lat="45.87174" lon="4.18864">
        <ele>507.5</ele>
        <time>2022-03-07T15:16:35Z</time>
      </trkpt>
      <trkpt lat="45.87174" lon="4.18868">
        <ele>507</ele>
        <time>2022-03-07T15:16:40Z</time>
      </trkpt>
      <trkpt lat="45.87175" lon="4.18867">
        <ele>507.1</ele>
        <time>2022-03-07T15:16:45Z</time>
      </trkpt>
      <trkpt lat="45.87175" lon="4.18866">
        <ele>509</ele>
        <time>2022-03-07T15:16:51Z</time>
      </trkpt>
      <trkpt lat="45.87174" lon="4.1887">
        <ele>509.1</ele>
        <time>2022-03-07T15:16:56Z</time>
      </trkpt>
      <trkpt lat="45.87174" lon="4.18877">
        <ele>557.6</ele>
        <time>2022-03-07T15:17:02Z</time>
      </trkpt>
      <trkpt lat="45.87174" lon="4.18883">
        <ele>541.6</ele>
        <time>2022-03-07T15:17:07Z</time>
      </trkpt>
      <trkpt lat="45.87174" lon="4.18889">
        <ele>541.7</ele>
        <time>2022-03-07T15:17:12Z</time>
      </trkpt>
      <trkpt lat="45.87174" lon="4.18895">
        <ele>512.1</ele>
        <time>2022-03-07T15:17:17Z</time>
      </trkpt>
      <trkpt lat="45.87175" lon="4.18901">
        <ele>512.6</ele>
        <time>2022-03-07T15:17:23Z</time>
      </trkpt>
      <trkpt lat="45.87174" lon="4.18906">
        <ele>559.4</ele>
        <time>2022-03-07T15:17:28Z</time>
      </trkpt>
      <trkpt lat="45.87174" lon="4.18912">
        <ele>542.3</ele>
        <time>2022-03-07T15:17:34Z</time>
      </trkpt>
      <trkpt lat="45.87175" lon="4.18917">
        <ele>509.5</ele>
        <time>2022-03-07T15:17:39Z</time>
      </trkpt>
      <trkpt lat="45.87175" lon="4.18916">
        <ele>510.8</ele>
        <time>2022-03-07T15:17:44Z</time>
      </trkpt>
      <trkpt lat="45.87175" lon="4.18916">
        <ele>510</ele>
        <time>2022-03-07T15:17:50Z</time>
      </trkpt>
      <trkpt lat="45.87175" lon="4.1892">
        <ele>510.9</ele>
        <time>2022-03-07T15:17:55Z</time>
      </trkpt>
      <trkpt lat="45.87175" lon="4.18926">
        <ele>513.2</ele>
        <time>2022-03-07T15:18:01Z</time>
      </trkpt>
      <trkpt lat="45.87175" lon="4.18933">
        <ele>513.9</ele>
        <time>2022-03-07T15:18:06Z</time>
      </trkpt>
      <trkpt lat="45.87175" lon="4.18939">
        <ele>514.8</ele>
        <time>2022-03-07T15:18:11Z</time>
      </trkpt>
      <trkpt lat="45.87174" lon="4.18945">
        <ele>511.4</ele>
        <time>2022-03-07T15:18:16Z</time>
      </trkpt>
      <trkpt lat="45.87174" lon="4.18952">
        <ele>511.6</ele>
        <time>2022-03-07T15:18:22Z</time>
      </trkpt>
      <trkpt lat="45.87174" lon="4.18959">
        <ele>513.3</ele>
        <time>2022-03-07T15:18:27Z</time>
      </trkpt>
      <trkpt lat="45.87175" lon="4.18965">
        <ele>512.7</ele>
        <time>2022-03-07T15:18:32Z</time>
      </trkpt>
      <trkpt lat="45.87174" lon="4.18971">
        <ele>511.8</ele>
        <time>2022-03-07T15:18:37Z</time>
      </trkpt>
      <trkpt lat="45.87173" lon="4.18978">
        <ele>508.8</ele>
        <time>2022-03-07T15:18:42Z</time>
      </trkpt>
      <trkpt lat="45.87171" lon="4.18985">
        <ele>509.7</ele>
        <time>2022-03-07T15:18:48Z</time>
      </trkpt>
      <trkpt lat="45.8717" lon="4.18993">
        <ele>509.2</ele>
        <time>2022-03-07T15:18:53Z</time>
      </trkpt>
      <trkpt lat="45.87168" lon="4.19001">
        <ele>512.2</ele>
        <time>2022-03-07T15:18:58Z</time>
      </trkpt>
      <trkpt lat="45.87167" lon="4.19006">
        <ele>513.9</ele>
        <time>2022-03-07T15:19:04Z</time>
      </trkpt>
      <trkpt lat="45.87167" lon="4.19009">
        <ele>510.2</ele>
        <time>2022-03-07T15:19:09Z</time>
      </trkpt>
      <trkpt lat="45.87167" lon="4.19013">
        <ele>519.4</ele>
        <time>2022-03-07T15:19:15Z</time>
      </trkpt>
      <trkpt lat="45.87166" lon="4.19015">
        <ele>520</ele>
        <time>2022-03-07T15:19:20Z</time>
      </trkpt>
      <trkpt lat="45.87164" lon="4.19019">
        <ele>520.8</ele>
        <time>2022-03-07T15:19:25Z</time>
      </trkpt>
      <trkpt lat="45.87162" lon="4.19024">
        <ele>521.6</ele>
        <time>2022-03-07T15:19:31Z</time>
      </trkpt>
      <trkpt lat="45.8716" lon="4.19028">
        <ele>521.8</ele>
        <time>2022-03-07T15:19:36Z</time>
      </trkpt>
      <trkpt lat="45.87157" lon="4.19031">
        <ele>522.1</ele>
        <time>2022-03-07T15:19:41Z</time>
      </trkpt>
      <trkpt lat="45.87154" lon="4.19035">
        <ele>522.6</ele>
        <time>2022-03-07T15:19:47Z</time>
      </trkpt>
      <trkpt lat="45.87149" lon="4.19041">
        <ele>521.7</ele>
        <time>2022-03-07T15:19:52Z</time>
      </trkpt>
      <trkpt lat="45.87145" lon="4.19046">
        <ele>521.8</ele>
        <time>2022-03-07T15:19:57Z</time>
      </trkpt>
      <trkpt lat="45.8714" lon="4.1905">
        <ele>522.4</ele>
        <time>2022-03-07T15:20:02Z</time>
      </trkpt>
      <trkpt lat="45.87136" lon="4.19056">
        <ele>522.6</ele>
        <time>2022-03-07T15:20:07Z</time>
      </trkpt>
      <trkpt lat="45.8713" lon="4.19063">
        <ele>522.4</ele>
        <time>2022-03-07T15:20:13Z</time>
      </trkpt>
      <trkpt lat="45.87127" lon="4.19067">
        <ele>522.9</ele>
        <time>2022-03-07T15:20:19Z</time>
      </trkpt>
      <trkpt lat="45.87126" lon="4.19069">
        <ele>600.3</ele>
        <time>2022-03-07T15:20:25Z</time>
      </trkpt>
      <trkpt lat="45.87127" lon="4.19069">
        <ele>526.2</ele>
        <time>2022-03-07T15:20:30Z</time>
      </trkpt>
      <trkpt lat="45.87127" lon="4.1907">
        <ele>523.2</ele>
        <time>2022-03-07T15:20:35Z</time>
      </trkpt>
      <trkpt lat="45.87124" lon="4.19071">
        <ele>524.9</ele>
        <time>2022-03-07T15:20:41Z</time>
      </trkpt>
      <trkpt lat="45.87119" lon="4.19073">
        <ele>525.4</ele>
        <time>2022-03-07T15:20:46Z</time>
      </trkpt>
      <trkpt lat="45.87117" lon="4.1907">
        <ele>526.4</ele>
        <time>2022-03-07T15:20:51Z</time>
      </trkpt>
      <trkpt lat="45.87118" lon="4.1907">
        <ele>528</ele>
        <time>2022-03-07T15:20:57Z</time>
      </trkpt>
      <trkpt lat="45.87118" lon="4.19069">
        <ele>567.7</ele>
        <time>2022-03-07T15:21:02Z</time>
      </trkpt>
      <trkpt lat="45.87117" lon="4.19069">
        <ele>555.4</ele>
        <time>2022-03-07T15:21:08Z</time>
      </trkpt>
      <trkpt lat="45.87117" lon="4.1907">
        <ele>568.2</ele>
        <time>2022-03-07T15:21:13Z</time>
      </trkpt>
      <trkpt lat="45.87116" lon="4.19073">
        <ele>555.5</ele>
        <time>2022-03-07T15:21:19Z</time>
      </trkpt>
      <trkpt lat="45.87113" lon="4.19076">
        <ele>555.7</ele>
        <time>2022-03-07T15:21:24Z</time>
      </trkpt>
      <trkpt lat="45.87107" lon="4.19077">
        <ele>555.7</ele>
        <time>2022-03-07T15:21:30Z</time>
      </trkpt>
      <trkpt lat="45.87102" lon="4.19078">
        <ele>559.4</ele>
        <time>2022-03-07T15:21:35Z</time>
      </trkpt>
      <trkpt lat="45.87098" lon="4.19081">
        <ele>554.1</ele>
        <time>2022-03-07T15:21:40Z</time>
      </trkpt>
      <trkpt lat="45.87093" lon="4.19084">
        <ele>567.5</ele>
        <time>2022-03-07T15:21:46Z</time>
      </trkpt>
      <trkpt lat="45.87089" lon="4.19086">
        <ele>553.7</ele>
        <time>2022-03-07T15:21:51Z</time>
      </trkpt>
      <trkpt lat="45.87084" lon="4.19087">
        <ele>554.6</ele>
        <time>2022-03-07T15:21:56Z</time>
      </trkpt>
      <trkpt lat="45.87078" lon="4.19088">
        <ele>567.8</ele>
        <time>2022-03-07T15:22:01Z</time>
      </trkpt>
      <trkpt lat="45.87071" lon="4.19091">
        <ele>554.6</ele>
        <time>2022-03-07T15:22:07Z</time>
      </trkpt>
      <trkpt lat="45.87066" lon="4.19093">
        <ele>567.7</ele>
        <time>2022-03-07T15:22:12Z</time>
      </trkpt>
      <trkpt lat="45.8706" lon="4.19094">
        <ele>554.3</ele>
        <time>2022-03-07T15:22:18Z</time>
      </trkpt>
      <trkpt lat="45.87055" lon="4.19095">
        <ele>555</ele>
        <time>2022-03-07T15:22:23Z</time>
      </trkpt>
      <trkpt lat="45.8705" lon="4.19095">
        <ele>567.7</ele>
        <time>2022-03-07T15:22:28Z</time>
      </trkpt>
      <trkpt lat="45.87046" lon="4.19096">
        <ele>579.8</ele>
        <time>2022-03-07T15:22:33Z</time>
      </trkpt>
      <trkpt lat="45.87042" lon="4.19096">
        <ele>561.7</ele>
        <time>2022-03-07T15:22:39Z</time>
      </trkpt>
      <trkpt lat="45.87037" lon="4.19097">
        <ele>530.5</ele>
        <time>2022-03-07T15:22:44Z</time>
      </trkpt>
      <trkpt lat="45.87031" lon="4.19097">
        <ele>531.7</ele>
        <time>2022-03-07T15:22:49Z</time>
      </trkpt>
      <trkpt lat="45.87027" lon="4.191">
        <ele>569.6</ele>
        <time>2022-03-07T15:22:54Z</time>
      </trkpt>
      <trkpt lat="45.87023" lon="4.19104">
        <ele>585.6</ele>
        <time>2022-03-07T15:23:00Z</time>
      </trkpt>
      <trkpt lat="45.87017" lon="4.19102">
        <ele>565.3</ele>
        <time>2022-03-07T15:23:05Z</time>
      </trkpt>
      <trkpt lat="45.8701" lon="4.19099">
        <ele>560.5</ele>
        <time>2022-03-07T15:23:10Z</time>
      </trkpt>
      <trkpt lat="45.87002" lon="4.19098">
        <ele>569.6</ele>
        <time>2022-03-07T15:23:16Z</time>
      </trkpt>
      <trkpt lat="45.86995" lon="4.191">
        <ele>560.2</ele>
        <time>2022-03-07T15:23:21Z</time>
      </trkpt>
      <trkpt lat="45.8699" lon="4.19103">
        <ele>567.1</ele>
        <time>2022-03-07T15:23:27Z</time>
      </trkpt>
      <trkpt lat="45.86985" lon="4.19105">
        <ele>587.5</ele>
        <time>2022-03-07T15:23:32Z</time>
      </trkpt>
      <trkpt lat="45.8698" lon="4.19107">
        <ele>590.5</ele>
        <time>2022-03-07T15:23:37Z</time>
      </trkpt>
      <trkpt lat="45.86974" lon="4.19106">
        <ele>579.5</ele>
        <time>2022-03-07T15:23:43Z</time>
      </trkpt>
      <trkpt lat="45.86968" lon="4.19103">
        <ele>572.1</ele>
        <time>2022-03-07T15:23:48Z</time>
      </trkpt>
      <trkpt lat="45.86963" lon="4.19104">
        <ele>571</ele>
        <time>2022-03-07T15:23:54Z</time>
      </trkpt>
      <trkpt lat="45.86958" lon="4.19106">
        <ele>560.3</ele>
        <time>2022-03-07T15:23:59Z</time>
      </trkpt>
      <trkpt lat="45.86953" lon="4.19105">
        <ele>557.3</ele>
        <time>2022-03-07T15:24:04Z</time>
      </trkpt>
      <trkpt lat="45.86947" lon="4.19103">
        <ele>570</ele>
        <time>2022-03-07T15:24:09Z</time>
      </trkpt>
      <trkpt lat="45.86941" lon="4.19103">
        <ele>570.3</ele>
        <time>2022-03-07T15:24:15Z</time>
      </trkpt>
      <trkpt lat="45.86934" lon="4.191">
        <ele>562.4</ele>
        <time>2022-03-07T15:24:20Z</time>
      </trkpt>
      <trkpt lat="45.86926" lon="4.19101">
        <ele>562</ele>
        <time>2022-03-07T15:24:26Z</time>
      </trkpt>
      <trkpt lat="45.86919" lon="4.191">
        <ele>570.7</ele>
        <time>2022-03-07T15:24:31Z</time>
      </trkpt>
      <trkpt lat="45.86913" lon="4.19098">
        <ele>574.4</ele>
        <time>2022-03-07T15:24:36Z</time>
      </trkpt>
      <trkpt lat="45.86908" lon="4.191">
        <ele>573.7</ele>
        <time>2022-03-07T15:24:42Z</time>
      </trkpt>
      <trkpt lat="45.86902" lon="4.19103">
        <ele>592.9</ele>
        <time>2022-03-07T15:24:47Z</time>
      </trkpt>
      <trkpt lat="45.86897" lon="4.19106">
        <ele>597.3</ele>
        <time>2022-03-07T15:24:53Z</time>
      </trkpt>
      <trkpt lat="45.86893" lon="4.19111">
        <ele>515</ele>
        <time>2022-03-07T15:24:58Z</time>
      </trkpt>
      <trkpt lat="45.86887" lon="4.19114">
        <ele>519.5</ele>
        <time>2022-03-07T15:25:03Z</time>
      </trkpt>
      <trkpt lat="45.86881" lon="4.1912">
        <ele>518.3</ele>
        <time>2022-03-07T15:25:09Z</time>
      </trkpt>
      <trkpt lat="45.86875" lon="4.19128">
        <ele>576.3</ele>
        <time>2022-03-07T15:25:14Z</time>
      </trkpt>
      <trkpt lat="45.86868" lon="4.19135">
        <ele>575.6</ele>
        <time>2022-03-07T15:25:20Z</time>
      </trkpt>
      <trkpt lat="45.86862" lon="4.19143">
        <ele>588.1</ele>
        <time>2022-03-07T15:25:25Z</time>
      </trkpt>
      <trkpt lat="45.86858" lon="4.1915">
        <ele>515.5</ele>
        <time>2022-03-07T15:25:30Z</time>
      </trkpt>
      <trkpt lat="45.86852" lon="4.19155">
        <ele>511.5</ele>
        <time>2022-03-07T15:25:36Z</time>
      </trkpt>
      <trkpt lat="45.86845" lon="4.19161">
        <ele>513.9</ele>
        <time>2022-03-07T15:25:42Z</time>
      </trkpt>
      <trkpt lat="45.86838" lon="4.19165">
        <ele>511.5</ele>
        <time>2022-03-07T15:25:47Z</time>
      </trkpt>
      <trkpt lat="45.86833" lon="4.19174">
        <ele>510.3</ele>
        <time>2022-03-07T15:25:53Z</time>
      </trkpt>
      <trkpt lat="45.8684" lon="4.19181">
        <ele>515</ele>
        <time>2022-03-07T15:25:58Z</time>
      </trkpt>
      <trkpt lat="45.86844" lon="4.19187">
        <ele>513.4</ele>
        <time>2022-03-07T15:26:04Z</time>
      </trkpt>
      <trkpt lat="45.86844" lon="4.19198">
        <ele>511.1</ele>
        <time>2022-03-07T15:26:09Z</time>
      </trkpt>
      <trkpt lat="45.86843" lon="4.19207">
        <ele>515</ele>
        <time>2022-03-07T15:26:14Z</time>
      </trkpt>
      <trkpt lat="45.86843" lon="4.19216">
        <ele>511.2</ele>
        <time>2022-03-07T15:26:19Z</time>
      </trkpt>
      <trkpt lat="45.86843" lon="4.19225">
        <ele>513.1</ele>
        <time>2022-03-07T15:26:25Z</time>
      </trkpt>
      <trkpt lat="45.86843" lon="4.19234">
        <ele>513.3</ele>
        <time>2022-03-07T15:26:30Z</time>
      </trkpt>
      <trkpt lat="45.86843" lon="4.19242">
        <ele>511.2</ele>
        <time>2022-03-07T15:26:35Z</time>
      </trkpt>
      <trkpt lat="45.86839" lon="4.19247">
        <ele>509.7</ele>
        <time>2022-03-07T15:26:41Z</time>
      </trkpt>
      <trkpt lat="45.86832" lon="4.19245">
        <ele>513.5</ele>
        <time>2022-03-07T15:26:46Z</time>
      </trkpt>
      <trkpt lat="45.86829" lon="4.19239">
        <ele>509.5</ele>
        <time>2022-03-07T15:26:51Z</time>
      </trkpt>
      <trkpt lat="45.86823" lon="4.19229">
        <ele>511.8</ele>
        <time>2022-03-07T15:26:56Z</time>
      </trkpt>
      <trkpt lat="45.86817" lon="4.19222">
        <ele>514.5</ele>
        <time>2022-03-07T15:27:01Z</time>
      </trkpt>
      <trkpt lat="45.86815" lon="4.19224">
        <ele>516.1</ele>
        <time>2022-03-07T15:27:07Z</time>
      </trkpt>
      <trkpt lat="45.86814" lon="4.19227">
        <ele>517.1</ele>
        <time>2022-03-07T15:27:13Z</time>
      </trkpt>
      <trkpt lat="45.86812" lon="4.19229">
        <ele>519.6</ele>
        <time>2022-03-07T15:27:18Z</time>
      </trkpt>
      <trkpt lat="45.86811" lon="4.19231">
        <ele>521.5</ele>
        <time>2022-03-07T15:27:23Z</time>
      </trkpt>
      <trkpt lat="45.86807" lon="4.19231">
        <ele>521.5</ele>
        <time>2022-03-07T15:27:29Z</time>
      </trkpt>
      <trkpt lat="45.86806" lon="4.19232">
        <ele>521.7</ele>
        <time>2022-03-07T15:27:34Z</time>
      </trkpt>
      <trkpt lat="45.86806" lon="4.19233">
        <ele>520.6</ele>
        <time>2022-03-07T15:27:40Z</time>
      </trkpt>
      <trkpt lat="45.86805" lon="4.19232">
        <ele>522.3</ele>
        <time>2022-03-07T15:27:46Z</time>
      </trkpt>
      <trkpt lat="45.86799" lon="4.19234">
        <ele>521.6</ele>
        <time>2022-03-07T15:27:52Z</time>
      </trkpt>
      <trkpt lat="45.86792" lon="4.1924">
        <ele>521.8</ele>
        <time>2022-03-07T15:27:57Z</time>
      </trkpt>
      <trkpt lat="45.86789" lon="4.19245">
        <ele>520.5</ele>
        <time>2022-03-07T15:28:03Z</time>
      </trkpt>
      <trkpt lat="45.8679" lon="4.1925">
        <ele>520.8</ele>
        <time>2022-03-07T15:28:08Z</time>
      </trkpt>
      <trkpt lat="45.86789" lon="4.19256">
        <ele>520.7</ele>
        <time>2022-03-07T15:28:14Z</time>
      </trkpt>
      <trkpt lat="45.86788" lon="4.19264">
        <ele>520.2</ele>
        <time>2022-03-07T15:28:19Z</time>
      </trkpt>
      <trkpt lat="45.86789" lon="4.19273">
        <ele>520.3</ele>
        <time>2022-03-07T15:28:25Z</time>
      </trkpt>
      <trkpt lat="45.86778" lon="4.19268">
        <ele>519.4</ele>
        <time>2022-03-07T15:28:30Z</time>
      </trkpt>
      <trkpt lat="45.86769" lon="4.19265">
        <ele>520.4</ele>
        <time>2022-03-07T15:28:35Z</time>
      </trkpt>
      <trkpt lat="45.86764" lon="4.19265">
        <ele>521.9</ele>
        <time>2022-03-07T15:28:41Z</time>
      </trkpt>
      <trkpt lat="45.86758" lon="4.19267">
        <ele>520.6</ele>
        <time>2022-03-07T15:28:47Z</time>
      </trkpt>
      <trkpt lat="45.86749" lon="4.19262">
        <ele>520</ele>
        <time>2022-03-07T15:28:52Z</time>
      </trkpt>
      <trkpt lat="45.86742" lon="4.19262">
        <ele>520.8</ele>
        <time>2022-03-07T15:28:57Z</time>
      </trkpt>
      <trkpt lat="45.86738" lon="4.19265">
        <ele>519.6</ele>
        <time>2022-03-07T15:29:02Z</time>
      </trkpt>
      <trkpt lat="45.86738" lon="4.19269">
        <ele>518.8</ele>
        <time>2022-03-07T15:29:07Z</time>
      </trkpt>
      <trkpt lat="45.86732" lon="4.1927">
        <ele>518.1</ele>
        <time>2022-03-07T15:29:12Z</time>
      </trkpt>
      <trkpt lat="45.86726" lon="4.1927">
        <ele>518</ele>
        <time>2022-03-07T15:29:18Z</time>
      </trkpt>
      <trkpt lat="45.8672" lon="4.19271">
        <ele>517.6</ele>
        <time>2022-03-07T15:29:24Z</time>
      </trkpt>
      <trkpt lat="45.86716" lon="4.19274">
        <ele>516.9</ele>
        <time>2022-03-07T15:29:29Z</time>
      </trkpt>
      <trkpt lat="45.86711" lon="4.19276">
        <ele>513.8</ele>
        <time>2022-03-07T15:29:35Z</time>
      </trkpt>
      <trkpt lat="45.86706" lon="4.19276">
        <ele>513.6</ele>
        <time>2022-03-07T15:29:40Z</time>
      </trkpt>
      <trkpt lat="45.867" lon="4.19277">
        <ele>511.9</ele>
        <time>2022-03-07T15:29:45Z</time>
      </trkpt>
      <trkpt lat="45.86695" lon="4.19279">
        <ele>511.6</ele>
        <time>2022-03-07T15:29:50Z</time>
      </trkpt>
      <trkpt lat="45.86689" lon="4.1928">
        <ele>512.8</ele>
        <time>2022-03-07T15:29:56Z</time>
      </trkpt>
      <trkpt lat="45.86683" lon="4.19285">
        <ele>513</ele>
        <time>2022-03-07T15:30:01Z</time>
      </trkpt>
      <trkpt lat="45.86678" lon="4.1929">
        <ele>514.3</ele>
        <time>2022-03-07T15:30:07Z</time>
      </trkpt>
      <trkpt lat="45.86674" lon="4.19297">
        <ele>514.1</ele>
        <time>2022-03-07T15:30:12Z</time>
      </trkpt>
      <trkpt lat="45.8667" lon="4.19301">
        <ele>514.4</ele>
        <time>2022-03-07T15:30:18Z</time>
      </trkpt>
      <trkpt lat="45.86665" lon="4.19303">
        <ele>514.8</ele>
        <time>2022-03-07T15:30:23Z</time>
      </trkpt>
      <trkpt lat="45.86667" lon="4.19303">
        <ele>514.8</ele>
        <time>2022-03-07T15:30:29Z</time>
      </trkpt>
      <trkpt lat="45.86664" lon="4.19303">
        <ele>513.2</ele>
        <time>2022-03-07T15:30:34Z</time>
      </trkpt>
      <trkpt lat="45.86656" lon="4.19302">
        <ele>511.7</ele>
        <time>2022-03-07T15:30:40Z</time>
      </trkpt>
      <trkpt lat="45.8665" lon="4.19299">
        <ele>511.2</ele>
        <time>2022-03-07T15:30:45Z</time>
      </trkpt>
      <trkpt lat="45.86645" lon="4.19297">
        <ele>510</ele>
        <time>2022-03-07T15:30:50Z</time>
      </trkpt>
      <trkpt lat="45.86642" lon="4.19297">
        <ele>509.8</ele>
        <time>2022-03-07T15:30:55Z</time>
      </trkpt>
      <trkpt lat="45.8664" lon="4.19296">
        <ele>509.4</ele>
        <time>2022-03-07T15:31:01Z</time>
      </trkpt>
      <trkpt lat="45.86638" lon="4.19291">
        <ele>508.6</ele>
        <time>2022-03-07T15:31:06Z</time>
      </trkpt>
      <trkpt lat="45.86639" lon="4.19284">
        <ele>509.4</ele>
        <time>2022-03-07T15:31:12Z</time>
      </trkpt>
      <trkpt lat="45.86637" lon="4.19277">
        <ele>509.6</ele>
        <time>2022-03-07T15:31:17Z</time>
      </trkpt>
      <trkpt lat="45.86632" lon="4.19278">
        <ele>509.7</ele>
        <time>2022-03-07T15:31:22Z</time>
      </trkpt>
      <trkpt lat="45.86632" lon="4.19277">
        <ele>511.6</ele>
        <time>2022-03-07T15:31:28Z</time>
      </trkpt>
      <trkpt lat="45.86633" lon="4.19277">
        <ele>511.1</ele>
        <time>2022-03-07T15:31:33Z</time>
      </trkpt>
      <trkpt lat="45.86633" lon="4.19277">
        <ele>511.5</ele>
        <time>2022-03-07T15:31:39Z</time>
      </trkpt>
      <trkpt lat="45.86633" lon="4.19278">
        <ele>509.1</ele>
        <time>2022-03-07T15:31:45Z</time>
      </trkpt>
      <trkpt lat="45.86633" lon="4.19279">
        <ele>508.7</ele>
        <time>2022-03-07T15:31:51Z</time>
      </trkpt>
      <trkpt lat="45.86633" lon="4.19279">
        <ele>509</ele>
        <time>2022-03-07T15:31:56Z</time>
      </trkpt>
      <trkpt lat="45.86634" lon="4.19279">
        <ele>508.8</ele>
        <time>2022-03-07T15:32:02Z</time>
      </trkpt>
      <trkpt lat="45.86635" lon="4.19281">
        <ele>508</ele>
        <time>2022-03-07T15:32:07Z</time>
      </trkpt>
      <trkpt lat="45.86637" lon="4.19286">
        <ele>509</ele>
        <time>2022-03-07T15:32:13Z</time>
      </trkpt>
      <trkpt lat="45.86636" lon="4.19292">
        <ele>511.1</ele>
        <time>2022-03-07T15:32:18Z</time>
      </trkpt>
      <trkpt lat="45.86634" lon="4.19296">
        <ele>511</ele>
        <time>2022-03-07T15:32:23Z</time>
      </trkpt>
      <trkpt lat="45.86634" lon="4.19299">
        <ele>511.1</ele>
        <time>2022-03-07T15:32:28Z</time>
      </trkpt>
      <trkpt lat="45.86635" lon="4.19297">
        <ele>511.1</ele>
        <time>2022-03-07T15:32:34Z</time>
      </trkpt>
      <trkpt lat="45.86635" lon="4.19297">
        <ele>509.3</ele>
        <time>2022-03-07T15:32:39Z</time>
      </trkpt>
      <trkpt lat="45.86632" lon="4.19297">
        <ele>508.7</ele>
        <time>2022-03-07T15:32:44Z</time>
      </trkpt>
      <trkpt lat="45.86628" lon="4.19302">
        <ele>510.3</ele>
        <time>2022-03-07T15:32:49Z</time>
      </trkpt>
      <trkpt lat="45.86622" lon="4.19308">
        <ele>508.6</ele>
        <time>2022-03-07T15:32:55Z</time>
      </trkpt>
      <trkpt lat="45.86617" lon="4.19316">
        <ele>505.9</ele>
        <time>2022-03-07T15:33:00Z</time>
      </trkpt>
      <trkpt lat="45.86614" lon="4.19323">
        <ele>506.8</ele>
        <time>2022-03-07T15:33:06Z</time>
      </trkpt>
      <trkpt lat="45.86611" lon="4.19327">
        <ele>508</ele>
        <time>2022-03-07T15:33:11Z</time>
      </trkpt>
      <trkpt lat="45.86604" lon="4.19331">
        <ele>507.7</ele>
        <time>2022-03-07T15:33:16Z</time>
      </trkpt>
      <trkpt lat="45.86593" lon="4.19331">
        <ele>511.5</ele>
        <time>2022-03-07T15:33:22Z</time>
      </trkpt>
      <trkpt lat="45.86587" lon="4.19338">
        <ele>509.5</ele>
        <time>2022-03-07T15:33:27Z</time>
      </trkpt>
      <trkpt lat="45.86582" lon="4.19346">
        <ele>509.6</ele>
        <time>2022-03-07T15:33:33Z</time>
      </trkpt>
      <trkpt lat="45.86579" lon="4.1935">
        <ele>509.1</ele>
        <time>2022-03-07T15:33:38Z</time>
      </trkpt>
      <trkpt lat="45.86579" lon="4.19347">
        <ele>510</ele>
        <time>2022-03-07T15:33:44Z</time>
      </trkpt>
      <trkpt lat="45.8658" lon="4.19347">
        <ele>509.6</ele>
        <time>2022-03-07T15:33:50Z</time>
      </trkpt>
      <trkpt lat="45.86581" lon="4.19348">
        <ele>508.7</ele>
        <time>2022-03-07T15:33:56Z</time>
      </trkpt>
      <trkpt lat="45.86581" lon="4.19348">
        <ele>508.4</ele>
        <time>2022-03-07T15:34:01Z</time>
      </trkpt>
      <trkpt lat="45.86582" lon="4.19348">
        <ele>510.4</ele>
        <time>2022-03-07T15:34:07Z</time>
      </trkpt>
      <trkpt lat="45.86582" lon="4.19348">
        <ele>510.4</ele>
        <time>2022-03-07T15:34:13Z</time>
      </trkpt>
      <trkpt lat="45.86582" lon="4.19348">
        <ele>510.4</ele>
        <time>2022-03-07T15:34:18Z</time>
      </trkpt>
      <trkpt lat="45.86582" lon="4.19348">
        <ele>510.4</ele>
        <time>2022-03-07T15:34:24Z</time>
      </trkpt>
      <trkpt lat="45.86582" lon="4.19348">
        <ele>510.4</ele>
        <time>2022-03-07T15:34:30Z</time>
      </trkpt>
      <trkpt lat="45.86582" lon="4.19348">
        <ele>508.3</ele>
        <time>2022-03-07T15:34:35Z</time>
      </trkpt>
      <trkpt lat="45.86583" lon="4.19348">
        <ele>508.4</ele>
        <time>2022-03-07T15:34:41Z</time>
      </trkpt>
      <trkpt lat="45.86582" lon="4.19348">
        <ele>508.5</ele>
        <time>2022-03-07T15:34:46Z</time>
      </trkpt>
      <trkpt lat="45.86582" lon="4.19348">
        <ele>508.4</ele>
        <time>2022-03-07T15:34:51Z</time>
      </trkpt>
      <trkpt lat="45.86582" lon="4.19348">
        <ele>508.4</ele>
        <time>2022-03-07T15:34:56Z</time>
      </trkpt>
      <trkpt lat="45.86582" lon="4.19348">
        <ele>508.4</ele>
        <time>2022-03-07T15:35:01Z</time>
      </trkpt>
      <trkpt lat="45.86582" lon="4.19348">
        <ele>508.4</ele>
        <time>2022-03-07T15:35:07Z</time>
      </trkpt>
      <trkpt lat="45.86582" lon="4.19348">
        <ele>508.6</ele>
        <time>2022-03-07T15:35:13Z</time>
      </trkpt>
      <trkpt lat="45.86582" lon="4.19348">
        <ele>510.4</ele>
        <time>2022-03-07T15:35:36Z</time>
      </trkpt>
      <trkpt lat="45.86582" lon="4.19348">
        <ele>511.9</ele>
        <time>2022-03-07T15:36:03Z</time>
      </trkpt>
      <trkpt lat="45.86582" lon="4.19348">
        <ele>508.8</ele>
        <time>2022-03-07T15:36:09Z</time>
      </trkpt>
      <trkpt lat="45.86582" lon="4.19347">
        <ele>509.1</ele>
        <time>2022-03-07T15:36:14Z</time>
      </trkpt>
      <trkpt lat="45.86584" lon="4.19346">
        <ele>508.7</ele>
        <time>2022-03-07T15:36:20Z</time>
      </trkpt>
      <trkpt lat="45.86589" lon="4.19344">
        <ele>510.4</ele>
        <time>2022-03-07T15:36:25Z</time>
      </trkpt>
      <trkpt lat="45.86593" lon="4.19338">
        <ele>513.9</ele>
        <time>2022-03-07T15:36:30Z</time>
      </trkpt>
      <trkpt lat="45.86598" lon="4.19331">
        <ele>511.8</ele>
        <time>2022-03-07T15:36:35Z</time>
      </trkpt>
      <trkpt lat="45.86603" lon="4.19327">
        <ele>511</ele>
        <time>2022-03-07T15:36:41Z</time>
      </trkpt>
      <trkpt lat="45.86609" lon="4.19326">
        <ele>510.6</ele>
        <time>2022-03-07T15:36:46Z</time>
      </trkpt>
      <trkpt lat="45.86615" lon="4.19326">
        <ele>510</ele>
        <time>2022-03-07T15:36:51Z</time>
      </trkpt>
      <trkpt lat="45.86619" lon="4.19323">
        <ele>509</ele>
        <time>2022-03-07T15:36:57Z</time>
      </trkpt>
      <trkpt lat="45.86623" lon="4.19318">
        <ele>509.3</ele>
        <time>2022-03-07T15:37:02Z</time>
      </trkpt>
      <trkpt lat="45.86626" lon="4.19312">
        <ele>512</ele>
        <time>2022-03-07T15:37:07Z</time>
      </trkpt>
      <trkpt lat="45.8663" lon="4.19308">
        <ele>512.4</ele>
        <time>2022-03-07T15:37:12Z</time>
      </trkpt>
      <trkpt lat="45.86632" lon="4.19304">
        <ele>512.2</ele>
        <time>2022-03-07T15:37:17Z</time>
      </trkpt>
      <trkpt lat="45.86635" lon="4.19303">
        <ele>512.1</ele>
        <time>2022-03-07T15:37:22Z</time>
      </trkpt>
      <trkpt lat="45.86639" lon="4.19303">
        <ele>516.1</ele>
        <time>2022-03-07T15:37:27Z</time>
      </trkpt>
      <trkpt lat="45.86642" lon="4.19297">
        <ele>516.7</ele>
        <time>2022-03-07T15:37:33Z</time>
      </trkpt>
      <trkpt lat="45.86643" lon="4.19291">
        <ele>515.9</ele>
        <time>2022-03-07T15:37:38Z</time>
      </trkpt>
      <trkpt lat="45.86641" lon="4.19284">
        <ele>517.2</ele>
        <time>2022-03-07T15:37:43Z</time>
      </trkpt>
      <trkpt lat="45.86633" lon="4.19279">
        <ele>515.4</ele>
        <time>2022-03-07T15:37:48Z</time>
      </trkpt>
      <trkpt lat="45.86631" lon="4.19279">
        <ele>514.3</ele>
        <time>2022-03-07T15:37:54Z</time>
      </trkpt>
      <trkpt lat="45.86631" lon="4.1928">
        <ele>513.6</ele>
        <time>2022-03-07T15:37:59Z</time>
      </trkpt>
      <trkpt lat="45.86631" lon="4.19281">
        <ele>512.1</ele>
        <time>2022-03-07T15:38:05Z</time>
      </trkpt>
      <trkpt lat="45.86632" lon="4.19281">
        <ele>511.9</ele>
        <time>2022-03-07T15:38:10Z</time>
      </trkpt>
      <trkpt lat="45.86632" lon="4.1928">
        <ele>510.8</ele>
        <time>2022-03-07T15:38:16Z</time>
      </trkpt>
      <trkpt lat="45.86632" lon="4.1928">
        <ele>508.8</ele>
        <time>2022-03-07T15:38:22Z</time>
      </trkpt>
      <trkpt lat="45.86633" lon="4.1928">
        <ele>510.8</ele>
        <time>2022-03-07T15:38:45Z</time>
      </trkpt>
      <trkpt lat="45.86633" lon="4.19279">
        <ele>512</ele>
        <time>2022-03-07T15:38:51Z</time>
      </trkpt>
      <trkpt lat="45.86634" lon="4.19279">
        <ele>511.8</ele>
        <time>2022-03-07T15:38:57Z</time>
      </trkpt>
      <trkpt lat="45.86634" lon="4.19279">
        <ele>511.5</ele>
        <time>2022-03-07T15:39:02Z</time>
      </trkpt>
      <trkpt lat="45.86634" lon="4.19279">
        <ele>554.6</ele>
        <time>2022-03-07T15:39:07Z</time>
      </trkpt>
      <trkpt lat="45.86634" lon="4.19279">
        <ele>537.7</ele>
        <time>2022-03-07T15:39:13Z</time>
      </trkpt>
      <trkpt lat="45.86634" lon="4.19279">
        <ele>534.1</ele>
        <time>2022-03-07T15:39:18Z</time>
      </trkpt>
      <trkpt lat="45.86635" lon="4.19279">
        <ele>540</ele>
        <time>2022-03-07T15:39:23Z</time>
      </trkpt>
      <trkpt lat="45.86635" lon="4.19279">
        <ele>541.7</ele>
        <time>2022-03-07T15:39:29Z</time>
      </trkpt>
      <trkpt lat="45.86636" lon="4.19279">
        <ele>534.5</ele>
        <time>2022-03-07T15:39:40Z</time>
      </trkpt>
      <trkpt lat="45.86636" lon="4.19279">
        <ele>535</ele>
        <time>2022-03-07T15:39:46Z</time>
      </trkpt>
      <trkpt lat="45.86636" lon="4.19279">
        <ele>539.4</ele>
        <time>2022-03-07T15:39:52Z</time>
      </trkpt>
      <trkpt lat="45.86636" lon="4.19279">
        <ele>545.9</ele>
        <time>2022-03-07T15:39:58Z</time>
      </trkpt>
      <trkpt lat="45.86636" lon="4.19279">
        <ele>551.4</ele>
        <time>2022-03-07T15:40:03Z</time>
      </trkpt>
      <trkpt lat="45.86636" lon="4.19279">
        <ele>543.4</ele>
        <time>2022-03-07T15:40:09Z</time>
      </trkpt>
      <trkpt lat="45.86637" lon="4.19279">
        <ele>543.6</ele>
        <time>2022-03-07T15:40:20Z</time>
      </trkpt>
      <trkpt lat="45.86636" lon="4.19279">
        <ele>537</ele>
        <time>2022-03-07T15:40:25Z</time>
      </trkpt>
      <trkpt lat="45.86636" lon="4.19279">
        <ele>540.1</ele>
        <time>2022-03-07T15:40:31Z</time>
      </trkpt>
      <trkpt lat="45.86636" lon="4.19279">
        <ele>536.2</ele>
        <time>2022-03-07T15:40:37Z</time>
      </trkpt>
      <trkpt lat="45.86636" lon="4.19279">
        <ele>559.8</ele>
        <time>2022-03-07T15:40:48Z</time>
      </trkpt>
      <trkpt lat="45.86636" lon="4.19281">
        <ele>550.9</ele>
        <time>2022-03-07T15:40:55Z</time>
      </trkpt>
      <trkpt lat="45.86637" lon="4.1928">
        <ele>566.1</ele>
        <time>2022-03-07T15:41:00Z</time>
      </trkpt>
      <trkpt lat="45.86637" lon="4.1928">
        <ele>551.1</ele>
        <time>2022-03-07T15:41:05Z</time>
      </trkpt>
      <trkpt lat="45.86638" lon="4.1928">
        <ele>549.7</ele>
        <time>2022-03-07T15:41:10Z</time>
      </trkpt>
      <trkpt lat="45.86638" lon="4.19279">
        <ele>549.2</ele>
        <time>2022-03-07T15:41:16Z</time>
      </trkpt>
      <trkpt lat="45.86637" lon="4.19279">
        <ele>533.4</ele>
        <time>2022-03-07T15:41:21Z</time>
      </trkpt>
      <trkpt lat="45.86638" lon="4.19281">
        <ele>549.5</ele>
        <time>2022-03-07T15:41:26Z</time>
      </trkpt>
      <trkpt lat="45.86638" lon="4.19281">
        <ele>549.4</ele>
        <time>2022-03-07T15:41:32Z</time>
      </trkpt>
      <trkpt lat="45.86638" lon="4.19281">
        <ele>549.8</ele>
        <time>2022-03-07T15:41:37Z</time>
      </trkpt>
      <trkpt lat="45.86638" lon="4.19281">
        <ele>550.2</ele>
        <time>2022-03-07T15:41:43Z</time>
      </trkpt>
      <trkpt lat="45.86638" lon="4.19281">
        <ele>550.2</ele>
        <time>2022-03-07T15:41:49Z</time>
      </trkpt>
      <trkpt lat="45.86639" lon="4.19287">
        <ele>550.2</ele>
        <time>2022-03-07T15:41:54Z</time>
      </trkpt>
      <trkpt lat="45.86641" lon="4.19296">
        <ele>555.9</ele>
        <time>2022-03-07T15:42:00Z</time>
      </trkpt>
      <trkpt lat="45.86644" lon="4.19303">
        <ele>559</ele>
        <time>2022-03-07T15:42:05Z</time>
      </trkpt>
      <trkpt lat="45.86644" lon="4.19306">
        <ele>551.6</ele>
        <time>2022-03-07T15:42:11Z</time>
      </trkpt>
      <trkpt lat="45.86645" lon="4.1931">
        <ele>551.5</ele>
        <time>2022-03-07T15:42:16Z</time>
      </trkpt>
      <trkpt lat="45.86647" lon="4.19314">
        <ele>551.6</ele>
        <time>2022-03-07T15:42:21Z</time>
      </trkpt>
      <trkpt lat="45.86648" lon="4.19315">
        <ele>551.8</ele>
        <time>2022-03-07T15:42:27Z</time>
      </trkpt>
      <trkpt lat="45.86648" lon="4.19316">
        <ele>551.9</ele>
        <time>2022-03-07T15:42:32Z</time>
      </trkpt>
      <trkpt lat="45.86648" lon="4.19316">
        <ele>551.4</ele>
        <time>2022-03-07T15:42:38Z</time>
      </trkpt>
      <trkpt lat="45.86647" lon="4.19317">
        <ele>550.6</ele>
        <time>2022-03-07T15:42:44Z</time>
      </trkpt>
      <trkpt lat="45.86646" lon="4.19317">
        <ele>550.9</ele>
        <time>2022-03-07T15:42:49Z</time>
      </trkpt>
    </trkseg>
  </trk>
</gpx>